[[{"header":{"parameterUnit":"m.s-1","parameterCategory":1,"la1":30.6,"la2":29.2853,"lo1":-89.7004,"lo2":-87.6739,"dy":0.0162,"dx":0.0183,"nx":112,"ny":82,"refTime":"2026-04-18T00:00:00:Z","depth":0,"parameterNumber":2,"parameterNumberName":"U-component_of_WINDS"},"data":[0.0,0.0,0.0,0.0,0.0,0.0,0.0,0.0,0.0,0.0,0.0,0.0,0.0,0.0,0.0,0.0,0.0,0.0,0.0,0.0,0.0,0.0,0.0,0.0,0.0,0.0,0.0,0.0,0.0,0.0,0.0,0.0,0.0,0.0,0.0,0.0,0.0,0.0,0.0,0.0,0.0,0.0,0.0,0.0,0.0,0.0,0.0,0.0,0.0,0.0,0.0,0.0,0.0,0.0,0.0,0.0,0.0,0.0,0.0,0.0,0.0,0.0,0.0,0.0,0.0,0.0,0.0,0.0,0.0,0.0,0.0,0.0,0.0,0.0,0.0,0.0,0.0,0.0,0.0,0.0,0.0,0.0,0.0,0.0,0.0,0.0,0.0,0.0,0.0,0.0,0.0,-1.525,-1.7252,-1.8189,-1.7483,-1.6843,-1.5949,-1.4618,0.0,0.0,0.0,0.0,0.0,0.0,0.0,0.0,0.0,0.0,0.0,0.0,0.0,0.0,0.0,0.0,0.0,0.0,0.0,0.0,0.0,0.0,0.0,0.0,0.0,0.0,0.0,0.0,0.0,0.0,0.0,0.0,0.0,0.0,0.0,0.0,0.0,0.0,0.0,0.0,0.0,0.0,0.0,0.0,0.0,0.0,0.0,0.0,0.0,0.0,0.0,0.0,0.0,0.0,0.0,0.0,0.0,0.0,0.0,0.0,0.0,0.0,0.0,0.0,0.0,0.0,0.0,0.0,0.0,0.0,0.0,0.0,0.0,0.0,0.0,0.0,0.0,0.0,0.0,0.0,0.0,0.0,0.0,0.0,0.0,0.0,0.0,0.0,0.0,0.0,0.0,0.0,0.0,0.0,0.0,0.0,0.0,0.0,0.0,0.0,0.0,0.0,0.0,0.0,-1.4853,-1.7516,-1.8599,-1.8862,-1.8203,-1.7311,-1.6272,-1.4915,0.0,0.0,0.0,0.0,0.0,0.0,0.0,0.0,0.0,0.0,0.0,0.0,0.0,0.0,0.0,0.0,0.0,0.0,0.0,0.0,0.0,0.0,0.0,0.0,0.0,0.0,0.0,0.0,0.0,0.0,0.0,0.0,0.0,0.0,0.0,0.0,0.0,0.0,0.0,0.0,0.0,0.0,0.0,0.0,0.0,0.0,0.0,0.0,0.0,0.0,0.0,0.0,0.0,0.0,0.0,0.0,0.0,0.0,0.0,0.0,0.0,0.0,0.0,0.0,0.0,0.0,0.0,0.0,0.0,0.0,0.0,0.0,0.0,0.0,0.0,0.0,0.0,0.0,0.0,0.0,0.0,0.0,0.0,0.0,0.0,0.0,0.0,0.0,0.0,0.0,0.0,0.0,0.0,0.0,0.0,0.0,0.0,0.0,0.0,0.0,0.0,0.0,0.0,-1.4882,-1.6769,-1.8628,-1.9403,-1.9462,-1.8628,-1.7677,-1.6491,-1.4988,-1.3076,0.0,0.0,0.0,0.0,0.0,0.0,0.0,0.0,0.0,0.0,0.0,0.0,0.0,0.0,0.0,0.0,0.0,0.0,0.0,0.0,0.0,0.0,0.0,0.0,0.0,0.0,0.0,0.0,0.0,0.0,0.0,0.0,0.0,0.0,0.0,0.0,0.0,0.0,0.0,0.0,0.0,0.0,0.0,0.0,0.0,0.0,0.0,0.0,0.0,0.0,0.0,0.0,0.0,0.0,0.0,0.0,0.0,0.0,0.0,0.0,0.0,0.0,0.0,0.0,0.0,0.0,0.0,0.0,0.0,0.0,0.0,0.0,0.0,0.0,0.0,0.0,0.0,0.0,0.0,0.0,0.0,0.0,0.0,0.0,0.0,0.0,0.0,0.0,0.0,0.0,0.0,0.0,0.0,0.0,0.0,0.0,0.0,0.0,0.0,0.0,0.0,0.0,-1.7179,-1.8584,-1.9418,-2.0018,-1.993,-1.8877,-1.7823,-1.6535,-1.49,-1.2974,0.0,0.0,0.0,0.0,0.0,0.0,0.0,0.0,0.0,0.0,0.0,0.0,0.0,0.0,0.0,0.0,0.0,0.0,0.0,0.0,0.0,0.0,0.0,0.0,0.0,0.0,0.0,0.0,0.0,0.0,0.0,0.0,0.0,0.0,0.0,0.0,0.0,0.0,0.0,0.0,0.0,0.0,0.0,0.0,0.0,0.0,0.0,0.0,0.0,0.0,0.0,0.0,0.0,0.0,0.0,0.0,0.0,0.0,0.0,0.0,0.0,0.0,0.0,0.0,0.0,0.0,0.0,0.0,0.0,0.0,0.0,0.0,0.0,0.0,0.0,0.0,0.0,0.0,0.0,0.0,0.0,0.0,0.0,0.0,0.0,0.0,0.0,0.0,0.0,0.0,0.0,0.0,0.0,0.0,0.0,0.0,0.0,0.0,0.0,0.0,0.0,0.0,-1.8297,-1.9769,-2.0081,-2.0431,-2.0179,-1.8891,-1.7666,-1.6257,-1.4643,-1.2706,0.0,0.0,0.0,0.0,0.0,0.0,0.0,0.0,0.0,0.0,0.0,0.0,0.0,0.0,0.0,0.0,0.0,0.0,0.0,0.0,0.0,0.0,0.0,0.0,0.0,0.0,0.0,0.0,0.0,0.0,0.0,0.0,0.0,0.0,0.0,0.0,0.0,0.0,0.0,0.0,0.0,0.0,0.0,0.0,0.0,0.0,0.0,0.0,0.0,0.0,0.0,0.0,0.0,0.0,0.0,0.0,0.0,0.0,0.0,0.0,0.0,0.0,0.0,0.0,0.0,0.0,0.0,0.0,0.0,0.0,0.0,0.0,0.0,0.0,0.0,0.0,0.0,0.0,0.0,0.0,0.0,0.0,0.0,0.0,0.0,0.0,0.0,0.0,0.0,0.0,0.0,0.0,0.0,0.0,0.0,0.0,0.0,0.0,0.0,0.0,0.0,0.0,-1.8581,-1.9886,0.0,-2.0706,-2.0501,-1.9199,-1.8086,-1.6682,-1.4882,0.0,0.0,0.0,0.0,0.0,0.0,0.0,0.0,0.0,0.0,0.0,0.0,0.0,0.0,0.0,0.0,0.0,0.0,0.0,0.0,0.0,0.0,0.0,0.0,0.0,0.0,0.0,0.0,0.0,0.0,0.0,0.0,0.0,0.0,0.0,0.0,0.0,0.0,0.0,0.0,0.0,0.0,0.0,0.0,0.0,0.0,0.0,0.0,0.0,0.0,0.0,0.0,0.0,0.0,0.0,0.0,0.0,0.0,0.0,0.0,0.0,0.0,0.0,0.0,0.0,0.0,0.0,0.0,0.0,0.0,0.0,0.0,0.0,0.0,0.0,0.0,0.0,0.0,0.0,0.0,0.0,0.0,0.0,0.0,0.0,0.0,0.0,0.0,0.0,0.0,0.0,0.0,0.0,0.0,0.0,0.0,0.0,0.0,0.0,0.0,0.0,0.0,-1.7086,-1.8956,-2.015,0.0,-2.0794,-2.053,-1.9228,-1.8218,-1.6843,-1.4871,0.0,0.0,0.0,0.0,0.0,0.0,0.0,0.0,0.0,0.0,0.0,0.0,0.0,0.0,0.0,0.0,0.0,0.0,0.0,0.0,0.0,0.0,0.0,0.0,0.0,0.0,0.0,0.0,0.0,0.0,0.0,0.0,0.0,0.0,0.0,0.0,0.0,0.0,0.0,0.0,0.0,0.0,0.0,0.0,0.0,0.0,0.0,0.0,0.0,0.0,0.0,0.0,0.0,0.0,0.0,0.0,0.0,0.0,0.0,0.0,0.0,0.0,0.0,0.0,0.0,0.0,0.0,0.0,0.0,0.0,0.0,0.0,0.0,0.0,0.0,0.0,0.0,0.0,0.0,0.0,0.0,0.0,0.0,0.0,0.0,0.0,0.0,0.0,0.0,0.0,0.0,0.0,0.0,0.0,0.0,0.0,0.0,0.0,0.0,0.0,0.0,0.0,-1.7475,-1.9487,-2.072,-2.072,-2.072,-2.0194,-1.8891,-1.7896,-1.6521,0.0,0.0,0.0,0.0,0.0,0.0,0.0,0.0,0.0,0.0,0.0,0.0,0.0,0.0,0.0,0.0,0.0,0.0,0.0,0.0,0.0,0.0,0.0,0.0,0.0,0.0,0.0,0.0,0.0,0.0,0.0,0.0,0.0,0.0,0.0,0.0,0.0,0.0,0.0,0.0,0.0,0.0,0.0,0.0,0.0,0.0,0.0,0.0,0.0,0.0,0.0,0.0,0.0,0.0,0.0,0.0,0.0,0.0,0.0,0.0,0.0,0.0,0.0,0.0,0.0,0.0,0.0,0.0,0.0,0.0,0.0,0.0,0.0,0.0,0.0,0.0,0.0,0.0,0.0,0.0,0.0,0.0,0.0,0.0,0.0,0.0,0.0,0.0,0.0,0.0,0.0,0.0,0.0,0.0,0.0,0.0,0.0,0.0,0.0,0.0,0.0,0.0,0.0,-1.8303,-2.018,-2.1244,-2.1003,-2.1018,-2.052,-1.9197,-1.8405,-1.7194,-1.5262,0.0,0.0,0.0,0.0,0.0,0.0,0.0,0.0,0.0,0.0,0.0,0.0,0.0,0.0,0.0,0.0,0.0,0.0,0.0,0.0,0.0,0.0,0.0,0.0,0.0,0.0,0.0,0.0,0.0,0.0,0.0,0.0,0.0,0.0,0.0,0.0,0.0,0.0,0.0,0.0,0.0,0.0,0.0,0.0,0.0,0.0,0.0,0.0,0.0,0.0,0.0,0.0,0.0,0.0,0.0,0.0,0.0,0.0,0.0,0.0,0.0,0.0,0.0,0.0,0.0,0.0,0.0,0.0,0.0,0.0,0.0,0.0,0.0,0.0,0.0,0.0,0.0,0.0,0.0,0.0,0.0,0.0,0.0,0.0,0.0,0.0,0.0,0.0,0.0,0.0,0.0,0.0,0.0,0.0,0.0,0.0,0.0,0.0,0.0,0.0,0.0,0.0,-1.9115,-2.0893,-2.1797,-2.1487,-2.1137,-2.0506,-1.9319,-1.8631,-1.7486,-1.5513,0.0,0.0,0.0,0.0,0.0,0.0,0.0,0.0,0.0,0.0,0.0,0.0,0.0,0.0,0.0,0.0,0.0,0.0,0.0,0.0,0.0,0.0,0.0,0.0,0.0,0.0,0.0,0.0,0.0,0.0,0.0,0.0,0.0,0.0,0.0,0.0,0.0,0.0,0.0,0.0,0.0,0.0,0.0,0.0,0.0,0.0,0.0,0.0,0.0,0.0,0.0,0.0,0.0,0.0,0.0,0.0,0.0,0.0,0.0,0.0,0.0,0.0,0.0,0.0,0.0,0.0,0.0,0.0,0.0,0.0,0.0,0.0,0.0,0.0,0.0,0.0,0.0,0.0,0.0,0.0,0.0,0.0,0.0,0.0,0.0,0.0,0.0,0.0,0.0,0.0,0.0,0.0,0.0,0.0,0.0,0.0,0.0,0.0,0.0,0.0,0.0,0.0,-1.9957,-2.159,-2.2403,-2.2095,-2.1287,-2.0361,-1.9385,-1.8746,-1.7548,-1.567,0.0,0.0,0.0,0.0,0.0,0.0,0.0,0.0,0.0,0.0,0.0,0.0,0.0,0.0,0.0,0.0,0.0,0.0,0.0,0.0,0.0,0.0,0.0,0.0,0.0,0.0,0.0,0.0,0.0,0.0,0.0,0.0,0.0,0.0,0.0,0.0,0.0,0.0,0.0,0.0,0.0,0.0,0.0,0.0,0.0,0.0,0.0,0.0,0.0,0.0,0.0,0.0,0.0,0.0,0.0,0.0,0.0,0.0,0.0,0.0,-2.0132,-1.9378,0.0,0.0,0.0,0.0,0.0,0.0,0.0,0.0,0.0,0.0,0.0,0.0,0.0,0.0,0.0,0.0,0.0,0.0,0.0,0.0,0.0,0.0,0.0,0.0,0.0,0.0,0.0,0.0,0.0,0.0,0.0,0.0,0.0,0.0,0.0,0.0,0.0,0.0,0.0,0.0,-2.0324,-2.2343,-2.3357,-2.2789,-2.21,-2.1296,-2.0364,-1.9445,-1.831,-1.6826,-1.5283,0.0,0.0,0.0,0.0,0.0,0.0,0.0,0.0,0.0,0.0,0.0,0.0,0.0,0.0,0.0,0.0,0.0,0.0,0.0,0.0,0.0,0.0,0.0,0.0,0.0,0.0,0.0,0.0,0.0,0.0,0.0,0.0,0.0,0.0,0.0,0.0,0.0,0.0,0.0,0.0,0.0,0.0,0.0,0.0,0.0,0.0,0.0,0.0,0.0,0.0,0.0,0.0,0.0,0.0,0.0,0.0,0.0,0.0,0.0,-2.1643,-2.0663,0.0,0.0,0.0,0.0,0.0,0.0,0.0,0.0,0.0,0.0,0.0,0.0,0.0,0.0,0.0,0.0,0.0,0.0,0.0,0.0,0.0,0.0,0.0,0.0,0.0,0.0,0.0,0.0,0.0,0.0,0.0,0.0,0.0,0.0,0.0,0.0,0.0,0.0,0.0,0.0,-2.0735,-2.2669,-2.3704,-2.336,-2.276,-2.2059,-2.1056,-2.0182,-1.9095,-1.7668,-1.593,0.0,0.0,0.0,0.0,0.0,0.0,0.0,0.0,0.0,0.0,0.0,0.0,0.0,0.0,0.0,0.0,0.0,0.0,0.0,0.0,0.0,0.0,0.0,0.0,0.0,0.0,0.0,0.0,0.0,0.0,0.0,0.0,0.0,0.0,0.0,0.0,0.0,0.0,0.0,0.0,0.0,0.0,0.0,0.0,0.0,0.0,0.0,0.0,0.0,0.0,0.0,0.0,0.0,-2.5242,-2.5454,-2.5527,-2.5858,-2.6094,-2.6021,-2.4077,-2.2862,-2.2176,-2.1459,0.0,0.0,0.0,0.0,0.0,0.0,0.0,0.0,0.0,0.0,0.0,0.0,0.0,0.0,0.0,0.0,0.0,0.0,0.0,0.0,0.0,0.0,-2.2064,-2.2804,-2.2593,-2.1643,-1.9332,0.0,0.0,0.0,0.0,0.0,0.0,0.0,0.0,0.0,0.0,0.0,-2.1079,-2.2792,-2.3798,-2.3918,-2.3399,-2.2719,-2.1813,-2.1071,-2.0037,-1.8561,-1.6781,-1.5173,0.0,0.0,0.0,0.0,0.0,0.0,0.0,0.0,0.0,0.0,0.0,0.0,0.0,0.0,0.0,0.0,0.0,0.0,0.0,0.0,0.0,0.0,0.0,0.0,0.0,0.0,0.0,0.0,0.0,0.0,0.0,0.0,-2.1547,-2.2605,0.0,0.0,0.0,0.0,0.0,0.0,0.0,0.0,0.0,0.0,0.0,0.0,0.0,-2.7064,-2.7723,-2.7945,-2.8126,-2.8163,-2.7989,-2.8095,-2.8425,-2.848,-2.87,-2.9035,-2.8376,0.0,-2.4362,-2.3889,0.0,0.0,0.0,0.0,0.0,0.0,0.0,0.0,0.0,0.0,0.0,0.0,0.0,0.0,0.0,0.0,0.0,0.0,0.0,0.0,0.0,0.0,-2.4984,-2.554,-2.5901,-2.5703,-2.4436,-2.2205,-2.0189,-1.9341,-1.8299,-1.7103,0.0,0.0,0.0,0.0,0.0,0.0,-2.1114,-2.3014,-2.4207,-2.4322,-2.3964,-2.3532,-2.3161,-2.2185,-2.1163,-2.0087,-1.8726,-1.7265,-1.5709,-1.421,0.0,0.0,0.0,0.0,0.0,0.0,0.0,0.0,0.0,0.0,0.0,0.0,0.0,0.0,0.0,0.0,0.0,0.0,0.0,0.0,0.0,0.0,0.0,0.0,0.0,0.0,0.0,0.0,0.0,-2.1913,-2.3388,-2.3205,-2.4113,-2.4513,0.0,0.0,0.0,0.0,0.0,0.0,0.0,0.0,0.0,-2.7819,-2.854,-2.9333,-3.0234,-3.0563,-3.094,-3.1232,-3.1333,-3.1477,-3.1645,-3.1645,-3.1739,-3.1888,-3.1477,-3.0466,-2.895,-2.6809,-2.5032,-2.3657,0.0,0.0,0.0,0.0,-2.2025,-2.2685,-2.3492,-2.329,-2.2575,-2.2071,0.0,0.0,0.0,0.0,0.0,0.0,0.0,-2.2135,-2.406,-2.5472,-2.6536,-2.6993,-2.7098,-2.6965,-2.6493,-2.5111,-2.3493,-2.2075,-2.0849,-1.9597,-1.8092,-1.6175,0.0,0.0,0.0,-1.9307,-2.1456,-2.3203,-2.433,-2.4612,-2.4437,-2.4196,-2.3867,-2.3263,-2.2434,-2.1445,-2.0145,-1.8807,-1.7387,-1.5606,-1.4258,0.0,0.0,0.0,0.0,0.0,0.0,0.0,0.0,0.0,0.0,0.0,0.0,0.0,0.0,0.0,0.0,0.0,0.0,0.0,0.0,0.0,0.0,0.0,0.0,0.0,0.0,0.0,0.0,-2.3527,-2.4785,-2.4276,-2.5494,-2.6025,0.0,0.0,0.0,0.0,0.0,0.0,-2.7605,-2.8473,-2.9417,-3.045,-3.0812,-3.1462,-3.233,-3.2675,-3.3017,-3.3434,-3.3738,-3.3946,-3.3974,-3.3974,-3.3974,-3.3956,-3.3605,-3.3263,-3.2706,-2.9617,-2.7605,-2.6271,-2.4955,-2.4362,-2.427,-2.427,-2.4788,-2.5655,-2.6437,-2.6382,-2.5863,-2.5233,-2.4196,-2.2973,-2.1861,0.0,0.0,0.0,0.0,-2.4317,-2.5637,-2.6793,-2.7581,-2.7985,-2.7904,-2.7712,-2.7622,-2.7179,-2.6238,-2.4257,-2.301,-2.1781,-2.0239,-1.8276,0.0,-1.8356,0.0,-2.0043,-2.2014,-2.3409,-2.433,-2.4778,-2.4812,-2.471,-2.4347,-2.4025,-2.3389,-2.2435,-2.1243,-1.9978,-1.8659,-1.6875,-1.5536,-1.4744,0.0,0.0,0.0,0.0,0.0,0.0,0.0,0.0,0.0,0.0,0.0,0.0,0.0,0.0,0.0,0.0,0.0,0.0,0.0,0.0,0.0,0.0,0.0,0.0,0.0,0.0,0.0,0.0,0.0,-2.7365,-2.7536,0.0,0.0,0.0,0.0,-2.8079,-2.8574,-2.9394,-3.0696,-3.1209,-3.2055,-3.317,-3.2953,-3.3214,-3.3906,-3.3762,-3.3871,-3.4269,-3.4221,-3.4448,-3.4846,-3.4846,-3.4846,-3.4827,-3.4391,-3.4269,-3.4031,-3.2308,-3.0622,-2.9146,-2.869,-2.8254,-2.7929,-2.7929,-2.8406,-2.926,-3.0035,-2.9789,-2.9165,-2.9127,-2.7457,-2.5362,-2.4574,-2.3787,0.0,0.0,-2.5178,-2.5637,-2.7289,-2.7985,-2.8425,-2.8828,-2.892,-2.8828,-2.8443,-2.8352,-2.7667,-2.5541,-2.4453,-2.3402,-2.1835,0.0,-1.9936,-2.0313,-2.0483,-2.1188,-2.276,-2.3686,-2.433,-2.4778,-2.4812,-2.4812,-2.4795,-2.4381,-2.3781,-2.284,-2.198,-2.0814,-1.9212,-1.8258,-1.7207,-1.5936,-1.4942,0.0,0.0,0.0,0.0,0.0,0.0,0.0,0.0,0.0,0.0,0.0,0.0,0.0,0.0,0.0,0.0,0.0,0.0,0.0,0.0,0.0,0.0,0.0,0.0,0.0,0.0,0.0,0.0,-2.8509,-2.9236,0.0,-2.9692,-2.8861,-2.8796,-2.9896,-3.0354,-3.1204,-3.2515,-3.2991,-3.3525,-3.4195,-3.4118,-3.4362,-3.4902,-3.4813,-3.5036,-3.5375,-3.5375,-3.5452,-3.5606,-3.5606,-3.5606,-3.5587,-3.5162,-3.5036,-3.494,-3.3779,-3.2368,-3.0933,-2.9963,-2.9488,-2.9355,-2.9355,-2.9716,-3.0246,-3.0816,-3.0816,-3.0474,-2.9924,-2.8842,-2.7568,-2.7069,-2.6333,-2.5867,-2.6577,-2.6863,-2.716,-2.7948,-2.8462,-2.881,-2.8957,-2.8975,-2.8883,-2.848,-2.7985,-2.7378,-2.6627,-2.6227,-2.5736,-2.4645,-2.3463,-2.267,-2.2625,-2.2607,-2.2895,-2.3599,-2.4364,-2.4806,-2.4812,-2.4812,-2.4812,-2.4812,-2.4693,-2.4244,-2.344,-2.2673,-2.1707,-2.0495,-1.9517,-1.8462,-1.7365,-1.6261,-1.5066,0.0,0.0,0.0,0.0,0.0,0.0,0.0,0.0,0.0,0.0,0.0,0.0,0.0,0.0,0.0,0.0,0.0,0.0,0.0,0.0,0.0,0.0,0.0,0.0,0.0,-2.7545,-2.9233,-3.0112,-3.1111,-3.1681,-3.1539,-3.1111,-3.1111,-3.1857,-3.2334,-3.2936,-3.3809,-3.4121,-3.4414,-3.4687,-3.4844,-3.5078,-3.5391,-3.5527,-3.5742,-3.6016,-3.6016,-3.6016,-3.6016,-3.6016,-3.6016,-3.5996,-3.5723,-3.5605,-3.5547,-3.4824,-3.3889,-3.2752,-3.1619,-3.1178,-3.1178,-3.1178,-3.129,-3.1577,-3.1865,-3.1961,-3.1826,-3.1137,-3.0602,-3.0064,-2.9661,-2.9089,-2.8597,-2.8729,-2.8744,-2.8756,-2.8904,-2.9238,-2.9517,-2.9368,-2.9324,-2.919,-2.8508,-2.7768,-2.7141,-2.7013,-2.6976,-2.6756,-2.6131,-2.5341,-2.4721,-2.4372,-2.4202,-2.4233,-2.4527,-2.4946,-2.511,-2.4962,-2.4868,-2.4761,-2.4641,-2.4624,-2.4299,-2.3545,-2.2792,-2.204,-2.112,-2.0175,-1.9282,-1.8337,-1.6892,-1.5379,-1.3757,0.0,0.0,0.0,0.0,0.0,0.0,0.0,0.0,0.0,0.0,0.0,0.0,0.0,0.0,0.0,0.0,0.0,0.0,0.0,0.0,0.0,0.0,0.0,-2.722,-2.932,-3.1192,-3.2312,-3.3113,-3.3619,-3.3758,-3.3639,-3.368,-3.3961,-3.4378,-3.4645,-3.4753,-3.4687,-3.4668,-3.4668,-3.5117,-3.5351,-3.5371,-3.5801,-3.6016,-3.6016,-3.6016,-3.6016,-3.6016,-3.6016,-3.6016,-3.6016,-3.6016,-3.6016,-3.5996,-3.5566,-3.5137,-3.4629,-3.3769,-3.3437,-3.3418,-3.3418,-3.3418,-3.3418,-3.3418,-3.3418,-3.3359,-3.2949,-3.2812,-3.2715,-3.2285,-3.1966,-3.1546,-3.1084,-3.073,-3.0474,-3.0016,-3.0206,-3.0474,-3.0016,-3.0005,-2.9729,-2.8499,-2.7678,-2.705,-2.6664,-2.6591,-2.6463,-2.6113,-2.6076,-2.5947,-2.5561,-2.5227,0.0,-2.5487,-2.5357,-2.5238,-2.5221,-2.4962,-2.4658,-2.421,-2.4176,-2.3905,-2.3169,-2.2415,-2.1735,-2.1103,-2.0348,-1.955,-1.8694,-1.6828,-1.479,-1.2516,0.0,0.0,0.0,0.0,0.0,0.0,0.0,0.0,0.0,0.0,0.0,0.0,0.0,0.0,0.0,0.0,0.0,0.0,0.0,0.0,0.0,-2.76,-2.8685,-2.8778,-3.0757,-3.2595,-3.3779,-3.4438,-3.4896,-3.5208,-3.4679,-3.4672,-3.5616,-3.5281,-3.5026,-3.51,-3.4609,-3.4101,-3.3789,-3.4199,-3.459,-3.4883,-3.5644,-3.6016,-3.6016,-3.6016,-3.6016,-3.6016,-3.6016,-3.6016,-3.6016,-3.6016,-3.6016,-3.5996,-3.5566,-3.5312,-3.5117,-3.4238,-3.3691,-3.3418,-3.3418,-3.3418,-3.3418,-3.3418,-3.3418,-3.3398,-3.3281,-3.3047,-3.2715,-3.2285,-3.1539,-3.0661,-3.0238,-2.9661,-2.9182,-2.9429,-2.9562,-2.9713,-2.9884,-2.978,-2.9434,-2.8424,-2.7456,-2.6719,-2.6609,-2.6591,-2.6646,-2.6866,-2.7325,-2.7581,-2.7215,-2.7049,-2.6865,-2.6406,-2.6312,-2.598,-2.5255,-2.511,-2.4861,-2.4264,-2.4176,-2.3905,-2.3169,-2.2415,-2.1767,-2.1343,-2.0866,-1.9891,-1.8348,-1.6569,-1.4849,0.0,0.0,0.0,0.0,0.0,0.0,0.0,0.0,0.0,0.0,0.0,0.0,0.0,0.0,0.0,0.0,0.0,0.0,0.0,0.0,0.0,0.0,-2.9994,-3.1023,-3.1905,-3.3316,-3.4483,-3.5187,-3.5892,-3.6248,-3.6314,-3.6073,-3.6067,-3.6656,-3.6389,-3.6022,-3.5531,-3.4898,-3.4314,-3.3816,-3.4294,-3.473,-3.5165,-3.6036,-3.6355,-3.62,-3.62,-3.6152,-3.6016,-3.6016,-3.6016,-3.6016,-3.6016,-3.6016,-3.5996,-3.5762,-3.5547,-3.5332,0.0,0.0,0.0,0.0,-3.3945,-3.3926,-3.375,-3.3691,-3.3672,-3.3476,-3.3262,-3.2949,-3.2344,-3.156,-3.0683,-2.9947,-2.9255,-2.8818,-2.9048,-2.9527,-3.0007,-2.9987,-3.0365,-3.0279,-2.8918,-2.7921,-2.7216,-2.6865,-2.6829,0.0,-2.7361,-2.7967,-2.826,-2.7877,-2.7822,-2.7561,-2.6991,-2.6769,-2.6383,-2.5659,-2.5331,-2.4971,-2.4427,-2.4147,0.0,0.0,0.0,-2.1523,-2.0893,-2.039,0.0,0.0,0.0,0.0,0.0,-1.3897,0.0,0.0,-1.2594,-1.2973,0.0,0.0,0.0,0.0,0.0,0.0,0.0,0.0,0.0,0.0,0.0,0.0,0.0,0.0,0.0,0.0,-3.2149,-3.303,-3.5393,-3.6213,-3.651,-3.6567,-3.7171,-3.7482,-3.7213,-3.7374,-3.7441,-3.7213,-3.7441,-3.7034,-3.5941,-3.5413,0.0,0.0,0.0,-3.5308,-3.5816,-3.6636,-3.6944,-3.6586,-3.6519,-3.6316,-3.6084,-3.6016,-3.6016,-3.6016,-3.6016,-3.6016,-3.6016,-3.6016,-3.5801,-3.541,-3.4902,-3.4707,-3.4707,-3.4707,-3.4707,-3.4629,-3.4219,0.0,0.0,-3.3555,-3.3418,-3.3262,-3.2422,-3.1836,-3.1191,-2.9922,-2.9219,-2.8867,-2.8965,-2.9902,-3.0742,-3.043,-3.1324,-3.17,-2.9776,-2.8804,-2.8127,-2.7287,-2.7216,-2.7417,-2.7822,-2.8187,-2.8333,-2.8024,-2.7969,-2.7822,-2.7361,-2.7082,-2.6733,-2.6244,-2.5677,0.0,-2.4769,-2.4189,-2.358,-2.2839,-2.203,-2.1098,-2.0086,-1.9305,-1.8453,-1.7563,-1.7106,-1.6209,-1.4986,-1.5025,-1.5083,-1.5082,-1.4077,-1.4038,0.0,0.0,0.0,0.0,0.0,0.0,0.0,0.0,0.0,0.0,0.0,0.0,0.0,0.0,0.0,-3.2707,-3.3686,-3.4654,-3.583,-3.7091,-3.781,-3.7826,-3.7709,-3.7683,-3.7971,-3.7422,-3.7294,-3.795,-3.7422,-3.6775,-3.6245,-3.5541,-3.4969,-3.4526,-3.4949,-3.5392,-3.5816,-3.6636,-3.7079,-3.7011,-3.6654,0.0,-3.6384,-3.6152,-3.6016,-3.6016,-3.6016,-3.6016,-3.6016,-3.6016,-3.5976,-3.582,-3.5019,-3.4707,-3.4707,-3.4707,-3.4707,-3.4629,-3.4219,-3.4082,-3.4004,-3.3555,-3.3418,-3.3262,-3.2422,-3.1621,0.0,-2.99,-2.9004,-2.8574,-2.9258,-2.9883,-3.0488,-3.1113,-3.1556,-3.1507,-3.0392,-2.9429,-2.8631,-2.8089,-2.7826,-2.7783,-2.8205,-2.8608,-2.8847,-2.8755,-2.8755,-2.8608,-2.8205,-2.8092,-2.7685,-2.6677,-2.6475,-2.6022,-2.5111,-2.4879,-2.4455,-2.358,-2.1919,-2.0503,-1.9275,-1.8473,-1.7669,-1.6806,-1.6544,-1.6163,-1.5719,-1.5927,-1.6131,-1.6308,-1.522,-1.5122,0.0,0.0,0.0,0.0,0.0,0.0,0.0,0.0,0.0,0.0,0.0,-2.9565,-3.1472,0.0,-3.2874,-3.4073,-3.4732,-3.5418,-3.6328,-3.7446,-3.8191,-3.8191,-3.8037,-3.7971,-3.8191,-3.7831,-3.7723,-3.8171,-3.7831,-3.7369,-3.6917,-3.6336,-3.5924,-3.5679,-3.5904,-3.6231,-3.6616,-3.7289,-3.7569,-3.7348,-3.7011,-3.6722,-3.6519,-3.6132,-3.6016,-3.6016,-3.6016,-3.6016,-3.6016,-3.6016,-3.6016,-3.5976,-3.5527,-3.5351,-3.5351,-3.5351,-3.5351,-3.5293,-3.4883,-3.4726,-3.4648,-3.4199,-3.4062,-3.3867,-3.2812,-3.2031,-3.1309,-3.0195,-2.9414,-2.9082,-2.9707,-3.0371,-3.0976,-3.1406,-3.2046,-3.2254,-3.1188,-3.0481,-2.9877,-2.9197,-2.8719,-2.8443,-2.8645,-2.8847,-2.8975,-2.8975,-2.8975,-2.8847,-2.8443,-2.8388,-2.7961,-2.6841,-2.6433,-2.5922,-2.5011,-2.4241,-2.3482,-2.2671,-2.1305,-2.0144,-1.9175,-1.8454,-1.7753,-1.7054,-1.6823,-1.6584,-1.6296,-1.6429,-1.6634,-1.6875,-1.632,-1.635,0.0,0.0,0.0,0.0,0.0,0.0,0.0,-2.8194,-2.8257,-2.9087,-3.0148,-3.1394,-3.2744,-3.3407,-3.4078,-3.5205,-3.5365,-3.5749,-3.668,-3.7612,-3.815,-3.8067,-3.8129,-3.8191,-3.8191,-3.8191,-3.8191,-3.8191,-3.8191,-3.8026,-3.7653,-3.7281,-3.7074,-3.7074,-3.7074,-3.7239,-3.7632,-3.8005,-3.8037,-3.7683,-3.728,-3.6944,-3.6586,-3.6219,-3.6016,-3.6016,-3.6016,-3.6016,-3.6016,-3.6016,-3.6016,-3.6016,-3.6016,-3.6016,-3.6016,-3.6016,-3.6016,-3.5957,-3.5547,-3.5391,-3.5312,-3.4844,-3.4707,-3.4473,-3.3281,-3.2617,-3.2031,-3.0801,-3.0156,-2.9922,-3.0351,-3.1055,-3.166,-3.1738,-3.2617,-3.3125,-3.2012,-3.1488,-3.0944,-3.0187,-2.9446,-2.8975,-2.8916,-2.8856,-2.8856,-2.8975,-2.8975,-2.8865,-2.8553,-2.8517,-2.8107,-2.6963,-2.625,-2.5582,-2.4682,-2.3326,-2.2229,-2.1563,-2.0659,-1.983,-1.9154,-1.8615,-1.8115,-1.7609,-1.7435,-1.7271,-1.7163,-1.7155,-1.7346,-1.7554,-1.7554,-1.7523,-2.2972,-2.3768,-2.5734,-2.7797,-2.9288,-3.0274,0.0,-3.0673,-3.1136,-3.1916,-3.274,-3.3604,-3.4668,-3.4701,-3.4733,-3.5167,-3.5331,-3.5749,-3.668,-3.7612,-3.8026,-3.7612,-3.7943,-3.8191,-3.8191,-3.8191,-3.8191,-3.8191,-3.8191,-3.8171,-3.8109,-3.8067,-3.8026,-3.8026,-3.8026,-3.8046,-3.8109,-3.815,-3.8191,-3.8104,-3.7435,-3.7079,-3.7011,-3.6355,-3.6016,-3.6016,-3.6016,-3.6016,-3.6016,-3.6016,-3.6016,-3.6016,-3.6016,-3.6016,-3.6016,-3.6016,-3.6016,-3.5957,-3.5547,-3.5391,-3.5312,-3.4844,-3.4707,-3.4531,-3.3633,-3.3066,-3.2539,-3.1621,-3.1074,-3.084,-3.1269,-3.1738,-3.2187,-3.2559,-3.3047,-3.3281,-3.2754,-3.1892,-3.11,-3.0645,-2.9711,-2.8934,-2.8636,-2.8337,-2.8319,-2.8916,-2.8975,-2.8975,-2.892,-2.892,-2.8501,-2.7445,-2.6731,-2.5679,-2.4029,-2.3057,-2.2221,-2.1612,-2.0501,-1.9471,-1.8638,-1.8276,-1.8095,-1.8027,-1.8269,-1.8453,-1.8648,-1.8889,-1.9016,-1.9054,-1.9054,-1.8638,-2.585,-2.5936,-2.6971,-2.9459,-3.1002,-3.2001,-3.2587,-3.2849,-3.3138,-3.3616,-3.4237,-3.4721,-3.4884,-3.504,-3.5155,-3.531,-3.5583,-3.6059,-3.6701,-3.7612,-3.7922,-3.7177,-3.7032,-3.7094,-3.7363,-3.7384,-3.7488,-3.7757,-3.8026,-3.8191,-3.8191,-3.8191,-3.8191,-3.8191,-3.8191,-3.8191,-3.8191,-3.8191,-3.8191,-3.8191,-3.7636,-3.728,-3.7079,-3.6539,-3.62,-3.6016,-3.6016,-3.6016,-3.6016,-3.6016,-3.6016,-3.6016,-3.6016,-3.6016,-3.6016,-3.6016,-3.6016,-3.5996,-3.582,-3.5762,-3.5723,-3.5527,-3.5469,-3.5351,-3.4746,-3.4453,-3.4121,-3.3262,-3.2871,-3.2715,-3.2637,-3.2754,-3.2949,-3.3125,-3.3301,-3.3301,-3.2891,-3.2285,-3.165,-3.0962,-3.0174,-2.9389,-2.8654,-2.7882,-2.7401,-2.728,-2.7581,-2.784,-2.784,-2.784,-2.7322,-2.5913,-2.4968,-2.3944,-2.293,-2.2305,-2.1816,-2.1401,-2.0592,-1.9761,-1.9004,-1.8829,-1.8713,-1.855,-1.883,-1.9022,-1.9137,-1.9264,-1.9315,-1.9315,-1.9315,-1.9096,-2.8011,-2.798,-2.8544,-3.098,-3.2463,-3.3475,-3.4217,-3.4419,-3.4518,-3.4596,-3.4819,-3.4983,-3.4857,-3.4921,-3.5169,-3.5542,-3.5894,-3.6328,-3.6908,-3.7674,-3.7839,-3.6908,-3.6287,-3.6018,-3.6225,-3.6473,-3.6804,-3.726,-3.786,-3.8191,-3.8191,-3.8191,-3.8191,-3.8191,-3.8191,-3.8191,-3.8191,-3.8191,-3.8191,-3.8191,-3.777,-3.7482,-3.7213,-3.6722,-3.6336,-3.6016,-3.6016,-3.6016,-3.6016,-3.6016,-3.6016,-3.6016,-3.6016,-3.6016,-3.6016,-3.6016,-3.6016,-3.6016,-3.6016,-3.6016,-3.6016,-3.6016,-3.6016,-3.5937,-3.5527,-3.5391,-3.5215,-3.4316,-3.4082,-3.3965,-3.3535,-3.3418,-3.3418,-3.3418,-3.3418,-3.334,-3.3027,-3.2622,-3.2061,-3.1226,-3.0396,-2.9489,-2.8335,-2.7211,-2.6233,-2.5562,-2.5762,-2.6067,-2.6371,-2.6311,-2.5647,-2.4313,-2.3339,-2.2478,-2.1886,-2.1544,-2.1259,-2.1078,-2.0561,-2.0026,-1.9548,-1.9535,-1.9528,-1.9378,-1.9572,-1.9714,-1.9791,-1.9791,-1.9791,-1.9791,-1.9791,-1.9722,-2.8295,-2.9373,-3.0586,-3.2156,-3.3578,-3.4683,-3.4944,-3.5168,-3.5189,-3.4623,-3.431,-3.4238,-3.4733,-3.4463,-3.4548,-3.5873,-3.6101,-3.6432,-3.7343,-3.7881,-3.7839,-3.6908,-3.5997,-3.5273,-3.492,-3.5625,-3.6328,-3.6784,-3.7674,-3.8191,-3.8191,-3.8191,-3.8191,-3.8191,-3.8191,-3.8191,-3.8191,-3.8191,-3.8191,-3.8191,-3.777,-3.7616,-3.7549,-3.6856,-3.6336,-3.6016,-3.6016,-3.6016,-3.6016,-3.6016,-3.6016,-3.6016,-3.6016,-3.6016,-3.6016,-3.6016,-3.6016,-3.6016,-3.6016,-3.6016,-3.6016,-3.6016,-3.6016,-3.5937,-3.5527,-3.5391,-3.5215,-3.4316,-3.4082,-3.3965,-3.3535,-3.3418,-3.3418,-3.3418,-3.3418,-3.3418,-3.3398,-3.2836,-3.2109,-3.1446,-3.0094,-2.8692,-2.7384,-2.6035,-2.4949,-2.4286,-2.3604,-2.3651,-2.4871,-2.4564,-2.3946,-2.3248,-2.2514,-2.1825,-2.1209,-2.0891,-2.073,-2.073,-2.0388,-2.0214,-2.0153,-2.0153,-2.03,-2.0641,-2.0655,-2.0802,-2.1019,-2.1019,-2.1019,-2.1019,-2.1019,-2.0893,-2.8786,-3.0197,-3.1581,-3.2663,-3.3841,-3.4798,-3.4847,-3.5158,-3.52,-3.4414,-3.4191,-3.4031,-3.3924,-3.4277,-3.4776,-3.5542,-3.6432,-3.7136,-3.7446,-3.7881,-3.7736,-3.6494,-3.579,-3.49,-3.3555,-3.4238,-3.5066,-3.5832,-3.6742,-3.7405,-3.7715,-3.8026,-3.8191,-3.8191,-3.8191,-3.8191,-3.8191,-3.8191,-3.8191,-3.8191,-3.777,-3.7482,-3.728,-3.6722,-3.6336,-3.6016,-3.6016,-3.6016,-3.6016,-3.6016,-3.6016,-3.6016,-3.6016,-3.6016,-3.6016,-3.6016,-3.6016,-3.6016,-3.6016,-3.6016,-3.6016,-3.6016,-3.6016,-3.5996,-3.5859,-3.5801,-3.5684,-3.5117,-3.4941,-3.4785,-3.4043,-3.3848,-3.3789,-3.3496,-3.3418,-3.3418,-3.3418,-3.3068,-3.2434,-3.1439,-3.0095,-2.8616,-2.6975,-2.539,-2.3843,-2.2363,-2.2668,-2.323,-2.3651,-2.334,-2.2904,-2.2466,-2.2041,-2.1614,-2.1172,-2.1015,-2.0962,-2.0962,-2.0695,-2.0535,-2.0535,-2.0535,-2.0575,-2.0668,-2.0869,-2.1015,-2.1109,-2.1109,-2.1109,-2.1109,-2.1109,-2.0919,-2.9722,-3.1186,-3.2502,-3.338,-3.4232,-3.4857,-3.4962,-3.5086,-3.4921,-3.401,-3.3451,-3.3058,-3.2934,-3.3389,-3.4093,-3.5024,-3.6349,-3.7301,-3.7467,-3.7881,-3.7736,-3.6494,-3.5956,-3.5024,-3.3368,-3.3575,-3.4072,-3.4652,-3.5687,-3.6577,-3.7218,-3.7839,-3.8191,-3.8191,-3.8191,-3.8191,-3.8191,-3.8191,-3.8191,-3.8191,-3.7971,-3.7549,-3.7079,-3.6789,-3.6471,-3.6016,-3.6016,-3.6016,-3.6016,-3.6016,-3.6016,-3.6016,-3.6016,-3.6016,-3.6016,-3.6016,-3.6016,-3.6016,-3.6016,-3.6016,-3.6016,-3.6016,-3.6016,-3.6016,-3.6016,-3.6016,-3.5937,-3.5508,-3.5391,-3.5195,-3.4297,-3.4082,-3.3965,-3.3535,-3.3418,-3.3418,-3.3418,-3.3102,-3.2581,-3.1474,-2.9956,-2.8294,-2.6649,-2.4675,-2.2863,-2.1451,-2.1936,-2.2375,-2.2276,-2.2159,-2.1978,-2.179,-2.1551,-2.1362,-2.1109,-2.1109,-2.1109,-2.1109,-2.0935,-2.0828,-2.0828,-2.0828,-2.0828,-2.0828,-2.1015,-2.1109,-2.1109,-2.1109,-2.1109,-2.1109,-2.1109,-2.0982,-3.1041,-3.2308,-3.3415,-3.4253,-3.4646,-3.4961,-3.5293,-3.5066,-3.4526,-3.353,-3.2188,-3.1381,-3.176,-3.1843,-3.2499,-3.4362,-3.5852,-3.6949,-3.7405,-3.7881,-3.786,-3.6949,-3.6453,-3.5645,-3.4279,-3.372,-3.3451,-3.3451,-3.4672,-3.5832,-3.6763,-3.7674,-3.8191,-3.8191,-3.8191,-3.8191,-3.8191,-3.8191,-3.8191,-3.8191,-3.8191,-3.7837,-3.7079,-3.7079,-3.6694,-3.6016,-3.6016,-3.6016,-3.6016,-3.6016,-3.6016,-3.6016,-3.6016,-3.6016,-3.6016,-3.6016,-3.6016,-3.6016,-3.6016,-3.6016,-3.6016,-3.6016,-3.6016,-3.6016,-3.6016,-3.6016,-3.5937,-3.5527,-3.543,-3.5234,-3.4375,-3.4141,-3.4023,-3.3594,-3.3476,-3.3457,-3.3457,-3.3121,-3.2594,-3.157,-2.9573,-2.7636,-2.6299,-2.3862,-2.1978,-2.1655,-2.1336,-2.1029,-2.0735,-2.0935,-2.1109,-2.1109,-2.1109,-2.1109,-2.1109,-2.1109,-2.1109,-2.1109,-2.1109,-2.1109,-2.1109,-2.1109,-2.1109,-2.1109,-2.1109,-2.1109,-2.1109,-2.1109,-2.1109,-2.1109,-2.1109,-2.1109,-3.1575,-3.309,-3.4432,-3.4687,-3.4982,-3.519,-3.4983,-3.4899,-3.4277,-3.2292,-3.0512,-2.9456,-2.9911,-2.9994,-3.0719,-3.2892,-3.5252,-3.6846,-3.697,-3.7674,-3.7964,-3.7384,-3.7218,-3.6597,-3.5211,-3.4672,-3.4463,-3.4463,-3.5045,-3.5832,-3.6763,-3.7674,-3.8191,-3.8191,-3.8191,-3.8191,-3.8191,-3.8191,-3.8191,-3.8191,-3.8191,-3.7837,-3.7079,-3.7079,-3.6694,-3.6016,-3.6016,-3.6016,-3.6016,-3.6016,-3.6016,-3.6016,-3.6016,-3.6016,-3.6016,-3.6016,-3.6016,-3.6016,-3.6016,-3.6016,-3.6016,-3.6016,-3.6016,-3.6016,-3.6016,-3.6016,-3.5996,-3.5898,-3.5859,-3.5742,-3.5195,-3.5059,-3.4941,-3.4492,-3.4141,-3.3906,-3.3906,-3.3398,-3.253,-3.1184,-2.8393,-2.5695,-2.4029,-2.2969,-2.2258,-2.2191,-2.1764,-2.1336,-2.1042,-2.1069,-2.1109,-2.1109,-2.1109,-2.1109,-2.1109,-2.1109,-2.1109,-2.1109,-2.1109,-2.1109,-2.1109,-2.1109,-2.1109,-2.1109,-2.1109,-2.1109,-2.1109,-2.1109,-2.1109,-2.1109,-2.1109,-2.1109,-3.2623,-3.3824,-3.4857,-3.5004,-3.5086,-3.5004,-3.4569,-3.3989,-3.3037,-3.1153,-2.898,-2.7676,-2.8545,-2.869,-2.9518,-3.1967,-3.4548,-3.6266,-3.6473,-3.6949,-3.7177,-3.6908,-3.6887,-3.6494,-3.5521,-3.5376,-3.5355,-3.5355,-3.5397,-3.5832,-3.6763,-3.7674,-3.8191,-3.8191,-3.8191,-3.8191,-3.8191,-3.8191,-3.8191,-3.8191,-3.8191,-3.7837,-3.7079,-3.7079,-3.6694,-3.6016,-3.6016,-3.6016,-3.6016,-3.6016,-3.6016,-3.6016,-3.6016,-3.6016,-3.6016,-3.6016,-3.6016,-3.6016,-3.6016,-3.6016,-3.6016,-3.6016,-3.6016,-3.6016,-3.6016,-3.6016,-3.6016,-3.6016,-3.6016,-3.5918,-3.5508,-3.5391,-3.5273,-3.4805,-3.4512,-3.4297,-3.3927,-3.3437,-3.2225,-2.9674,-2.7203,-2.5022,-2.3201,-2.2619,-2.2418,-2.2418,-2.2031,-2.1643,-2.1336,-2.1189,-2.1109,-2.1109,-2.1109,-2.1109,-2.1109,-2.1109,-2.1109,-2.1109,-2.1109,-2.1109,-2.1109,-2.1109,-2.1109,-2.1109,-2.1109,-2.1109,-2.1109,-2.1109,-2.1109,-2.1109,-2.1109,-2.1176,-3.3844,-3.4546,-3.4921,-3.5252,-3.5045,-3.465,-3.3948,-3.2747,-3.134,-2.9849,-2.7345,-2.5875,-2.7303,-2.7614,-2.8566,-3.1347,-3.3824,-3.548,-3.5873,-3.5976,-3.6018,-3.6018,-3.608,-3.5976,-3.5645,-3.608,-3.639,-3.639,-3.6018,-3.6121,-3.6846,-3.7715,-3.8191,-3.8191,-3.8191,-3.8191,-3.8191,-3.8191,-3.8191,-3.8191,-3.8191,-3.7837,-3.7079,-3.7079,-3.6694,-3.6016,-3.6016,-3.6016,-3.6016,-3.6016,-3.6016,-3.6016,-3.6016,-3.6016,-3.6016,-3.6016,-3.6016,-3.6016,-3.6016,-3.6016,-3.6016,-3.6016,-3.6016,-3.6016,-3.6016,-3.6016,-3.6016,-3.6016,-3.6016,-3.5937,-3.5566,-3.5488,-3.5371,-3.4961,-3.4758,-3.4556,-3.3861,-3.3122,-3.1509,-2.7716,-2.6218,-2.4955,-2.3201,-2.2645,-2.2472,-2.2472,-2.2231,-2.1964,-2.1815,-2.1403,-2.1149,-2.1109,-2.1109,-2.1109,-2.1109,-2.1149,-2.1162,-2.1162,-2.1203,-2.1229,-2.1229,-2.1229,-2.1229,-2.1229,-2.1229,-2.1229,-2.1229,-2.1229,-2.1229,-2.1229,-2.1229,-2.1363,-3.4629,-3.4962,-3.5231,-3.4941,-3.4878,-3.4341,-3.2747,-3.134,-2.9746,-2.7662,-2.4985,-2.3619,-2.5334,-2.5999,-2.7262,-3.0408,-3.3141,-3.49,-3.4983,-3.5314,-3.5542,0.0,-3.5873,-3.6225,-3.6535,-3.7322,-3.7819,-3.7819,-3.7757,-3.7612,-3.7384,-3.7881,-3.8191,-3.8191,-3.8191,-3.8191,-3.8191,-3.8191,-3.8191,-3.8191,-3.8191,-3.7837,-3.7079,-3.7079,-3.6694,-3.6016,-3.6016,-3.6016,-3.6016,-3.6016,-3.6016,-3.6016,-3.6016,-3.6016,-3.6016,-3.6016,-3.6016,-3.6016,-3.6016,-3.6016,-3.6016,-3.6016,-3.6016,-3.6016,-3.6016,-3.6016,-3.6016,-3.6016,-3.6016,-3.5996,-3.5937,-3.5918,-3.5898,-3.5801,-3.5239,-3.47,-3.427,-3.2156,-2.9577,-2.68,-2.5629,-2.4631,-2.3133,-2.2819,-2.2779,-2.2779,-2.2539,-2.2418,-2.2605,-2.2016,-2.139,-2.1136,-2.1109,-2.1109,-2.1109,-2.1336,-2.1534,-2.1534,-2.1697,-2.183,-2.183,-2.183,-2.183,-2.183,-2.183,-2.183,-2.183,-2.183,-2.183,-2.183,-2.183,-2.1857,-3.4983,-3.5252,-3.5314,-3.492,-3.4217,-3.3344,-3.1802,-2.9932,-2.7986,-2.619,-2.3802,-2.2506,-2.3992,-2.4365,-2.5606,-2.9042,-3.1319,-3.3033,-3.3966,-3.4031,-3.4196,-3.4672,-3.5128,-3.5687,-3.637,-3.7508,-3.8191,-3.8191,-3.8191,-3.8088,-3.786,-3.8067,-3.8191,-3.8191,-3.8191,-3.8191,-3.8191,-3.8191,-3.8191,-3.8191,-3.8191,-3.7837,-3.7079,-3.7079,-3.6694,-3.6016,-3.6016,-3.6016,-3.6016,-3.6016,-3.6016,-3.6016,-3.6016,-3.6016,-3.6016,-3.6016,-3.6016,-3.6016,-3.6016,-3.6016,-3.6016,-3.6016,-3.6016,-3.6016,-3.6016,-3.6016,-3.6016,-3.6016,-3.6016,-3.5947,-3.5811,-3.5743,-3.5606,-3.5264,-3.4103,-3.3038,-3.2884,-3.0496,-2.7951,-2.6374,-2.5207,-2.4156,-2.3065,-2.2928,-2.2928,-2.2928,-2.2739,-2.2645,-2.2632,-2.2258,-2.1951,-2.1804,-2.1657,-2.1563,-2.1563,-2.1697,-2.1842,-2.1842,-2.1911,-2.1991,-2.1991,-2.1991,-2.1991,-2.1991,-2.1991,-2.1991,-2.1991,-2.1991,-2.1991,-2.1991,-2.1991,-2.2071,-3.5231,-3.5418,-3.5273,-3.4631,-3.3451,-3.2058,-3.0642,-2.8305,-2.6103,-2.4784,-2.2781,-2.1621,-2.2724,-2.2908,-2.4012,-2.7469,-2.9352,-3.0946,-3.2582,-3.2664,-3.2851,-3.3555,-3.4217,0.0,-3.5873,-3.7301,-3.8191,-3.8191,-3.8191,-3.8191,-3.8191,-3.8191,-3.8191,-3.8191,-3.8191,-3.8191,-3.8191,-3.8191,-3.8191,-3.8191,-3.8191,-3.7837,-3.7079,-3.7079,-3.6694,-3.6016,-3.6016,-3.6016,-3.6016,-3.6016,-3.6016,-3.6016,-3.6016,-3.6016,-3.6016,-3.6016,-3.6016,-3.6016,-3.6016,-3.6016,-3.6016,-3.6016,-3.6016,-3.6016,-3.6016,-3.6016,-3.6016,-3.6016,-3.6016,-3.5947,-3.5626,-3.5333,-3.4902,-3.3868,-3.2435,-3.1115,-3.0752,-2.8765,-2.6786,-2.583,-2.4799,-2.3887,-2.3198,-2.3006,-2.2966,-2.2966,-2.2968,-2.2806,-2.2632,-2.2552,-2.2539,-2.2605,-2.2231,-2.1991,-2.1991,-2.2044,-2.2084,-2.2084,-2.2138,-2.2178,-2.2178,-2.2178,-2.2178,-2.2178,-2.2178,-2.2178,-2.2178,-2.2178,-2.2178,-2.2178,-2.2178,-2.2298,-3.5397,-3.5418,-3.5107,-3.3824,-3.2499,-3.093,-2.8614,-2.6235,-2.4136,-2.2892,-2.1363,-2.0487,-2.1239,-2.1697,-2.2853,-2.5668,-2.7986,-2.9787,-3.0781,-3.1609,-3.207,-3.2153,0.0,0.0,-3.5397,-3.7115,-3.8191,-3.8191,-3.8191,-3.8191,-3.8191,-3.8191,-3.8191,-3.8191,-3.8191,-3.8191,-3.8191,-3.8191,-3.8191,-3.8191,-3.8191,-3.7837,-3.7079,-3.7079,-3.6694,-3.6016,-3.6016,-3.6016,-3.6016,-3.6016,-3.6016,-3.6016,-3.6016,-3.6016,-3.6016,-3.6016,-3.6016,-3.6016,-3.6016,-3.6016,-3.6016,-3.6016,-3.6016,-3.6016,-3.6016,-3.6016,-3.6016,-3.6016,-3.6016,-3.5947,-3.5626,-3.4696,-3.3484,-3.1649,-3.0855,-3.0048,-2.8365,-2.7479,-2.6594,-2.4833,-2.4339,-2.4184,-2.3758,-2.346,-2.3287,-2.3287,-2.3046,-2.2953,-2.3207,-2.2993,-2.2926,-2.322,-2.2485,-2.1991,-2.1991,-2.2231,-2.2378,-2.2378,-2.2632,-2.2847,-2.2847,-2.2847,-2.2847,-2.2847,-2.2847,-2.2847,-2.2847,-2.2847,-2.2847,-2.2847,-2.2847,-2.2792,-3.5162,-3.5333,-3.5086,-3.3976,-3.2295,-3.0411,-2.8451,-2.5924,-2.372,-2.2735,-2.1408,-2.0522,-2.089,-2.0751,-2.1383,-2.3846,-2.5709,-2.7448,-2.9187,-3.0222,-3.1008,-3.1567,-3.2354,-3.3203,-3.4093,-3.5852,-3.7281,-3.8129,-3.8191,-3.8191,-3.8191,-3.8191,-3.8191,-3.8191,-3.8191,-3.8191,-3.8191,-3.8191,-3.8191,-3.8191,-3.8191,-3.7837,-3.7079,-3.7079,-3.6694,-3.6016,-3.6016,-3.6016,-3.6016,-3.6016,-3.6016,-3.6016,-3.6016,-3.6016,-3.6016,-3.6016,-3.6016,-3.6016,-3.6016,-3.6016,-3.6016,-3.6016,-3.6016,-3.6016,-3.6016,-3.6016,-3.6016,-3.6016,-3.6016,-3.5879,-3.5264,-3.378,-3.2035,-3.0605,-2.9624,-2.8732,-2.7731,-2.6761,-2.5798,-2.4754,-2.4317,-2.3981,-2.3839,-2.3527,-2.3327,-2.3327,-2.306,-2.2913,-2.3033,-2.2939,-2.2913,-2.3033,-2.2726,-2.2512,-2.2512,-2.2619,-2.2686,-2.2686,-2.2792,-2.2928,-2.2928,-2.2928,-2.2928,-2.2928,-2.2928,-2.2928,-2.2928,-2.2928,-2.2928,-2.2928,-2.2928,-2.2928,-3.4931,-3.5328,-3.5127,-3.3964,-3.2015,-2.9892,-2.814,-2.5695,-2.356,-2.2678,-2.1564,-2.0735,-2.0754,-2.0117,-2.0301,-2.2439,-2.3826,-2.542,-2.7696,-2.9042,-3.0036,-3.0677,-3.1402,-3.2147,-3.2913,-3.4879,-3.6639,-3.7881,-3.8109,-3.8129,-3.7984,-3.7984,-3.8046,-3.8171,-3.8191,-3.8191,-3.8191,-3.8191,-3.8191,-3.8191,-3.8104,-3.7703,-3.7079,-3.7011,-3.6606,-3.6016,-3.6016,-3.6016,-3.6016,-3.6016,-3.6016,-3.6016,-3.6016,-3.6016,-3.6016,-3.6016,-3.6016,-3.6016,-3.6016,-3.6016,-3.6016,-3.6016,-3.6016,-3.6016,-3.6016,-3.6016,-3.6016,-3.6016,-3.5811,-3.5401,-3.4195,-3.2526,-3.0835,-2.9338,-2.8346,-2.7623,-2.71,-2.6199,-2.5333,-2.4825,-2.4372,-2.4022,-2.4022,-2.3781,-2.3581,-2.3581,-2.3327,-2.3196,-2.3196,-2.306,-2.2993,-2.2993,-2.2913,-2.2928,-2.2928,-2.2928,-2.2928,-2.2928,-2.2928,-2.2928,-2.2928,-2.2928,-2.2928,-2.2928,-2.2928,-2.2928,-2.2928,-2.2928,-2.2928,-2.2928,-2.2928,-2.2913,-3.4776,-3.5339,-3.5105,-3.3853,-3.1645,-2.9302,-2.7349,-2.5191,-2.3326,-2.2383,-2.1612,-2.0996,-2.0667,-1.9791,-1.972,-2.1528,-2.2604,-2.4012,-2.6314,-2.8152,-2.9311,-2.9332,-3.0553,-3.1567,-3.1946,-3.4507,-3.6494,-3.7425,-3.7922,-3.7984,-3.7529,-3.7508,-3.7715,-3.8171,-3.8191,-3.8191,-3.8191,-3.8191,-3.8191,-3.8191,-3.7837,-3.7415,-3.7079,-3.6654,-3.6336,-3.6016,-3.6016,-3.6016,-3.6016,-3.6016,-3.6016,-3.6016,-3.6016,-3.6016,-3.6016,-3.6016,-3.6016,-3.6016,-3.6016,-3.6016,-3.6016,-3.6016,-3.6016,-3.6016,-3.6016,-3.6016,-3.6016,-3.6016,-3.547,-3.4421,-3.2141,-3.096,-2.9838,-2.7565,-2.6983,-2.6765,-2.6019,-2.58,-2.558,-2.477,-2.4636,-2.4549,-2.4549,-2.4382,-2.4195,-2.4195,-2.3941,-2.3754,-2.3754,-2.35,-2.3327,-2.3327,-2.3046,-2.2928,-2.2928,-2.2928,-2.2928,-2.2928,-2.2928,-2.2928,-2.2928,-2.2928,-2.2928,-2.2928,-2.2928,-2.2928,-2.2928,-2.2928,-2.2928,-2.2928,-2.2928,-2.3033,-3.2845,-3.3886,-3.4361,-3.2952,-3.1191,-2.924,-2.7042,-2.5242,-2.3685,-2.2577,-2.1683,-2.0996,-2.0667,-2.0016,-1.9865,-2.0721,-2.1901,-2.3412,-2.5378,-2.722,-2.8711,-2.9663,-3.0988,-3.2126,-3.2871,-3.43,-3.5832,-3.7384,-3.7343,-3.7322,-3.7488,-3.7198,-3.7094,-3.7239,-3.755,-3.7715,-3.7715,-3.8026,-3.8037,-3.777,-3.7683,-3.728,-3.6654,-3.6586,-3.6336,-3.6016,-3.6016,-3.6016,-3.6016,-3.6016,-3.6016,-3.6016,-3.6016,-3.6016,-3.6016,-3.6016,-3.6016,-3.6016,-3.6016,-3.6016,-3.6016,-3.6016,-3.6016,-3.6016,-3.6016,-3.6016,-3.5947,-3.5743,-3.4696,-3.3345,-3.1578,-3.0392,-2.9194,-2.742,-2.6983,-2.6765,-2.5946,-2.58,-2.558,-2.4784,-2.4636,-2.4636,-2.4636,-2.4396,-2.4209,-2.4209,-2.3955,-2.3768,-2.3768,-2.3514,-2.3327,-2.3327,-2.3046,-2.2928,-2.2928,-2.2928,-2.2928,-2.2928,-2.2928,-2.2928,-2.2928,-2.2928,-2.2928,-2.2928,-2.2928,-2.2928,-2.2928,-2.2928,-2.2966,-2.318,-2.318,-2.334,-3.0623,-3.1706,-3.2244,-3.1143,-2.9806,-2.8272,-2.6548,-2.5095,-2.3818,-2.2739,-2.1776,-2.1065,-2.0892,-2.0285,-1.999,-2.0576,-2.1404,-2.2687,-2.4652,-2.6537,-2.838,-3.0284,-3.1422,-3.2333,-3.3058,-3.4113,-3.5376,-3.6867,-3.6867,-3.6846,-3.697,-3.6701,-3.6453,-3.6287,-3.6908,-3.7239,-3.7239,-3.7542,-3.757,-3.7371,-3.7266,-3.6924,-3.6519,-3.6384,-3.62,-3.6016,-3.6016,-3.6016,0.0,-3.6016,-3.6016,-3.6016,-3.6016,-3.6016,-3.6016,-3.6016,-3.6016,-3.6016,-3.6016,-3.6016,-3.5947,-3.5811,-3.5675,-3.5606,-3.5606,-3.5675,-3.5675,-3.504,-3.3988,-3.2578,-3.073,-2.9679,-2.8691,-2.7347,-2.6983,-2.6765,-2.5946,-2.58,-2.558,-2.4784,-2.4636,-2.4636,-2.4636,-2.4489,-2.4369,-2.4369,-2.4209,-2.4102,-2.4102,-2.3834,-2.3661,-2.3661,-2.338,-2.3276,-2.3276,-2.3062,-2.2928,-2.2928,-2.2928,-2.2928,-2.2928,-2.2979,-2.3033,-2.3033,-2.3153,-2.3276,-2.3276,-2.3276,-2.33,-2.35,-2.3607,-2.3754,0.0,-2.8978,-2.915,-2.87,-2.7801,-2.6756,-2.5813,-2.4748,0.0,-2.2819,-2.1831,-2.117,-2.1263,-2.0509,-2.0176,-2.1031,-2.1217,-2.2007,-2.428,-2.633,-2.8595,-3.1195,-3.1919,-3.2297,-3.2789,-3.3989,-3.5128,-3.6039,-3.6473,-3.6535,-3.6121,-3.608,-3.5873,-3.5438,-3.6182,-3.6658,-3.6678,-3.6807,-3.6836,-3.6811,-3.6549,-3.6479,-3.6451,-3.6152,-3.6016,-3.6016,-3.6016,-3.6016,-3.6016,-3.6016,-3.6016,-3.6016,-3.6016,-3.6016,-3.6016,-3.6016,-3.6016,-3.6016,-3.6016,-3.6016,-3.5947,-3.5538,-3.5127,-3.4765,-3.4696,-3.499,-3.5127,-3.4057,-3.3155,-3.1947,-2.9751,-2.8907,-2.8346,-2.7274,-2.6983,-2.6765,-2.5946,-2.58,-2.558,-2.4784,-2.4636,-2.4636,-2.4636,-2.4636,-2.4636,-2.4636,-2.4636,-2.4636,-2.4636,-2.4382,-2.4209,-2.4209,-2.3941,-2.3768,-2.3768,-2.3316,-2.2926,-2.2926,-2.2926,-2.2926,-2.2926,-2.3207,-2.3367,-2.3367,-2.3634,-2.3768,-2.3768,-2.3768,-2.3781,-2.3808,-2.4075,-2.4209,-2.4345,0.0,-2.8798,-2.7703,-2.7306,-2.6772,0.0,-2.4171,-2.343,-2.2308,-2.1766,-2.1372,-2.0963,-2.0836,-2.099,-2.1549,-2.2232,-2.337,-2.5295,-2.8359,-3.1083,-3.2706,-3.3306,-3.3637,-3.3741,-3.4422,-3.5128,-3.6039,-3.5894,-3.5852,-3.6101,-3.5769,-3.5542,-3.5418,-3.5375,-3.5537,-3.5886,-3.6272,-3.6355,-3.615,-3.605,-3.6087,-3.6084,-3.6016,-3.6016,-3.6016,-3.6016,-3.6016,-3.6016,-3.6016,-3.6016,-3.6016,-3.6016,-3.6016,-3.6016,-3.6016,-3.6016,-3.6016,-3.6016,-3.6016,-3.5811,-3.4609,-3.3918,-3.3433,-3.2578,-3.2997,-3.3641,-3.3085,-3.1736,-3.0195,-2.9122,-2.8331,-2.7695,-2.7129,-2.6983,-2.6765,-2.5946,-2.58,-2.558,-2.4784,-2.4636,-2.4636,-2.4636,-2.4636,-2.4636,-2.4636,-2.4636,-2.4636,-2.4636,-2.4382,-2.4209,-2.4209,-2.3941,-2.3768,-2.3768,-2.3634,-2.3554,-2.3554,-2.3554,-2.3554,-2.3554,-2.3634,-2.3661,-2.3661,-2.3728,-2.3768,-2.3768,-2.3768,-2.3888,-2.4102,-2.4168,-2.4329,-2.3105,-2.4813,-2.6481,-2.5463,-2.5502,-2.5407,-2.3942,-2.3249,-2.2736,-2.1925,-2.1472,-2.1174,-2.102,-2.1068,-2.1404,-2.2294,-2.3039,-2.4509,-2.7365,-3.0201,-3.2499,-3.3903,-3.4403,-3.4693,-3.4693,-3.4921,-3.5273,-3.5769,-3.5562,-3.5521,-3.579,-3.5562,-3.5273,-3.4944,-3.4882,-3.5044,-3.5289,-3.5419,-3.544,-3.529,-3.5356,-3.5493,-3.5742,-3.5742,-3.584,-3.6016,-3.6016,-3.6016,-3.6016,-3.6016,-3.6016,-3.6016,-3.6016,-3.6016,-3.6016,-3.6016,-3.6016,-3.6016,-3.6016,-3.5811,-3.5264,-3.3988,-3.3155,-3.2438,-3.1313,-3.1172,-3.1384,-3.1172,-3.025,-2.9051,-2.813,-2.7623,-2.7274,-2.7056,-2.6983,-2.6765,-2.5946,-2.58,-2.558,-2.4784,-2.4636,-2.4636,-2.4636,-2.4636,-2.4636,-2.4636,-2.4636,-2.4636,-2.4636,-2.4502,-2.4396,-2.4396,-2.4262,-2.4168,-2.4168,-2.4168,-2.4062,-2.3794,-2.3768,-2.3768,-2.3768,-2.3901,-2.4035,-2.4168,-2.4168,-2.4168,-2.4168,-2.4168,-2.4249,-2.4396,-2.4396,-2.4489,-2.3088,-2.3412,-2.3823,-2.328,-2.3735,-2.4072,-2.3282,-2.2778,-2.2361,-2.1821,-2.1385,-2.1125,-2.1303,-2.1366,-2.188,-2.3267,-2.4178,-2.6041,-2.987,-3.1816,-3.3327,-3.4754,-3.519,-3.5418,-3.5418,-3.5418,-3.5418,-3.5418,-3.5418,-3.5418,-3.5418,-3.5356,-3.5067,-3.4432,-3.4594,-3.4735,-3.4735,-3.4615,-3.4516,-3.4532,-3.4564,-3.4844,-3.5293,-3.5293,-3.5488,-3.582,-3.582,-3.582,-3.582,-3.5898,-3.5918,-3.5937,-3.5996,-3.6016,-3.6016,-3.6016,-3.6016,-3.6016,-3.6016,-3.5538,-3.4696,-3.3345,-3.2438,-3.1613,-3.0266,-2.9481,-2.8907,-2.8891,-2.8691,-2.8274,-2.7274,-2.6983,-2.6983,-2.6983,-2.691,-2.6692,-2.5946,-2.5726,-2.5506,-2.471,-2.4636,-2.4636,-2.4636,-2.4636,-2.4636,-2.4636,-2.4636,-2.4636,-2.4636,-2.4636,-2.4636,-2.4636,-2.4636,-2.4636,-2.4636,-2.4636,-2.4422,-2.3928,-2.3901,-2.3901,-2.3901,-2.4142,-2.4382,-2.4636,-2.4636,-2.4636,-2.4636,-2.4636,-2.4636,-2.4636,-2.4636,-2.4636,-2.3088,-2.3284,-2.3636,-2.3477,-2.4526,-2.5326,-2.4188,-2.407,-2.3839,-2.262,-2.2346,-2.2253,-2.1982,-2.2449,-2.3329,-2.4652,-2.691,-2.9373,-3.194,-3.2871,-3.3782,-3.5148,-3.5376,-3.5418,-3.5418,-3.5418,-3.5418,-3.5418,-3.5418,-3.5418,-3.5418,-3.5108,-3.4901,-3.482,-3.432,-3.4047,-3.4047,-3.4044,-3.4092,-3.4211,-3.4205,-3.4394,-3.4805,-3.4805,-3.4844,-3.4902,-3.4902,-3.4902,-3.4941,-3.5332,-3.5488,-3.5527,-3.5879,-3.6016,-3.6016,-3.6016,-3.6016,-3.6016,-3.6016,-3.5538,-3.4558,-3.2438,-3.1243,-3.0266,-2.813,-2.742,-2.7347,-2.7347,-2.755,-2.7623,-2.7129,-2.6983,-2.6983,-2.6983,-2.6765,-2.6385,-2.5873,-2.5506,-2.5152,-2.471,-2.4636,-2.4636,-2.4636,-2.4636,-2.4636,-2.4636,-2.4636,-2.4636,-2.4636,-2.4636,-2.4636,-2.4636,-2.4636,-2.4636,-2.4636,-2.4636,-2.4596,-2.4516,-2.4502,-2.4502,-2.4502,-2.4543,-2.4596,-2.4636,-2.4636,-2.4636,-2.4636,-2.4636,-2.4636,-2.4636,-2.4636,-2.4636,-2.3096,-2.3294,-2.3803,-2.3742,-2.4672,-2.5433,-2.4756,-2.4665,-2.4486,-2.3449,-2.2883,-2.2562,-2.2658,-2.3349,-2.4695,-2.7055,-2.9311,-3.1319,-3.2871,-3.3679,-3.4445,-3.5314,-3.5418,-3.5418,-3.5418,-3.5418,-3.5418,-3.5418,-3.5418,-3.5294,-3.5108,-3.4984,-3.4633,-3.4019,-3.3928,-3.3677,-3.3336,-3.3489,-3.3642,-3.373,-3.373,-3.3945,-3.4355,-3.4355,-3.4473,-3.4707,-3.4707,-3.4707,-3.4726,-3.5195,-3.5391,-3.543,-3.5859,-3.6016,-3.6016,-3.6016,-3.6016,-3.6016,-3.6016,-3.5538,-3.449,-3.2211,-3.1031,-2.9981,-2.7695,-2.6983,-2.6983,-2.6983,-2.7129,-2.7202,-2.7056,-2.6983,-2.691,-2.6765,-2.6546,-2.6253,-2.5593,-2.5299,-2.5079,-2.471,-2.4636,-2.4636,-2.4636,-2.4636,-2.4636,-2.4636,-2.4636,-2.4636,-2.4636,-2.4636,-2.4636,-2.4636,-2.4636,-2.4636,-2.4636,-2.4636,-2.4636,-2.4636,-2.4636,-2.4636,-2.4636,-2.4636,-2.4636,-2.4636,-2.4636,-2.4636,-2.4636,-2.4636,-2.4636,-2.4636,-2.4636,-2.4636,-2.3139,-2.3294,-2.389,-2.3872,-2.4655,-2.5406,-2.5301,-2.5329,-2.5161,-2.4442,-2.3759,-2.337,-2.3619,-2.4571,-2.6202,-2.9021,-3.0905,-3.2395,-3.341,-3.4297,-3.4921,-3.5376,-3.5418,-3.5418,-3.5418,-3.5418,-3.5418,-3.5418,-3.5418,-3.5232,-3.4922,-3.4859,-3.4386,-3.3446,-3.3681,-3.3513,-3.2949,-3.3262,-3.3418,-3.3418,-3.3418,-3.3594,-3.3926,-3.3926,-3.4101,-3.4394,-3.4394,-3.4394,-3.4453,-3.5,-3.5234,-3.5293,-3.582,-3.6016,-3.6016,-3.6016,-3.6016,-3.6016,-3.6016,-3.5538,-3.449,-3.2211,-3.1031,-2.9981,-2.7695,-2.6983,-2.6983,-2.6983,-2.6983,-2.6983,-2.6983,-2.6983,-2.691,-2.6619,-2.6399,-2.6107,-2.5446,-2.5152,-2.4931,-2.4636,-2.4636,-2.4636,-2.4636,-2.4636,-2.4636,-2.4636,-2.4636,-2.4636,-2.4636,-2.4636,-2.4636,-2.4636,-2.4636,-2.4636,-2.4636,-2.4636,-2.4636,-2.4636,-2.4636,-2.4636,-2.4636,-2.4636,-2.4636,-2.4636,-2.4636,-2.4636,-2.4636,-2.4636,-2.4636,-2.4636,-2.4703,-2.4743,-2.3238,-2.3238,-2.3666,-2.3779,-2.4692,-2.5649,-2.5928,-2.641,-2.6494,-2.5632,-2.5599,-2.5523,-2.5106,-2.647,-2.8173,-2.9704,-3.1112,-3.2499,-3.3844,-3.4505,-3.4921,-3.5376,-3.5418,-3.5418,-3.5418,-3.5418,-3.5418,-3.5418,-3.5418,-3.5232,-3.4922,-3.461,-3.4278,-3.3882,-3.3587,-3.3398,-3.3379,-3.3398,-3.3418,-3.3418,-3.3418,-3.3437,-3.3476,-3.3476,-3.3496,-3.3516,-3.3516,-3.3516,-3.3574,-3.4414,-3.4746,-3.4824,-3.5684,-3.6016,-3.6016,-3.6016,-3.6016,-3.6016,-3.6016,-3.5538,-3.449,-3.2211,-3.1031,-2.9981,-2.7695,-2.6983,-2.6983,-2.6983,-2.6983,-2.6983,-2.6983,-2.6983,-2.6983,-2.6983,-2.6385,-2.58,-2.58,-2.5152,-2.4636,-2.4636,-2.4636,-2.4636,-2.4636,-2.4636,-2.4636,-2.4636,-2.4636,-2.4636,-2.4636,-2.4636,-2.4636,-2.4636,-2.4636,-2.4636,-2.4636,-2.4636,-2.4636,-2.4636,-2.4636,-2.4636,-2.4636,-2.4636,-2.4636,-2.4636,-2.4636,-2.4636,-2.4636,-2.4636,-2.4636,-2.4649,-2.4917,-2.505,-2.296,-2.311,-2.3694,-2.3885,-2.4687,-2.5613,-2.6389,-2.7065,-2.751,-2.7446,-2.7268,-2.7013,-2.6579,-2.7759,-2.9145,-3.0243,-3.1795,-3.3161,-3.3948,-3.4714,-3.5231,-3.5397,-3.5418,-3.5418,-3.5418,-3.5418,-3.5418,-3.5418,-3.5418,-3.517,-3.461,-3.4485,-3.4173,-3.3607,-3.3481,-3.3418,-3.3418,-3.3418,-3.3418,-3.3418,-3.3418,-3.3418,-3.3418,-3.3418,-3.3418,-3.3418,-3.3418,-3.3418,-3.3496,-3.4336,-3.4707,-3.4785,-3.5684,-3.6016,-3.6016,-3.6016,-3.6016,-3.6016,-3.6016,-3.5538,-3.449,-3.2211,-3.1031,-2.9981,-2.7695,-2.6983,-2.6983,-2.6983,-2.6983,-2.6983,-2.6983,-2.6983,-2.691,-2.6692,-2.6385,-2.6019,-2.552,-2.5152,-2.4931,-2.4636,-2.4636,-2.4636,-2.4636,-2.4636,-2.4636,-2.4636,-2.4636,-2.4636,-2.4636,-2.4636,-2.4636,-2.4636,-2.4636,-2.4636,-2.4636,-2.481,-2.4917,-2.4917,-2.4743,-2.4636,-2.4636,-2.4636,-2.4636,-2.4636,-2.4636,-2.4636,-2.4636,-2.4636,-2.4636,-2.4649,-2.4943,-2.5077,-2.3054,-2.3141,-2.3626,-2.384,-2.4575,-2.5515,-2.6711,-2.7584,-2.8276,-2.8731,-2.8587,-2.8276,-2.7966,-2.8794,-2.9766,-3.0553,-3.2085,-3.3389,-3.3989,-3.4734,-3.5273,-3.5397,-3.5418,-3.5418,-3.5418,-3.5418,-3.5418,-3.5418,-3.5418,-3.5108,-3.4423,-3.4423,-3.411,-3.3418,-3.3418,-3.3418,-3.3418,-3.3418,-3.3418,-3.3418,-3.3418,-3.3418,-3.3418,-3.3418,-3.3418,-3.3418,-3.3418,-3.3418,-3.3496,-3.4336,-3.4863,-3.5176,-3.5781,-3.6016,-3.6016,-3.6016,-3.6016,-3.6016,-3.6016,-3.5538,-3.449,-3.2211,-3.1031,-2.9981,-2.7695,-2.6983,-2.6983,-2.6983,-2.6983,-2.6983,-2.6983,-2.6983,-2.691,-2.6619,-2.6473,-2.6239,-2.552,-2.5299,-2.5079,-2.471,-2.4636,-2.4636,-2.4636,-2.4636,-2.4636,-2.4636,-2.4636,-2.4636,-2.4636,-2.4636,-2.4636,-2.4636,-2.4636,-2.4636,-2.4636,-2.4823,-2.4943,-2.4943,-2.4836,-2.4823,-2.4903,-2.4917,-2.4917,-2.4917,-2.4917,-2.4917,-2.4917,-2.4917,-2.4917,-2.4917,-2.5224,-2.5358,-2.3589,-2.335,-2.3347,-2.3654,-2.436,-2.5436,-2.714,-2.8067,-2.8752,-2.9228,-2.9332,-2.9332,-2.9311,-2.9684,-3.016,-3.0615,-3.1836,-3.3037,-3.3927,-3.4526,-3.4921,-3.5355,-3.5418,-3.5418,-3.5418,-3.5418,-3.5418,-3.5418,-3.5418,-3.5108,-3.4423,-3.4423,-3.411,-3.3418,-3.3418,-3.3418,-3.3418,-3.3418,-3.3418,-3.3418,-3.3418,-3.3418,-3.3418,-3.3418,-3.3418,-3.3418,-3.3418,-3.3418,-3.3496,-3.4336,-3.5215,-3.6016,-3.6016,-3.6016,-3.6016,-3.6016,-3.6016,-3.6016,-3.6016,-3.5538,-3.449,-3.2211,-3.1031,-2.9981,-2.771,-2.6983,-2.6983,-2.6983,-2.6983,-2.6983,-2.6983,-2.6983,-2.6983,-2.6983,-2.6692,-2.6312,-2.5873,-2.552,-2.5079,-2.471,-2.4636,-2.4636,-2.4636,-2.4636,-2.4636,-2.4636,-2.4636,-2.4636,-2.4636,-2.4636,-2.4636,-2.4636,-2.4636,-2.4636,-2.4636,-2.4562,-2.4562,-2.4562,-2.4917,-2.5211,-2.5504,-2.5518,-2.5518,-2.5518,-2.5518,-2.5518,-2.5518,-2.5518,-2.5518,-2.5518,-2.5825,-2.6037,-2.262,-2.2949,-2.3548,-2.4018,-2.5454,-2.7095,-2.8301,-2.8836,-2.9497,-3.0926,-3.0988,-3.0553,-2.9911,-3.018,-3.0532,-3.0657,-3.1836,-3.2934,-3.3492,-3.4318,-3.4857,-3.4941,-3.5231,-3.5418,-3.5418,-3.5418,-3.5418,-3.5418,-3.5418,-3.5108,-3.4423,-3.4423,-3.411,-3.3418,-3.3418,-3.3418,-3.3418,-3.3418,-3.3418,-3.3418,-3.3418,-3.3418,-3.3418,-3.3418,-3.3418,-3.3418,-3.3418,-3.3418,-3.3496,-3.4336,-3.5215,-3.6016,-3.6016,-3.6016,-3.6016,-3.6016,-3.5811,-3.5675,-3.5675,-3.4765,-3.3415,-3.1649,-3.0392,-2.9338,-2.7565,-2.6983,-2.6983,-2.6983,-2.6983,-2.6983,-2.6983,-2.6983,-2.6983,-2.6983,-2.691,-2.6619,-2.5946,-2.5726,-2.5433,-2.471,-2.4636,-2.4636,-2.4636,-2.4636,-2.4636,-2.4636,-2.4636,-2.4636,-2.4636,-2.4636,-2.4636,-2.4636,-2.4636,-2.4636,-2.4636,-2.4823,-2.4943,-2.4943,-2.5424,-2.5545,-2.5224,-2.5411,-2.5518,-2.5518,-2.5518,-2.5518,-2.5518,-2.5518,-2.5518,-2.5518,-2.5825,-2.6037,-2.2651,-2.3008,-2.3599,-2.4442,-2.6165,-2.8073,-2.9796,-3.0307,-3.076,-3.1988,-3.1961,-3.1464,-3.0905,-3.1029,-3.1215,-3.1215,-3.2064,-3.2871,-3.3327,-3.3865,-3.4401,-3.4774,-3.4983,-3.5231,-3.5397,-3.5418,-3.5418,-3.5418,-3.5418,-3.5108,-3.4423,-3.4423,-3.411,-3.3418,-3.3418,-3.3418,-3.3418,-3.3418,-3.3418,-3.3418,-3.3418,-3.3418,-3.3418,-3.3418,-3.3418,-3.3418,-3.3418,-3.3613,-3.3965,-3.4492,-3.5215,-3.6016,-3.6016,-3.6016,-3.6016,-3.6016,-3.5811,-3.5401,-3.4971,-3.3988,-3.2718,-3.0801,-2.9679,-2.8835,-2.742,-2.6983,-2.6983,-2.6983,-2.6983,-2.6983,-2.6983,-2.6983,-2.6983,-2.6983,-2.6983,-2.6765,-2.5946,-2.58,-2.558,-2.4784,-2.4636,-2.4676,-2.4796,-2.481,-2.485,-2.497,-2.4983,-2.4983,-2.4983,-2.4983,-2.4983,-2.4983,-2.4983,-2.4983,-2.4983,-2.5144,-2.5251,-2.5251,-2.5692,-2.5876,-2.5438,-2.5705,-2.5865,-2.5865,-2.5865,-2.5865,-2.5865,-2.5865,-2.5865,-2.5865,-2.6039,-2.6132,-2.3248,-2.3414,-2.366,-2.4964,-2.6744,-2.8805,-3.145,-3.205,-3.2173,-3.2587,-3.2339,-3.205,-3.205,-3.205,-3.205,-3.205,-3.2401,-3.2871,-3.3265,-3.3348,-3.3699,-3.4588,-3.4733,-3.4859,-3.5252,-3.5293,-3.5293,-3.5293,-3.5335,-3.5046,-3.4363,-3.4403,-3.411,-3.3418,-3.3418,-3.3418,-3.3418,-3.3418,-3.3418,-3.3418,-3.3418,-3.3418,-3.3418,-3.3418,-3.3418,-3.3418,-3.3418,-3.3887,-3.4648,-3.4687,-3.5195,-3.5976,-3.5996,-3.6016,-3.6016,-3.6016,-3.5743,-3.5264,-3.4195,-3.3294,-3.2246,-2.9965,-2.8979,-2.8418,-2.7347,-2.6983,-2.6983,-2.6983,-2.6983,-2.6983,-2.6983,-2.6983,-2.6983,-2.6983,-2.6983,-2.6765,-2.5946,-2.58,-2.558,-2.4784,-2.4589,-2.4756,-2.5037,-2.5104,-2.5211,-2.5478,-2.5518,-2.5518,-2.5518,-2.5518,-2.5518,-2.5518,-2.5518,-2.5518,-2.5518,-2.5518,-2.5518,-2.5518,-2.5798,-2.6037,-2.6037,-2.6213,-2.6346,-2.6346,-2.6346,-2.6346,-2.6346,-2.6373,-2.6386,-2.6386,-2.6386,-2.6386,-2.284,-2.3885,-2.4914,-2.5748,-2.807,-3.0532,-3.2153,-3.2525,-3.2545,-3.2649,-3.2587,-3.2525,-3.2525,-3.2525,-3.2525,-3.2525,-3.2607,-3.2768,-3.2851,-3.3161,-3.3451,-3.3658,-3.4049,-3.4258,-3.4341,-3.4362,-3.4362,-3.4362,-3.4693,-3.4656,-3.3982,-3.4242,-3.411,-3.3418,-3.3418,-3.3418,-3.3418,-3.3418,-3.3418,-3.3418,-3.3418,-3.3418,-3.3418,-3.3418,-3.3418,-3.3418,-3.3418,-3.373,-3.4238,-3.457,-3.5019,-3.5566,-3.5898,-3.6016,-3.6016,-3.6016,-3.5606,-3.499,-3.4439,-3.3173,-3.163,-3.0124,-2.8979,-2.8057,-2.7274,-2.6983,-2.6983,-2.6983,-2.6983,-2.6983,-2.6983,-2.6983,-2.6983,-2.6983,-2.6983,-2.6765,-2.5946,-2.58,-2.558,-2.4784,-2.4823,-2.501,-2.5064,-2.5264,-2.5438,-2.5504,-2.5518,-2.5518,-2.5518,-2.5518,-2.5518,-2.5518,-2.5518,-2.5518,-2.5518,-2.5518,-2.5518,-2.5518,-2.5798,-2.6037,-2.6037,-2.609,-2.613,-2.613,-2.613,-2.613,-2.613,-2.6279,-2.6386,-2.6386,-2.6386,-2.6386,-2.3456,-2.4886,-2.6468,-2.8237,-3.0037,-3.1588,-3.2463,-3.2669,-3.2669,-3.2669,-3.2669,-3.2669,-3.2669,-3.2669,-3.2669,-3.2669,-3.2669,-3.2669,-3.2669,-3.2934,-3.3141,-3.3348,-3.3596,-3.3824,-3.4111,-3.4132,-3.4132,-3.4132,-3.436,-3.4183,-3.3518,-3.388,-3.3811,-3.3125,-3.332,-3.3418,-3.3418,-3.3418,-3.3418,-3.3418,-3.3418,-3.3418,-3.3418,-3.3418,-3.3418,-3.3418,-3.3418,-3.3672,-3.4082,-3.4316,-3.4785,-3.541,-3.5625,-3.584,-3.6016,-3.6016,-3.5675,-3.5059,-3.4352,-3.3242,-3.1824,-3.0107,-2.8979,-2.8202,-2.7274,-2.6983,-2.6983,-2.6983,-2.6983,-2.6983,-2.6983,-2.6983,-2.6983,-2.6983,-2.6983,-2.6881,-2.6438,-2.6171,-2.5843,-2.5398,-2.5335,-2.5331,-2.5478,-2.5745,-2.5932,-2.5932,-2.5932,-2.5932,-2.5932,-2.5932,-2.5932,-2.5932,-2.5932,-2.5932,-2.5932,-2.5932,-2.5932,-2.5932,-2.6079,-2.6159,-2.6159,-2.6104,-2.6037,-2.6037,-2.6037,-2.6037,-2.6037,-2.6253,-2.6386,-2.6386,-2.6386,-2.6386,-2.4319,-2.5976,-2.8025,-3.0704,-3.165,-3.2008,-3.2602,-3.2669,-3.2669,-3.2669,-3.2669,-3.2669,-3.2669,-3.2669,-3.2669,-3.2669,-3.2669,-3.2669,-3.2669,-3.2669,-3.2871,-3.3223,-3.3265,-3.341,-3.3803,-3.3844,-3.3844,-3.3844,-3.3906,-3.3711,-3.2995,-3.3417,-3.3392,-3.2793,-3.3125,-3.334,-3.3418,-3.3418,-3.3418,-3.3418,-3.3418,-3.3418,-3.3418,-3.3418,-3.3418,-3.3418,-3.3418,-3.3633,-3.3965,-3.4121,-3.4609,-3.5293,-3.5449,-3.5723,-3.6016,-3.6016,-3.5811,-3.5333,-3.4333,-3.3433,-3.2386,-3.0162,-2.9107,-2.8547,-2.7347,-2.6983,-2.6983,-2.6983,-2.6983,-2.6983,-2.6983,-2.7027,-2.7071,-2.7071,-2.7115,-2.7144,-2.6978,-2.6602,-2.634,-2.615,-2.5788,-2.5678,-2.5985,-2.6226,-2.6386,-2.6386,-2.6386,-2.6386,-2.6386,-2.6426,-2.6466,-2.6466,-2.6507,-2.6533,-2.6533,-2.6533,-2.6533,-2.6533,-2.6533,-2.6533,-2.6533,-2.6266,-2.6079,-2.6039,-2.5985,-2.6037,-2.6037,-2.6253,-2.6386,-2.6386,-2.6386,-2.6386,-2.4434,-2.6594,-2.889,-3.0924,-3.1422,-3.1692,-3.254,-3.2669,-3.2669,-3.2669,-3.2669,-3.2669,-3.2669,-3.2669,-3.2669,-3.2669,-3.2669,-3.2669,-3.2669,-3.2669,-3.269,-3.2809,-3.2809,-3.2851,-3.2913,-3.2913,-3.2913,-3.2913,-3.3265,-3.3179,-3.2532,-3.2954,-3.3073,-3.2793,-3.2851,-3.3047,-3.3418,-3.3418,-3.3418,-3.3418,-3.3418,-3.3418,-3.3418,-3.3418,-3.3418,-3.3418,-3.3418,-3.3457,-3.3574,-3.4316,-3.4687,-3.4863,-3.5644,-3.5976,-3.6016,-3.6016,-3.5811,-3.5421,-3.4921,-3.4057,-3.2788,-3.0889,-2.9767,-2.8907,-2.742,-2.6983,-2.6983,-2.6983,-2.6983,-2.6983,-2.6983,-2.7203,-2.7408,-2.7408,-2.7627,-2.7609,-2.6989,-2.7087,-2.6985,-2.6281,-2.6026,-2.5985,-2.6279,-2.636,-2.6386,-2.6386,-2.6386,-2.6386,-2.6386,-2.6613,-2.676,-2.676,-2.6987,-2.7148,-2.7148,-2.7148,-2.7148,-2.7148,-2.7148,-2.7148,-2.7148,-2.6867,-2.6587,-2.6333,-2.6092,-2.6037,-2.6037,-2.6253,-2.6386,-2.6386,-2.6386,-2.6386,-2.5774,-2.7779,-2.9654,-3.1061,-3.1567,-3.1919,-3.2525,-3.2669,-3.2669,-3.2669,-3.2669,-3.2669,-3.2669,-3.2669,-3.2669,-3.2669,-3.2669,-3.2669,-3.2669,-3.2669,-3.2669,-3.2669,-3.2669,-3.2669,-3.2669,-3.2669,-3.2669,-3.2669,-3.2913,-3.2728,-3.2069,-3.2492,-3.2535,-3.207,-3.2539,-3.2891,-3.3066,-3.3301,-3.3418,-3.3418,-3.3418,-3.3418,-3.3418,-3.3418,-3.3418,-3.3418,-3.3418,-3.3418,-3.3476,-3.4101,-3.4492,-3.4766,-3.541,-3.582,-3.6016,-3.6016,-3.5879,-3.5743,-3.5606,-3.4902,-3.378,-3.1736,-3.0534,-2.9552,-2.7565,-2.6983,-2.6983,-2.6983,-2.6983,-2.7027,-2.7217,-2.7364,-2.7525,-2.77,-2.7993,-2.8107,-2.781,-2.7668,-2.7429,-2.6749,-2.6432,-2.6239,-2.6373,-2.6386,-2.6386,-2.6386,-2.6386,-2.6386,-2.6386,-2.664,-2.6827,-2.6827,-2.7094,-2.7268,-2.7268,-2.7268,-2.7268,-2.7268,-2.7268,-2.7268,-2.7268,-2.7134,-2.7014,-2.6881,-2.6426,-2.6119,-2.6037,-2.6253,-2.6386,-2.6386,-2.6386,-2.6386,-2.6227,-2.7896,-2.9412,-3.0465,-3.1008,-3.1526,-3.223,-3.2478,-3.2582,-3.2706,-3.2669,-3.2669,-3.2669,-3.2669,-3.2669,-3.2669,-3.2669,-3.2669,-3.2669,-3.2669,-3.2669,-3.2669,-3.2669,-3.2669,-3.2669,-3.2669,-3.2669,-3.2669,-3.2669,-3.244,-3.1845,-3.2089,-3.2037,-3.1523,-3.2129,-3.2578,-3.2793,-3.3203,-3.3418,-3.3418,-3.3418,-3.3418,-3.3418,-3.3418,-3.3418,-3.3418,-3.3418,-3.3418,-3.3457,-3.4004,-3.4414,-3.4766,-3.5332,-3.5675,-3.5879,-3.5879,-3.5811,-3.5743,-3.5743,-3.5196,-3.4126,-3.2,-3.0818,-2.9767,-2.7623,-2.6983,-2.6983,-2.6983,-2.7056,-2.7174,-2.7408,-2.7598,-2.7773,-2.8022,-2.8238,-2.8549,-2.8549,-2.8086,-2.7601,-2.7213,-2.677,-2.6493,-2.6493,-2.656,-2.6613,-2.6613,-2.6613,-2.6613,-2.6613,-2.6867,-2.7041,-2.7041,-2.7308,-2.7495,-2.7495,-2.7495,-2.7495,-2.7495,-2.7495,-2.7495,-2.7495,-2.7495,-2.7455,-2.7375,-2.6947,-2.6547,-2.6172,-2.6319,-2.6386,-2.6386,-2.6386,-2.6386,-2.4617,-2.5878,-2.7503,-2.8467,-2.9104,-2.9808,-3.1153,-3.1774,-3.2153,-3.2587,-3.2669,-3.2669,-3.2669,-3.2669,-3.2669,-3.2669,-3.2669,-3.2669,-3.2669,-3.2669,-3.2669,-3.2669,-3.2669,-3.2669,-3.2669,-3.2669,-3.2669,-3.2669,-3.2669,-3.244,-3.1845,-3.1808,-3.1718,-3.1504,-3.1562,-3.1973,-3.2793,-3.3203,-3.3418,-3.3418,-3.3418,-3.3418,-3.3418,-3.3418,-3.3418,-3.3418,-3.3418,-3.3418,-3.3496,-3.4316,-3.4687,-3.4785,-3.5644,-3.5792,-3.5538,-3.5538,-3.5264,-3.499,-3.499,-3.4214,-3.2997,-3.1437,-3.025,-2.9051,-2.7492,-2.6983,-2.6983,-2.6983,-2.7217,-2.7452,-2.7481,-2.7934,-2.8388,-2.8326,-2.8637,-2.8871,-2.8871,-2.8232,-2.7619,-2.7555,-2.7157,-2.68,-2.68,-2.7028,-2.7228,-2.7228,-2.7228,-2.7228,-2.7228,-2.7468,-2.7655,-2.7655,-2.7923,-2.8181,-2.8181,-2.8181,-2.8181,-2.8181,-2.8181,-2.8181,-2.8181,-2.8181,-2.7963,-2.7682,-2.7642,-2.7348,-2.6774,-2.652,-2.6386,-2.6386,-2.6386,-2.6386,-2.3144,-2.4101,-2.537,-2.6208,-2.722,-2.8442,-3.0118,-3.1071,-3.1836,-3.2582,-3.2669,-3.2669,-3.2669,-3.2669,-3.2669,-3.2669,-3.2669,-3.2669,-3.2669,-3.2669,-3.2669,-3.2669,-3.2669,-3.2669,-3.2669,-3.2669,-3.2669,-3.2669,-3.2669,-3.2555,-3.2133,-3.1903,-3.1694,-3.1387,-3.1426,-3.1934,-3.2793,-3.3203,-3.3418,-3.3418,-3.3418,-3.3418,-3.3418,-3.3418,-3.3418,-3.3418,-3.3418,-3.3418,-3.3496,-3.4336,-3.4707,-3.4785,-3.5684,-3.5811,-3.5401,-3.4696,-3.4126,-3.3711,-3.2997,-3.2281,-3.1508,-3.0233,-2.9393,-2.8691,-2.742,-2.6983,-2.7027,-2.7247,-2.7393,-2.7569,-2.7993,-2.8271,-2.8534,-2.8944,-2.9281,-2.9456,-2.9251,-2.8404,-2.7633,-2.7633,-2.7021,-2.6547,-2.6547,-2.6627,-2.6707,-2.6707,-2.6707,-2.6707,-2.6707,-2.6961,-2.7134,-2.7134,-2.7402,-2.7575,-2.7575,-2.7575,-2.7575,-2.7575,-2.7575,-2.7669,-2.7856,-2.7856,-2.7896,-2.7989,-2.7789,-2.7509,-2.7108,-2.7001,-2.6947,-2.6947,-2.6947,-2.6947,-2.2068,-2.2828,-2.3857,-2.4324,-2.5344,-2.6692,-2.8471,-2.9684,-3.0801,-3.2023,-3.2395,-3.2483,-3.2649,-3.2669,-3.2669,-3.2669,-3.2669,-3.2669,-3.2669,-3.2669,-3.2669,-3.2669,-3.2669,-3.2669,-3.2669,-3.2669,-3.2669,-3.2669,-3.2669,-3.2555,-3.2305,-3.2076,-3.1787,-3.1325,-3.1604,-3.2012,-3.2578,-3.3144,-3.3418,-3.3418,-3.3418,-3.3418,-3.3418,-3.3418,-3.3418,-3.3418,-3.3418,-3.3418,-3.3496,-3.4336,-3.4707,-3.4785,-3.5684,-3.5675,-3.5127,-3.3988,-3.3276,-3.2648,-3.1525,-3.0801,-3.025,-2.9322,-2.8691,-2.813,-2.7274,-2.7071,-2.7203,-2.7422,-2.7627,-2.7891,-2.833,-2.8505,-2.8695,-2.912,-2.9383,-2.9486,-2.9108,-2.8346,-2.7759,-2.7647,-2.7007,-2.6533,-2.6533,-2.6613,-2.668,-2.668,-2.668,-2.668,-2.668,-2.6854,-2.6974,-2.6974,-2.7148,-2.7268,-2.7268,-2.7268,-2.7268,-2.7268,-2.7268,-2.7348,-2.7549,-2.7642,-2.7789,-2.7989,-2.7896,-2.7749,-2.7645,-2.7362,-2.7268,-2.7268,-2.7268,-2.7268,0.0,0.0,0.0,-2.2955,-2.3482,-2.4451,-2.6152,-2.7552,-2.9083,-3.0946,-3.1692,-3.2112,-3.2587,-3.2669,-3.2669,-3.2669,-3.2669,-3.2669,-3.2669,-3.2669,-3.2669,-3.2669,-3.2669,-3.2669,-3.2669,-3.2669,-3.2669,-3.2669,-3.2669,-3.2612,-3.2305,-3.2305,-3.196,-3.1325,-3.1879,-3.2209,-3.2229,-3.2988,-3.3418,-3.3418,-3.3418,-3.3418,-3.3418,-3.3418,-3.3418,-3.3418,-3.3418,-3.3418,-3.3496,-3.4336,-3.4687,-3.4785,-3.5664,-3.5519,-3.4784,-3.3572,-3.2648,-3.1894,-3.0693,-2.9838,-2.9194,-2.8763,-2.8202,-2.7492,-2.7144,-2.7232,-2.7481,-2.7495,-2.7964,-2.837,-2.837,-2.8681,-2.89,-2.89,-2.8915,-2.8759,-2.8382,-2.8216,-2.8011,-2.7625,-2.7171,-2.6814,-2.6814,-2.7054,-2.7241,-2.7241,-2.7241,-2.7241,-2.7241,-2.7241,-2.7241,-2.7241,-2.7241,-2.7241,-2.7241,-2.7241,-2.7241,-2.7241,-2.7241,-2.7241,-2.7255,-2.7535,-2.7696,-2.7696,-2.7989,-2.8221,-2.8221,-2.7575,-2.7295,-2.7295,-2.7295,-2.7295,-2.1242,0.0,0.0,0.0,0.0,0.0,-2.4325,-2.5937,-2.7759,-2.9932,-3.1008,-3.1795,-3.2582,-3.2669,-3.2669,-3.2669,-3.2669,-3.2669,-3.2669,-3.2669,-3.2669,-3.2669,-3.2669,-3.2669,-3.2669,-3.2669,-3.2669,-3.2669,-3.2669,-3.2669,-3.2612,-3.2211,-3.1672,-3.1054,-3.1465,-3.1855,-3.2229,-3.2695,-3.3125,-3.3418,-3.3418,-3.3418,-3.3418,-3.3418,-3.3418,-3.3418,-3.3418,-3.3418,-3.3457,-3.4023,-3.4434,-3.4766,-3.5332,-3.5268,-3.4627,-3.2718,-3.1525,-3.0622,-2.8635,-2.784,-2.7623,-2.7492,-2.7347,-2.7173,-2.7335,-2.7408,-2.7569,-2.8037,-2.83,-2.8491,-2.871,-2.9003,-2.9237,-2.9237,-2.9189,-2.9065,-2.8755,-2.8133,-2.7547,-2.7231,-2.677,-2.6507,-2.6507,-2.6573,-2.6627,-2.6627,-2.6627,-2.6627,-2.6627,-2.6627,-2.6627,-2.6627,-2.6627,-2.6627,-2.6627,-2.6627,-2.6627,-2.6627,-2.6627,-2.672,-2.6934,-2.7228,-2.7482,-2.7696,-2.7989,-2.8221,-2.8221,-2.806,-2.798,-2.798,-2.798,-2.798,-2.1453,-2.141,0.0,-2.1002,0.0,0.0,-2.2748,-2.4138,-2.5882,-2.8139,-2.929,-3.0263,-3.1381,-3.1588,-3.1588,-3.1588,-3.1754,-3.2085,-3.2587,-3.2669,-3.2669,-3.2669,-3.2669,-3.2669,-3.2669,-3.2669,-3.2669,-3.2669,-3.2669,-3.2669,-3.2555,-3.1903,-3.1441,-3.1054,-3.1348,-3.1641,-3.1894,-3.25,-3.293,-3.3164,-3.334,-3.3418,-3.3418,-3.3418,-3.3418,-3.3418,-3.3418,-3.3418,-3.3437,-3.3691,-3.416,-3.4746,-3.5215,-3.5172,-3.4627,-3.2718,-3.1384,-3.0321,-2.8202,-2.7347,-2.7202,-2.7056,-2.7086,-2.7232,-2.7422,-2.7671,-2.7964,-2.833,-2.8534,-2.8666,-2.8842,-2.9032,-2.9178,-2.8942,-2.8849,-2.8696,-2.8128,-2.7689,-2.7237,-2.7059,-2.6716,-2.6386,-2.6386,-2.6386,-2.6386,-2.6386,-2.6493,-2.6573,-2.6573,-2.668,-2.676,-2.676,-2.676,-2.676,-2.676,-2.676,-2.676,-2.676,-2.676,-2.6827,-2.7001,-2.7295,-2.7522,-2.7696,-2.7989,-2.8221,-2.8221,-2.8221,-2.8221,-2.8221,-2.8221,-2.8221,-2.2159,-2.2122,0.0,0.0,-2.1222,0.0,-2.1446,-2.2404,-2.3803,-2.5903,-2.6993,-2.8048,-2.9435,-2.9684,-2.9684,-2.9684,-3.0118,-3.0946,-3.2375,-3.2566,-3.2607,-3.2669,-3.2669,-3.2669,-3.2669,-3.2669,-3.2669,-3.2669,-3.2669,-3.2498,-3.219,-3.1614,-3.1267,-3.1267,-3.1368,-3.1465,-3.1523,-3.2324,-3.2754,-3.2793,-3.3223,-3.3418,-3.3418,-3.3418,-3.3418,-3.3418,-3.3418,-3.3418,-3.3418,-3.3476,-3.3965,-3.4746,-3.5156,-3.5201,-3.4765,-3.3294,-3.2088,-3.0889,-2.8907,-2.7985,-2.7623,-2.7129,-2.7217,-2.7481,-2.7525,-2.7949,-2.837,-2.8399,-2.8603,-2.873,-2.873,-2.873,-2.8651,-2.8275,-2.8211,-2.7976,-2.7189,-2.6953,-2.6953,-2.6953,-2.6623,-2.6386,-2.6386,-2.6386,-2.6386,-2.6386,-2.664,-2.6827,-2.6827,-2.7081,-2.7268,-2.7268,-2.7268,-2.7268,-2.7268,-2.7268,-2.7268,-2.7268,-2.7268,-2.7268,-2.7268,-2.7549,-2.7696,-2.7696,-2.7989,-2.8221,-2.8221,-2.8221,-2.8221,-2.8221,-2.8221,-2.8221,-2.411,-2.3796,-2.3242,-2.2743,0.0,0.0,-2.1037,-2.1611,-2.2603,-2.4138,-2.513,-2.6185,-2.76,-2.7849,-2.7849,-2.7849,-2.8483,-2.9622,-3.1381,-3.194,-3.2256,-3.2685,-3.2669,-3.2669,-3.2669,-3.2669,-3.2669,-3.2669,-3.2498,-3.2133,-3.1556,-3.1383,-3.1208,-3.0995,-3.1035,-3.1172,-3.1504,-3.2031,-3.2461,-3.2793,-3.3223,-3.3418,-3.3418,-3.3418,-3.3418,-3.3418,-3.3418,-3.3418,-3.3457,-3.3809,-3.4238,-3.4707,-3.4805,-3.5045,-3.5264,-3.3988,-3.3085,-3.2035,-2.9751,-2.8763,-2.8346,-2.7347,-2.7217,-2.7525,-2.7788,-2.8049,-2.8414,-2.8351,-2.8076,-2.7869,-2.7869,-2.7869,-2.7869,-2.779,-2.749,-2.7189,-2.7032,-2.6781,-2.6544,-2.6544,-2.6465,-2.6386,-2.6386,-2.6386,-2.6386,-2.6386,-2.664,-2.6827,-2.6827,-2.7081,-2.7268,-2.7268,-2.7268,-2.7268,-2.7268,-2.7268,-2.7268,-2.7268,-2.7268,-2.7268,-2.7268,-2.7549,-2.7696,-2.7696,-2.7989,-2.8221,-2.8221,-2.8221,-2.8221,-2.8221,-2.8221,-2.8221,-2.4725,-2.4478,-2.4013,-2.3423,0.0,0.0,0.0,-2.1239,-2.179,-2.2874,-2.3595,-2.4408,-2.5647,-2.5896,-2.5896,-2.5896,-2.6662,-2.7738,-2.9176,-3.0698,-3.1961,-3.2587,-3.2669,-3.2669,-3.2669,-3.2669,-3.2612,-3.2498,-3.2076,-3.1672,-3.1325,-3.117,-3.1054,-3.0898,-3.0898,-3.0996,-3.1211,-3.1855,-3.2285,-3.248,-3.3125,-3.3418,-3.3418,-3.3418,-3.3418,-3.3418,-3.3418,-3.3418,-3.3457,-3.3887,-3.4271,-3.4483,-3.4696,-3.4825,-3.4853,-3.4075,-3.3103,-3.1894,-3.0107,-2.9051,-2.8274,-2.7274,-2.7217,-2.7539,-2.7861,-2.8133,-2.8322,-2.8325,-2.7961,-2.7633,-2.7633,-2.7633,-2.7555,-2.7333,-2.7175,-2.6953,-2.6716,-2.6544,-2.6386,-2.6386,-2.6386,-2.6386,-2.6386,-2.6386,-2.6386,-2.6386,-2.676,-2.7041,-2.7041,-2.7428,-2.7792,-2.7792,-2.7792,-2.7792,-2.7792,-2.7792,-2.7792,-2.7792,-2.7792,-2.7792,-2.7792,-2.7843,-2.7923,-2.7923,-2.8154,-2.8221,-2.8221,-2.8221,-2.8221,-2.8221,-2.8221,-2.8221,0.0,0.0,0.0,0.0,0.0,-2.2806,0.0,0.0,0.0,-2.2204,-2.2459,-2.2898,-2.3826,-2.397,-2.397,-2.397,-2.4778,-2.5689,-2.6646,-2.8865,-3.0781,-3.2043,-3.2292,-3.2375,-3.2457,-3.254,-3.2452,-3.2248,-3.1592,-3.1245,-3.1208,-3.0995,-3.0898,-3.0898,-3.0898,-3.0898,-3.0898,-3.1738,-3.2229,-3.2187,-3.3027,-3.3355,-3.3292,-3.3292,-3.3292,-3.3228,-3.3228,-3.3287,-3.3384,-3.383,-3.3996,-3.389,-3.4298,-3.4338,-3.4094,-3.359,-3.2526,-3.1277,-3.0124,-2.9051,-2.8057,-2.7274,-2.7217,-2.7554,-2.7934,-2.8019,-2.8125,-2.8182,-2.7805,-2.7398,-2.7398,-2.7398,-2.7333,-2.6939,-2.6874,-2.6795,-2.6465,-2.6386,-2.6386,-2.6386,-2.6386,-2.6386,-2.6386,-2.6386,-2.6386,-2.6386,-2.6841,-2.7201,-2.7255,-2.7736,-2.8167,-2.8221,-2.8221,-2.8221,-2.8221,-2.8221,-2.8221,-2.8221,-2.8221,-2.8221,-2.8221,-2.8221,-2.8221,-2.8221,-2.8221,-2.8221,-2.8221,-2.8221,-2.8221,-2.8221,-2.8221,-2.8221,0.0,0.0,0.0,0.0,-2.5261,0.0,0.0,0.0,-2.2901,-2.2416,0.0,-2.2115,-2.2081,0.0,0.0,-2.2108,-2.2894,-2.3805,-2.4673,-2.5813,-2.7448,-2.9994,-3.0677,-3.1071,-3.1485,-3.1878,-3.201,-3.1883,-3.1425,-3.11,-3.0918,-3.0898,-3.0898,-3.0898,-3.0898,-3.0898,-3.0898,-3.1738,-3.2229,-3.2187,-3.3027,-3.3228,-3.2994,-3.2994,-3.2785,-3.2485,-3.2485,-3.2758,-3.3055,-3.3538,-3.3356,-3.2848,-3.3156,-3.3276,-3.3206,-3.2141,-3.1437,-3.0801,-2.9679,-2.8963,-2.8418,-2.7347,-2.7217,-2.7583,-2.8198,-2.7879,-2.7361,-2.7642,-2.7175,-2.6544,-2.6544,-2.6544,-2.6544,-2.6465,-2.6465,-2.6465,-2.6386,-2.6386,-2.6386,-2.6386,-2.6386,-2.6386,-2.6386,-2.6386,-2.6386,-2.6386,-2.6667,-2.6961,-2.7228,-2.7549,-2.7856,-2.8194,-2.8221,-2.8221,-2.8221,-2.8221,-2.8221,-2.8221,-2.8221,-2.8221,-2.8221,-2.8221,-2.8221,-2.8221,-2.8221,-2.8221,-2.8221,-2.8221,-2.8221,-2.8221,-2.8221,-2.8221,0.0,0.0,0.0,0.0,0.0,0.0,-2.4238,0.0,-2.332,0.0,0.0,0.0,0.0,0.0,0.0,0.0,-2.2356,-2.3018,-2.366,-2.4302,-2.5671,-2.811,-2.9042,-2.987,-3.0884,-3.1031,-3.1157,-3.1284,-3.0786,-3.0548,-3.0699,-3.0858,-3.0898,-3.0898,-3.0898,-3.0898,-3.0898,-3.1738,-3.2229,-3.2187,-3.3027,-3.3228,-3.2848,-3.2256,-3.179,-3.1423,-3.0825,-3.0734,-3.1127,-3.1586,-3.1572,-3.1254,-3.0973,-3.1301,-3.1807,-3.1101,-3.0463,-2.9894,-2.9194,-2.8547,-2.7943,-2.7423,-2.7495,-2.7832,-2.83,-2.8178,-2.7792,-2.767,-2.7175,-2.6702,-2.6465,-2.6386,-2.6386,-2.6386,-2.6386,-2.6386,-2.6386,-2.6386,-2.6386,-2.6386,-2.6386,-2.6386,-2.6386,-2.6386,-2.6386,-2.6386,-2.664,-2.6867,-2.6987,-2.7415,-2.7749,-2.7869,-2.8043,-2.8221,-2.8221,-2.8221,-2.8221,-2.8221,-2.8221,-2.8221,-2.8221,-2.8221,-2.8221,-2.8221,-2.8221,-2.8221,-2.8221,-2.8221,-2.8221,-2.8221,-2.8221,-2.8221,-2.8825,0.0,0.0,0.0,0.0,0.0,0.0,0.0,0.0,0.0,0.0,0.0,0.0,0.0,0.0,0.0,0.0,-2.2418,-2.277,-2.2998,-2.3971,-2.6248,-2.7531,-2.8731,-2.9994,-2.9982,-3.0032,-3.0384,-2.9768,-2.96,-3.0105,-3.0388,-3.0586,-3.0703,-3.082,-3.0898,-3.0898,-3.1738,-3.2229,-3.2187,-3.3027,-3.3165,-3.274,-3.1662,-3.0936,-3.0502,-2.9378,-2.9208,-2.9598,-2.9936,-3.0067,-2.9959,-2.9297,-2.9465,-3.0036,-2.9624,-2.9122,-2.8619,-2.8346,-2.7913,-2.7464,-2.7511,-2.7642,-2.7891,-2.8315,-2.8284,-2.8097,-2.7855,-2.7412,-2.6953,-2.6623,-2.6465,-2.6386,-2.6386,-2.6386,-2.6386,-2.6386,-2.6386,-2.6386,-2.6386,-2.6386,-2.6386,-2.6386,-2.6386,-2.6386,-2.6386,-2.6573,-2.6734,-2.6814,-2.7188,-2.7522,-2.7682,-2.7896,-2.814,-2.8221,-2.8221,-2.8221,-2.8221,-2.8221,-2.8221,-2.8221,-2.8221,-2.8221,-2.8221,-2.8221,-2.8221,-2.8221,-2.8221,-2.8221,-2.8221,-2.8221,-2.8221,0.0,-3.0131,0.0,-2.8323,0.0,0.0,0.0,0.0,-2.5931,0.0,0.0,0.0,0.0,0.0,0.0,0.0,0.0,0.0,0.0,-2.1487,-2.2066,-2.4321,-2.6206,-2.7676,-2.8587,-2.864,-2.8809,-2.9112,-2.8387,-2.8209,-2.8887,-2.9375,-2.9805,-3.0215,-3.0644,-3.0898,-3.0898,-3.1738,-3.2229,-3.2187,-3.3027,-3.3038,-3.2358,-3.1277,-3.0437,-2.9739,-2.8674,-2.8626,-2.9303,-2.9319,-2.933,-2.9322,-2.8907,-2.8274,-2.7623,-2.7274,-2.7056,-2.7056,-2.7056,-2.7056,-2.7042,-2.7378,-2.7481,-2.7613,-2.8242,-2.8125,-2.7888,-2.8203,-2.7647,-2.7032,-2.6953,-2.6702,-2.6386,-2.6386,-2.6386,-2.6386,-2.6386,-2.6386,-2.6386,-2.6386,-2.6386,-2.6386,-2.6386,-2.6386,-2.6386,-2.6386,-2.64,-2.6507,-2.6787,-2.6841,-2.7068,-2.7642,-2.7709,-2.7829,-2.8207,-2.8221,-2.8221,-2.8221,-2.8221,-2.8221,-2.8221,-2.8221,-2.8221,-2.8221,-2.8221,-2.8221,-2.8221,-2.8221,-2.8221,-2.8221,-2.8221,-2.8221,-3.229,-3.1562,-3.0758,-3.0382,-2.9327,-2.8222,0.0,0.0,0.0,0.0,0.0,0.0,0.0,0.0,0.0,0.0,0.0,0.0,0.0,-2.1404,-2.1507,0.0,0.0,0.0,-2.6243,-2.6314,-2.6533,-2.7122,-2.6609,-2.6735,-2.7838,-2.8702,-2.9336,-2.9766,-3.0508,-3.0898,-3.0898,-3.1738,-3.2229,-3.2187,-3.3027,-3.3038,-3.2358,-3.0567,-2.9378,-2.8608,-2.6902,-2.6496,-2.7122,-2.7122,-2.7378,-2.7768,-2.7623,-2.742,-2.7202,-2.7056,-2.6983,-2.7027,-2.7232,-2.7305,-2.7393,-2.7934,-2.811,-2.8198,-2.8608,-2.8662,-2.8521,-2.8325,-2.8133,-2.774,-2.7189,-2.6874,-2.6702,-2.6465,-2.6386,-2.6386,-2.6386,-2.6386,-2.6386,-2.6386,-2.6386,-2.6386,-2.6386,-2.6386,-2.6386,-2.6386,-2.6386,-2.6426,-2.652,-2.6707,-2.6894,-2.7094,-2.7468,-2.7736,-2.7843,-2.8114,-2.8221,-2.8221,-2.8221,-2.8221,-2.8221,-2.8221,-2.8221,-2.8221,-2.8221,-2.8221,-2.8221,-2.8221,-2.8221,-2.8221,-2.8221,-2.8221,-3.3721,-3.3269,-3.2767,-3.239,-3.1336,-3.0156,-2.9202,-2.8887,-2.855,0.0,0.0,0.0,0.0,0.0,0.0,0.0,0.0,0.0,0.0,-2.13,0.0,0.0,0.0,0.0,0.0,-2.4611,-2.4779,-2.5295,-2.4922,-2.5225,-2.6527,-2.7695,-2.8628,-2.9316,-3.0351,-3.0957,-3.1113,-3.1816,-3.2185,-3.2218,-3.2898,-3.2721,-3.1782,-2.9917,-2.8675,-2.7945,-2.6027,-2.5593,-2.6193,-2.6193,-2.65,-2.6983,-2.6983,-2.6983,-2.6983,-2.6983,-2.6983,-2.7042,-2.7364,-2.7481,-2.7583,-2.8227,-2.8432,-2.8491,-2.8798,-2.8886,-2.8808,-2.8588,-2.8431,-2.8211,-2.7583,-2.7268,-2.6953,-2.6716,-2.6465,-2.6386,-2.6386,-2.6386,-2.6386,-2.6386,-2.6386,-2.6386,-2.6386,-2.6386,-2.6426,-2.6533,-2.6547,-2.6587,-2.6694,-2.6867,-2.7014,-2.7121,-2.7468,-2.7749,-2.7843,-2.8114,-2.8221,-2.8221,-2.8221,-2.8221,-2.8221,-2.8221,-2.8221,-2.8221,-2.8221,-2.8221,-2.8221,-2.8221,-2.8221,-2.8221,-2.8221,-2.8221]},{"header":{"parameterUnit":"m.s-1","parameterCategory":1,"la1":30.6,"la2":29.2853,"lo1":-89.7004,"lo2":-87.6739,"dy":0.0162,"dx":0.0183,"nx":112,"ny":82,"refTime":"2026-04-18T00:00:00:Z","depth":0,"parameterNumber":3,"parameterNumberName":"V-component_of_WINDS"},"data":[0.0,0.0,0.0,0.0,0.0,0.0,0.0,0.0,0.0,0.0,0.0,0.0,0.0,0.0,0.0,0.0,0.0,0.0,0.0,0.0,0.0,0.0,0.0,0.0,0.0,0.0,0.0,0.0,0.0,0.0,0.0,0.0,0.0,0.0,0.0,0.0,0.0,0.0,0.0,0.0,0.0,0.0,0.0,0.0,0.0,0.0,0.0,0.0,0.0,0.0,0.0,0.0,0.0,0.0,0.0,0.0,0.0,0.0,0.0,0.0,0.0,0.0,0.0,0.0,0.0,0.0,0.0,0.0,0.0,0.0,0.0,0.0,0.0,0.0,0.0,0.0,0.0,0.0,0.0,0.0,0.0,0.0,0.0,0.0,0.0,0.0,0.0,0.0,0.0,0.0,0.0,3.7865,4.2701,4.5019,4.3408,4.1687,3.9352,3.6182,0.0,0.0,0.0,0.0,0.0,0.0,0.0,0.0,0.0,0.0,0.0,0.0,0.0,0.0,0.0,0.0,0.0,0.0,0.0,0.0,0.0,0.0,0.0,0.0,0.0,0.0,0.0,0.0,0.0,0.0,0.0,0.0,0.0,0.0,0.0,0.0,0.0,0.0,0.0,0.0,0.0,0.0,0.0,0.0,0.0,0.0,0.0,0.0,0.0,0.0,0.0,0.0,0.0,0.0,0.0,0.0,0.0,0.0,0.0,0.0,0.0,0.0,0.0,0.0,0.0,0.0,0.0,0.0,0.0,0.0,0.0,0.0,0.0,0.0,0.0,0.0,0.0,0.0,0.0,0.0,0.0,0.0,0.0,0.0,0.0,0.0,0.0,0.0,0.0,0.0,0.0,0.0,0.0,0.0,0.0,0.0,0.0,0.0,0.0,0.0,0.0,0.0,0.0,0.0,3.6761,4.3353,4.6033,4.6685,4.5055,4.2846,4.0148,3.7031,0.0,0.0,0.0,0.0,0.0,0.0,0.0,0.0,0.0,0.0,0.0,0.0,0.0,0.0,0.0,0.0,0.0,0.0,0.0,0.0,0.0,0.0,0.0,0.0,0.0,0.0,0.0,0.0,0.0,0.0,0.0,0.0,0.0,0.0,0.0,0.0,0.0,0.0,0.0,0.0,0.0,0.0,0.0,0.0,0.0,0.0,0.0,0.0,0.0,0.0,0.0,0.0,0.0,0.0,0.0,0.0,0.0,0.0,0.0,0.0,0.0,0.0,0.0,0.0,0.0,0.0,0.0,0.0,0.0,0.0,0.0,0.0,0.0,0.0,0.0,0.0,0.0,0.0,0.0,0.0,0.0,0.0,0.0,0.0,0.0,0.0,0.0,0.0,0.0,0.0,0.0,0.0,0.0,0.0,0.0,0.0,0.0,0.0,0.0,0.0,0.0,0.0,0.0,3.6834,4.1506,4.6106,4.8025,4.817,4.6106,4.3751,4.0818,3.7212,3.2466,0.0,0.0,0.0,0.0,0.0,0.0,0.0,0.0,0.0,0.0,0.0,0.0,0.0,0.0,0.0,0.0,0.0,0.0,0.0,0.0,0.0,0.0,0.0,0.0,0.0,0.0,0.0,0.0,0.0,0.0,0.0,0.0,0.0,0.0,0.0,0.0,0.0,0.0,0.0,0.0,0.0,0.0,0.0,0.0,0.0,0.0,0.0,0.0,0.0,0.0,0.0,0.0,0.0,0.0,0.0,0.0,0.0,0.0,0.0,0.0,0.0,0.0,0.0,0.0,0.0,0.0,0.0,0.0,0.0,0.0,0.0,0.0,0.0,0.0,0.0,0.0,0.0,0.0,0.0,0.0,0.0,0.0,0.0,0.0,0.0,0.0,0.0,0.0,0.0,0.0,0.0,0.0,0.0,0.0,0.0,0.0,0.0,0.0,0.0,0.0,0.0,0.0,4.252,4.5997,4.8061,4.9546,4.9329,4.6721,4.4114,4.0926,3.6995,3.2212,0.0,0.0,0.0,0.0,0.0,0.0,0.0,0.0,0.0,0.0,0.0,0.0,0.0,0.0,0.0,0.0,0.0,0.0,0.0,0.0,0.0,0.0,0.0,0.0,0.0,0.0,0.0,0.0,0.0,0.0,0.0,0.0,0.0,0.0,0.0,0.0,0.0,0.0,0.0,0.0,0.0,0.0,0.0,0.0,0.0,0.0,0.0,0.0,0.0,0.0,0.0,0.0,0.0,0.0,0.0,0.0,0.0,0.0,0.0,0.0,0.0,0.0,0.0,0.0,0.0,0.0,0.0,0.0,0.0,0.0,0.0,0.0,0.0,0.0,0.0,0.0,0.0,0.0,0.0,0.0,0.0,0.0,0.0,0.0,0.0,0.0,0.0,0.0,0.0,0.0,0.0,0.0,0.0,0.0,0.0,0.0,0.0,0.0,0.0,0.0,0.0,0.0,4.5144,4.8931,4.9858,5.0728,4.9945,4.6757,4.3587,4.0112,3.613,3.1351,0.0,0.0,0.0,0.0,0.0,0.0,0.0,0.0,0.0,0.0,0.0,0.0,0.0,0.0,0.0,0.0,0.0,0.0,0.0,0.0,0.0,0.0,0.0,0.0,0.0,0.0,0.0,0.0,0.0,0.0,0.0,0.0,0.0,0.0,0.0,0.0,0.0,0.0,0.0,0.0,0.0,0.0,0.0,0.0,0.0,0.0,0.0,0.0,0.0,0.0,0.0,0.0,0.0,0.0,0.0,0.0,0.0,0.0,0.0,0.0,0.0,0.0,0.0,0.0,0.0,0.0,0.0,0.0,0.0,0.0,0.0,0.0,0.0,0.0,0.0,0.0,0.0,0.0,0.0,0.0,0.0,0.0,0.0,0.0,0.0,0.0,0.0,0.0,0.0,0.0,0.0,0.0,0.0,0.0,0.0,0.0,0.0,0.0,0.0,0.0,0.0,0.0,4.5703,4.922,0.0,5.1249,5.0741,4.7518,4.4765,4.1289,3.6834,0.0,0.0,0.0,0.0,0.0,0.0,0.0,0.0,0.0,0.0,0.0,0.0,0.0,0.0,0.0,0.0,0.0,0.0,0.0,0.0,0.0,0.0,0.0,0.0,0.0,0.0,0.0,0.0,0.0,0.0,0.0,0.0,0.0,0.0,0.0,0.0,0.0,0.0,0.0,0.0,0.0,0.0,0.0,0.0,0.0,0.0,0.0,0.0,0.0,0.0,0.0,0.0,0.0,0.0,0.0,0.0,0.0,0.0,0.0,0.0,0.0,0.0,0.0,0.0,0.0,0.0,0.0,0.0,0.0,0.0,0.0,0.0,0.0,0.0,0.0,0.0,0.0,0.0,0.0,0.0,0.0,0.0,0.0,0.0,0.0,0.0,0.0,0.0,0.0,0.0,0.0,0.0,0.0,0.0,0.0,0.0,0.0,0.0,0.0,0.0,0.0,0.0,4.1377,4.6478,4.9872,0.0,5.1466,5.0814,4.7591,4.5091,4.1687,3.6922,0.0,0.0,0.0,0.0,0.0,0.0,0.0,0.0,0.0,0.0,0.0,0.0,0.0,0.0,0.0,0.0,0.0,0.0,0.0,0.0,0.0,0.0,0.0,0.0,0.0,0.0,0.0,0.0,0.0,0.0,0.0,0.0,0.0,0.0,0.0,0.0,0.0,0.0,0.0,0.0,0.0,0.0,0.0,0.0,0.0,0.0,0.0,0.0,0.0,0.0,0.0,0.0,0.0,0.0,0.0,0.0,0.0,0.0,0.0,0.0,0.0,0.0,0.0,0.0,0.0,0.0,0.0,0.0,0.0,0.0,0.0,0.0,0.0,0.0,0.0,0.0,0.0,0.0,0.0,0.0,0.0,0.0,0.0,0.0,0.0,0.0,0.0,0.0,0.0,0.0,0.0,0.0,0.0,0.0,0.0,0.0,0.0,0.0,0.0,0.0,0.0,0.0,4.2188,4.7781,5.1285,5.1285,5.1285,4.9981,4.6757,4.4295,4.089,0.0,0.0,0.0,0.0,0.0,0.0,0.0,0.0,0.0,0.0,0.0,0.0,0.0,0.0,0.0,0.0,0.0,0.0,0.0,0.0,0.0,0.0,0.0,0.0,0.0,0.0,0.0,0.0,0.0,0.0,0.0,0.0,0.0,0.0,0.0,0.0,0.0,0.0,0.0,0.0,0.0,0.0,0.0,0.0,0.0,0.0,0.0,0.0,0.0,0.0,0.0,0.0,0.0,0.0,0.0,0.0,0.0,0.0,0.0,0.0,0.0,0.0,0.0,0.0,0.0,0.0,0.0,0.0,0.0,0.0,0.0,0.0,0.0,0.0,0.0,0.0,0.0,0.0,0.0,0.0,0.0,0.0,0.0,0.0,0.0,0.0,0.0,0.0,0.0,0.0,0.0,0.0,0.0,0.0,0.0,0.0,0.0,0.0,0.0,0.0,0.0,0.0,0.0,4.2729,4.7831,5.0816,5.024,5.0741,4.9848,4.6633,4.5269,4.2556,3.7775,0.0,0.0,0.0,0.0,0.0,0.0,0.0,0.0,0.0,0.0,0.0,0.0,0.0,0.0,0.0,0.0,0.0,0.0,0.0,0.0,0.0,0.0,0.0,0.0,0.0,0.0,0.0,0.0,0.0,0.0,0.0,0.0,0.0,0.0,0.0,0.0,0.0,0.0,0.0,0.0,0.0,0.0,0.0,0.0,0.0,0.0,0.0,0.0,0.0,0.0,0.0,0.0,0.0,0.0,0.0,0.0,0.0,0.0,0.0,0.0,0.0,0.0,0.0,0.0,0.0,0.0,0.0,0.0,0.0,0.0,0.0,0.0,0.0,0.0,0.0,0.0,0.0,0.0,0.0,0.0,0.0,0.0,0.0,0.0,0.0,0.0,0.0,0.0,0.0,0.0,0.0,0.0,0.0,0.0,0.0,0.0,0.0,0.0,0.0,0.0,0.0,0.0,4.3313,4.7908,5.0581,5.0162,5.0099,4.905,4.6498,4.5683,4.3281,3.8517,0.0,0.0,0.0,0.0,0.0,0.0,0.0,0.0,0.0,0.0,0.0,0.0,0.0,0.0,0.0,0.0,0.0,0.0,0.0,0.0,0.0,0.0,0.0,0.0,0.0,0.0,0.0,0.0,0.0,0.0,0.0,0.0,0.0,0.0,0.0,0.0,0.0,0.0,0.0,0.0,0.0,0.0,0.0,0.0,0.0,0.0,0.0,0.0,0.0,0.0,0.0,0.0,0.0,0.0,0.0,0.0,0.0,0.0,0.0,0.0,0.0,0.0,0.0,0.0,0.0,0.0,0.0,0.0,0.0,0.0,0.0,0.0,0.0,0.0,0.0,0.0,0.0,0.0,0.0,0.0,0.0,0.0,0.0,0.0,0.0,0.0,0.0,0.0,0.0,0.0,0.0,0.0,0.0,0.0,0.0,0.0,0.0,0.0,0.0,0.0,0.0,0.0,4.3792,4.8069,5.0615,5.0665,4.9398,4.7967,4.6513,4.5678,4.3298,3.8664,0.0,0.0,0.0,0.0,0.0,0.0,0.0,0.0,0.0,0.0,0.0,0.0,0.0,0.0,0.0,0.0,0.0,0.0,0.0,0.0,0.0,0.0,0.0,0.0,0.0,0.0,0.0,0.0,0.0,0.0,0.0,0.0,0.0,0.0,0.0,0.0,0.0,0.0,0.0,0.0,0.0,0.0,0.0,0.0,0.0,0.0,0.0,0.0,0.0,0.0,0.0,0.0,0.0,0.0,0.0,0.0,0.0,0.0,0.0,0.0,3.3839,3.2652,0.0,0.0,0.0,0.0,0.0,0.0,0.0,0.0,0.0,0.0,0.0,0.0,0.0,0.0,0.0,0.0,0.0,0.0,0.0,0.0,0.0,0.0,0.0,0.0,0.0,0.0,0.0,0.0,0.0,0.0,0.0,0.0,0.0,0.0,0.0,0.0,0.0,0.0,0.0,0.0,4.3709,4.8327,5.0957,5.0443,4.9638,4.8542,4.7115,4.5809,4.3532,4.0004,3.6669,0.0,0.0,0.0,0.0,0.0,0.0,0.0,0.0,0.0,0.0,0.0,0.0,0.0,0.0,0.0,0.0,0.0,0.0,0.0,0.0,0.0,0.0,0.0,0.0,0.0,0.0,0.0,0.0,0.0,0.0,0.0,0.0,0.0,0.0,0.0,0.0,0.0,0.0,0.0,0.0,0.0,0.0,0.0,0.0,0.0,0.0,0.0,0.0,0.0,0.0,0.0,0.0,0.0,0.0,0.0,0.0,0.0,0.0,0.0,3.8156,3.6152,0.0,0.0,0.0,0.0,0.0,0.0,0.0,0.0,0.0,0.0,0.0,0.0,0.0,0.0,0.0,0.0,0.0,0.0,0.0,0.0,0.0,0.0,0.0,0.0,0.0,0.0,0.0,0.0,0.0,0.0,0.0,0.0,0.0,0.0,0.0,0.0,0.0,0.0,0.0,0.0,4.3472,4.7527,4.9976,5.0095,4.9511,4.8543,4.7153,4.6002,4.4047,4.0876,3.7414,0.0,0.0,0.0,0.0,0.0,0.0,0.0,0.0,0.0,0.0,0.0,0.0,0.0,0.0,0.0,0.0,0.0,0.0,0.0,0.0,0.0,0.0,0.0,0.0,0.0,0.0,0.0,0.0,0.0,0.0,0.0,0.0,0.0,0.0,0.0,0.0,0.0,0.0,0.0,0.0,0.0,0.0,0.0,0.0,0.0,0.0,0.0,0.0,0.0,0.0,0.0,0.0,0.0,4.71,4.7872,4.801,4.8631,4.8947,4.881,4.4,4.1458,4.0631,4.0042,0.0,0.0,0.0,0.0,0.0,0.0,0.0,0.0,0.0,0.0,0.0,0.0,0.0,0.0,0.0,0.0,0.0,0.0,0.0,0.0,0.0,0.0,4.2725,4.4277,4.4341,4.294,3.8986,0.0,0.0,0.0,0.0,0.0,0.0,0.0,0.0,0.0,0.0,0.0,4.3219,4.673,4.9064,5.0004,4.9472,4.8583,4.7453,4.6504,4.4741,4.1935,3.8365,3.5316,0.0,0.0,0.0,0.0,0.0,0.0,0.0,0.0,0.0,0.0,0.0,0.0,0.0,0.0,0.0,0.0,0.0,0.0,0.0,0.0,0.0,0.0,0.0,0.0,0.0,0.0,0.0,0.0,0.0,0.0,0.0,0.0,3.0069,3.1184,0.0,0.0,0.0,0.0,0.0,0.0,0.0,0.0,0.0,0.0,0.0,0.0,0.0,4.3843,4.6368,4.9267,5.1134,5.2004,5.2364,5.2839,5.346,5.3563,5.3977,5.4463,5.3087,0.0,4.5577,4.4811,0.0,0.0,0.0,0.0,0.0,0.0,0.0,0.0,0.0,0.0,0.0,0.0,0.0,0.0,0.0,0.0,0.0,0.0,0.0,0.0,0.0,0.0,4.7237,4.8931,4.9756,4.9639,4.783,4.4537,4.1394,3.9765,3.7622,3.5163,0.0,0.0,0.0,0.0,0.0,0.0,4.3289,4.7187,4.9908,5.085,5.0241,4.9755,4.967,4.7711,4.5774,4.4076,4.1691,3.9006,3.602,3.3476,0.0,0.0,0.0,0.0,0.0,0.0,0.0,0.0,0.0,0.0,0.0,0.0,0.0,0.0,0.0,0.0,0.0,0.0,0.0,0.0,0.0,0.0,0.0,0.0,0.0,0.0,0.0,0.0,0.0,3.0863,3.317,3.2533,3.3805,3.4287,0.0,0.0,0.0,0.0,0.0,0.0,0.0,0.0,0.0,4.3043,4.6007,4.8818,5.1327,5.4158,5.5961,5.6782,5.7261,5.7672,5.7981,5.7981,5.8152,5.8427,5.7672,5.5821,5.3043,4.9894,4.7079,4.4492,0.0,0.0,0.0,0.0,4.1423,4.2664,4.4182,4.3802,4.2457,4.1619,0.0,0.0,0.0,0.0,0.0,0.0,0.0,4.163,4.5251,4.7907,4.9907,5.1035,5.1642,5.18,5.1165,4.9284,4.6863,4.4034,4.159,3.8984,3.5893,3.2091,0.0,0.0,0.0,3.9259,4.3992,4.7573,5.0022,5.0884,5.0664,5.0304,4.9898,4.8498,4.7033,4.5599,4.3448,4.1268,3.9166,3.6107,3.3795,0.0,0.0,0.0,0.0,0.0,0.0,0.0,0.0,0.0,0.0,0.0,0.0,0.0,0.0,0.0,0.0,0.0,0.0,0.0,0.0,0.0,0.0,0.0,0.0,0.0,0.0,0.0,0.0,3.3835,3.6147,3.5075,3.6749,3.7427,0.0,0.0,0.0,0.0,0.0,0.0,4.3227,4.4479,4.6287,4.873,5.1028,5.3279,5.5577,5.7901,5.9411,6.0162,6.0708,6.1084,6.1292,6.1292,6.1292,6.1257,6.0469,5.9855,5.9003,5.4548,5.124,4.8764,4.6323,4.5222,4.505,4.505,4.6013,4.7498,4.9074,4.8971,4.8008,4.6839,4.4913,4.2643,4.058,0.0,0.0,0.0,0.0,4.5734,4.8217,5.0257,5.1873,5.2632,5.2896,5.2952,5.2779,5.2349,5.0945,4.7351,4.4918,4.2519,3.9403,3.5581,0.0,3.6417,0.0,4.0421,4.4762,4.7863,5.0022,5.0803,5.0873,5.0662,5.0057,4.9258,4.8221,4.6773,4.4788,4.2965,4.1421,3.8239,3.6053,3.4947,0.0,0.0,0.0,0.0,0.0,0.0,0.0,0.0,0.0,0.0,0.0,0.0,0.0,0.0,0.0,0.0,0.0,0.0,0.0,0.0,0.0,0.0,0.0,0.0,0.0,0.0,0.0,0.0,0.0,4.1051,4.1406,0.0,0.0,0.0,0.0,4.3758,4.5618,4.75,4.9726,5.0557,5.2054,5.4395,5.5665,5.7097,5.8727,5.9979,6.0947,6.1664,6.1736,6.2146,6.2863,6.2863,6.2863,6.2829,6.2043,6.1664,6.1394,5.8285,5.5244,5.2445,5.1626,5.0841,5.0127,5.0127,5.1114,5.265,5.4185,5.3741,5.2479,5.2411,4.9406,4.5521,4.3992,4.3134,0.0,0.0,4.6735,4.8217,5.1188,5.2632,5.346,5.4218,5.4391,5.4218,5.3494,5.3322,5.2447,4.959,4.7734,4.5683,4.2623,0.0,3.8812,3.976,4.0637,4.2381,4.5526,4.8163,5.0022,5.0803,5.0873,5.0873,5.0838,5.0127,4.9029,4.7618,4.6081,4.4256,4.2157,4.0531,3.8647,3.6433,3.4778,0.0,0.0,0.0,0.0,0.0,0.0,0.0,0.0,0.0,0.0,0.0,0.0,0.0,0.0,0.0,0.0,0.0,0.0,0.0,0.0,0.0,0.0,0.0,0.0,0.0,0.0,0.0,0.0,4.4966,4.6448,0.0,4.6945,4.5853,4.6308,4.9025,5.0893,5.2842,5.5062,5.5869,5.6915,5.8197,5.865,5.9366,6.0452,6.0909,6.1456,6.2208,6.2208,6.2343,6.2615,6.2615,6.2615,6.2581,6.1834,6.1456,6.1287,5.9251,5.7356,5.5519,5.3778,5.2925,5.2686,5.2686,5.3335,5.4426,5.545,5.545,5.4835,5.3845,5.1765,4.9479,4.846,4.7752,4.7517,4.8821,4.9865,5.0947,5.2563,5.3529,5.4184,5.446,5.4494,5.4322,5.3563,5.2632,5.1627,5.061,4.9982,4.8916,4.6842,4.4595,4.3202,4.3578,4.3895,4.4933,4.7203,4.9135,5.0441,5.0873,5.0873,5.0873,5.0873,5.0627,4.9846,4.8326,4.6745,4.5129,4.3456,4.1973,4.0395,3.8662,3.6631,3.4341,0.0,0.0,0.0,0.0,0.0,0.0,0.0,0.0,0.0,0.0,0.0,0.0,0.0,0.0,0.0,0.0,0.0,0.0,0.0,0.0,0.0,0.0,0.0,0.0,0.0,4.4188,4.8057,4.9259,5.0893,5.1826,5.1592,5.0893,5.1395,5.368,5.5168,5.6761,5.8558,5.9099,5.9607,6.008,6.0351,6.0757,6.1298,6.1535,6.1907,6.2381,6.2381,6.2381,6.2381,6.2381,6.2381,6.2347,6.1873,6.167,6.1569,6.0317,5.9143,5.8037,5.603,5.5247,5.5247,5.5247,5.5587,5.6098,5.6609,5.6779,5.6541,5.5315,5.4227,5.3274,5.256,5.2075,5.1856,5.2096,5.2666,5.3238,5.3513,5.4132,5.4647,5.4372,5.4574,5.4468,5.3194,5.1951,5.1045,5.0804,5.0735,5.0321,4.9016,4.7534,4.6493,4.6323,4.6368,4.6925,4.8398,4.9761,5.064,5.0757,5.0846,5.0768,5.0522,5.0487,4.982,4.8275,4.673,4.5315,4.4154,4.2657,4.135,4.0237,3.7718,3.5056,3.231,0.0,0.0,0.0,0.0,0.0,0.0,0.0,0.0,0.0,0.0,0.0,0.0,0.0,0.0,0.0,0.0,0.0,0.0,0.0,0.0,0.0,0.0,0.0,4.3562,4.7729,5.1529,5.3909,5.4704,5.5402,5.6322,5.5572,5.5776,5.7655,5.8362,5.9111,6.0042,6.008,6.0047,6.0047,6.0825,6.1231,6.1264,6.2009,6.2381,6.2381,6.2381,6.2381,6.2381,6.2381,6.2381,6.2381,6.2381,6.2381,6.2347,6.1603,6.0858,5.9979,5.849,5.7915,5.7881,5.7881,5.7881,5.7881,5.7881,5.7881,5.778,5.707,5.6833,5.6664,5.5919,5.5788,5.5757,5.4941,5.4872,5.4835,5.4151,5.4493,5.4835,5.4151,5.4693,5.4754,5.2489,5.1511,5.0873,5.0149,5.0011,4.9769,4.8982,4.8913,4.8672,4.7948,4.7948,0.0,4.9091,5.0035,5.062,5.0585,5.0757,5.0557,4.9776,4.9706,4.9012,4.7503,4.5958,4.4812,4.4119,4.2661,4.157,4.1019,3.8131,3.4842,3.1175,0.0,0.0,0.0,0.0,0.0,0.0,0.0,0.0,0.0,0.0,0.0,0.0,0.0,0.0,0.0,0.0,0.0,0.0,0.0,0.0,0.0,4.3323,4.6468,4.6962,5.1062,5.4651,5.6218,5.7599,5.8509,5.8595,5.8001,5.8278,5.9717,5.9598,5.9612,5.9886,5.9494,5.9066,5.8524,5.9235,5.9911,6.0419,6.1738,6.2381,6.2381,6.2381,6.2381,6.2381,6.2381,6.2381,6.2381,6.2381,6.2381,6.2347,6.1603,6.1163,6.0825,5.9302,5.8355,5.7881,5.7881,5.7881,5.7881,5.7881,5.7881,5.7848,5.7645,5.7239,5.6664,5.5919,5.5042,5.4193,5.3445,5.2963,5.2782,5.3092,5.3331,5.3604,5.3912,5.4282,5.407,5.2351,5.1098,5.0252,5.0045,5.0011,5.0114,5.0395,5.139,5.1873,5.105,5.1006,5.0927,5.0726,5.0951,5.0989,5.0655,5.064,5.0414,4.975,4.9706,4.9012,4.7503,4.5958,4.4753,4.4003,4.3019,4.2057,4.1089,3.8798,3.6636,0.0,0.0,0.0,0.0,0.0,0.0,0.0,0.0,0.0,0.0,0.0,0.0,0.0,0.0,0.0,0.0,0.0,0.0,0.0,0.0,0.0,0.0,4.7309,5.0625,5.2192,5.5038,5.739,5.8562,5.9734,6.0476,6.0437,6.0035,6.0175,6.1006,6.0711,6.0248,5.9722,5.9098,5.8399,5.7695,5.8366,5.9107,5.9847,6.1329,6.2183,6.2229,6.2229,6.2302,6.2381,6.2381,6.2381,6.2381,6.2381,6.2381,6.2347,6.1941,6.1569,6.1197,0.0,0.0,0.0,0.0,5.8795,5.8761,5.8457,5.8355,5.8321,5.7983,5.7611,5.707,5.6021,5.494,5.3821,5.2397,5.1577,5.1196,5.1605,5.2456,5.3172,5.3273,5.436,5.4765,5.2304,5.1291,5.0651,4.9997,5.0194,0.0,5.1459,5.2597,5.3149,5.2291,5.2188,5.1972,5.1302,5.1286,5.109,5.0495,5.053,5.036,4.967,4.9372,0.0,0.0,0.0,4.4871,4.4175,4.3851,0.0,0.0,0.0,0.0,0.0,3.8839,0.0,0.0,3.5197,3.6762,0.0,0.0,0.0,0.0,0.0,0.0,0.0,0.0,0.0,0.0,0.0,0.0,0.0,0.0,0.0,0.0,5.1076,5.4298,5.7614,5.8806,5.9725,6.0558,6.1106,6.1465,6.1628,6.1439,6.1399,6.1628,6.1399,6.0731,5.9522,5.8791,0.0,0.0,0.0,5.8763,5.946,6.0973,6.179,6.1957,6.1997,6.2116,6.2341,6.2381,6.2381,6.2381,6.2381,6.2381,6.2381,6.2381,6.2009,6.1332,6.0452,6.0114,6.0114,6.0114,6.0114,5.9979,5.9268,0.0,0.0,5.8118,5.7881,5.7611,5.6156,5.5141,5.4025,5.1826,5.0608,4.9999,5.0168,5.1792,5.3247,5.2706,5.4805,5.6029,5.2495,5.1965,5.1668,5.0257,5.0651,5.1429,5.2188,5.3011,5.3287,5.2567,5.2463,5.2188,5.1459,5.1474,5.1216,5.0414,5.053,0.0,4.9544,4.8916,4.8345,4.7749,4.6317,4.5244,4.472,4.4935,4.4827,4.4302,4.4564,4.4233,4.3217,4.3328,4.3804,4.4589,4.1176,4.1354,0.0,0.0,0.0,0.0,0.0,0.0,0.0,0.0,0.0,0.0,0.0,0.0,0.0,0.0,0.0,4.9414,5.2877,5.5729,5.762,5.9503,6.0804,6.0978,6.1235,6.1342,6.121,6.0769,6.071,6.1177,6.0769,6.0158,5.9291,5.8714,5.8055,5.7319,5.8021,5.8758,5.946,6.0973,6.1709,6.175,6.1917,0.0,6.2076,6.2302,6.2381,6.2381,6.2381,6.2381,6.2381,6.2381,6.2313,6.2042,6.0655,6.0114,6.0114,6.0114,6.0114,5.9979,5.9268,5.9032,5.8896,5.8118,5.7881,5.7611,5.6156,5.4769,0.0,5.1658,5.0236,4.9492,5.0676,5.1758,5.2807,5.389,5.5212,5.5689,5.3717,5.3092,5.2595,5.1733,5.1787,5.2252,5.3046,5.3804,5.4253,5.408,5.408,5.3804,5.3046,5.2973,5.2481,5.1246,5.113,5.0661,4.9416,4.9226,4.8915,4.8345,4.7275,4.6458,4.5966,4.5578,4.5435,4.5553,4.6396,4.7109,4.767,4.8301,4.9098,4.9821,4.5819,4.5358,0.0,0.0,0.0,0.0,0.0,0.0,0.0,0.0,0.0,0.0,0.0,4.0322,4.3717,0.0,4.8738,5.1601,5.4387,5.668,5.8138,5.9926,6.1119,6.1119,6.1169,6.121,6.1119,6.0837,6.0812,6.1086,6.0837,6.0388,5.9657,5.9006,5.848,5.808,5.8447,5.8979,5.9751,6.085,6.1458,6.1547,6.175,6.1877,6.1997,6.2268,6.2381,6.2381,6.2381,6.2381,6.2381,6.2381,6.2381,6.2313,6.1535,6.1231,6.1231,6.1231,6.1231,6.1129,6.0419,6.0148,6.0013,5.9235,5.8998,5.866,5.6833,5.548,5.4228,5.23,5.0947,5.0371,5.1454,5.2604,5.3653,5.4397,5.5786,5.6433,5.4568,5.4429,5.4318,5.322,5.3169,5.3494,5.3873,5.4253,5.4494,5.4494,5.4494,5.4253,5.3494,5.3391,5.2865,5.1424,5.146,5.115,5.0165,4.9978,4.9649,4.9036,4.8708,4.8482,4.8369,4.8231,4.8285,4.8495,4.903,4.9565,5.0153,5.0562,5.1193,5.1936,4.9858,4.9766,0.0,0.0,0.0,0.0,0.0,0.0,0.0,3.6909,3.7498,3.9219,4.1975,4.4731,4.6981,4.918,5.1364,5.3569,5.5512,5.721,5.8701,6.0191,6.1053,6.092,6.102,6.1119,6.1119,6.1119,6.1119,6.1119,6.1119,6.0854,6.0258,5.9661,5.933,5.933,5.933,5.9595,6.0225,6.0821,6.1169,6.1342,6.1588,6.179,6.1957,6.2263,6.2381,6.2381,6.2381,6.2381,6.2381,6.2381,6.2381,6.2381,6.2381,6.2381,6.2381,6.2381,6.2381,6.2279,6.1569,6.1298,6.1163,6.0351,6.0114,5.9708,5.7645,5.6494,5.548,5.3348,5.2232,5.1826,5.257,5.3788,5.4837,5.4972,5.6494,5.7374,5.5446,5.5655,5.5825,5.4459,5.4375,5.4494,5.4526,5.4557,5.4557,5.4494,5.4494,5.4287,5.3701,5.3632,5.3142,5.1933,5.2079,5.2018,5.1457,5.1185,5.082,5.0342,5.034,5.0504,5.0723,5.0798,5.0979,5.1321,5.1545,5.1806,5.2048,5.2215,5.2604,5.3235,5.3235,5.3533,2.8945,3.1685,3.5911,3.8613,3.9944,4.0819,0.0,4.1738,4.227,4.4744,4.6649,4.8666,5.1156,5.1934,5.2851,5.4804,5.5996,5.721,5.8701,6.0191,6.0854,6.0191,6.0721,6.1119,6.1119,6.1119,6.1119,6.1119,6.1119,6.1086,6.0986,6.092,6.0854,6.0854,6.0854,6.0887,6.0986,6.1053,6.1119,6.1127,6.1539,6.1709,6.175,6.2183,6.2381,6.2381,6.2381,6.2381,6.2381,6.2381,6.2381,6.2381,6.2381,6.2381,6.2381,6.2381,6.2381,6.2279,6.1569,6.1298,6.1163,6.0351,6.0114,5.981,5.8254,5.7273,5.6359,5.4769,5.3822,5.3416,5.416,5.4972,5.575,5.6393,5.7239,5.7645,5.6731,5.6369,5.5962,5.5143,5.472,5.456,5.4717,5.4873,5.4838,5.4526,5.4494,5.4494,5.4391,5.4391,5.4171,5.3575,5.376,5.3838,5.3654,5.3186,5.299,5.3157,5.2045,5.1563,5.1912,5.1253,5.1276,5.2168,5.287,5.3592,5.4351,5.5053,5.5422,5.5533,5.5533,5.5303,3.3537,3.5862,3.9242,4.2366,4.4481,4.6022,4.6756,4.7241,4.7991,4.9604,5.1727,5.3465,5.4104,5.4607,5.5183,5.5963,5.6807,5.7707,5.8734,6.0191,6.0688,5.9496,5.9264,5.9363,5.9794,5.9827,5.9993,6.0423,6.0854,6.1119,6.1119,6.1119,6.1119,6.1119,6.1119,6.1119,6.1119,6.1119,6.1119,6.1119,6.1417,6.1588,6.1709,6.203,6.2229,6.2381,6.2381,6.2381,6.2381,6.2381,6.2381,6.2381,6.2381,6.2381,6.2381,6.2381,6.2381,6.2347,6.2042,6.1941,6.1873,6.1535,6.1434,6.1231,6.0182,5.9674,5.9099,5.7611,5.6934,5.6664,5.6528,5.6731,5.707,5.7374,5.7679,5.7679,5.6968,5.6775,5.6371,5.5145,5.5001,5.4982,5.4752,5.5018,5.5259,5.5319,5.5169,5.5083,5.5083,5.5083,5.4949,5.4635,5.4472,5.4418,5.4514,5.4351,5.4339,5.4504,5.3644,5.3207,5.3481,5.3171,5.3212,5.3682,5.4494,5.5048,5.5381,5.575,5.5897,5.5897,5.5897,5.6055,3.7341,3.9682,4.2518,4.5822,4.8356,5.0217,5.0848,5.1512,5.215,5.2894,5.4656,5.5984,5.5648,5.5885,5.6282,5.6879,5.7442,5.8138,5.9065,6.0291,6.0556,5.9065,5.8071,5.7641,5.7972,5.8369,5.8899,5.9628,6.0589,6.1119,6.1119,6.1119,6.1119,6.1119,6.1119,6.1119,6.1119,6.1119,6.1119,6.1119,6.1334,6.1465,6.1628,6.1877,6.215,6.2381,6.2381,6.2381,6.2381,6.2381,6.2381,6.2381,6.2381,6.2381,6.2381,6.2381,6.2381,6.2381,6.2381,6.2381,6.2381,6.2381,6.2381,6.2245,6.1535,6.1298,6.0994,5.9438,5.9032,5.8829,5.8084,5.7881,5.7881,5.7881,5.7881,5.7746,5.7205,5.7077,5.6812,5.5758,5.5548,5.546,5.5313,5.5483,5.578,5.609,5.6042,5.5901,5.5758,5.5786,5.5794,5.5749,5.5487,5.5462,5.574,5.558,5.5564,5.5633,5.4993,5.4649,5.4822,5.4785,5.4954,5.5296,5.5849,5.6255,5.6476,5.6476,5.6476,5.6476,5.6476,5.6873,3.859,4.1949,4.524,4.8467,5.0851,5.265,5.3553,5.364,5.3672,5.4086,5.4378,5.4792,5.545,5.5019,5.5289,5.7409,5.7773,5.8303,5.9761,6.0622,6.0556,5.9065,5.7608,5.6448,5.5747,5.7011,5.8138,5.8866,6.0291,6.1119,6.1119,6.1119,6.1119,6.1119,6.1119,6.1119,6.1119,6.1119,6.1119,6.1119,6.1334,6.1383,6.1424,6.1797,6.215,6.2381,6.2381,6.2381,6.2381,6.2381,6.2381,6.2381,6.2381,6.2381,6.2381,6.2381,6.2381,6.2381,6.2381,6.2381,6.2381,6.2381,6.2381,6.2245,6.1535,6.1298,6.0994,5.9438,5.9032,5.8829,5.8084,5.7881,5.7881,5.7881,5.7881,5.7881,5.7848,5.745,5.7188,5.7467,5.6598,5.6008,5.6616,5.6475,5.6366,5.6697,5.6984,5.6923,5.6357,5.6492,5.6757,5.7004,5.734,5.7606,5.7877,5.7203,5.6763,5.6763,5.6014,5.5537,5.5559,5.5559,5.5963,5.6712,5.6748,5.7152,5.7946,5.7946,5.7946,5.7946,5.7946,5.7992,4.0356,4.404,4.7489,4.9583,5.236,5.4623,5.4962,5.532,5.5386,5.4543,5.4452,5.446,5.4158,5.4721,5.5653,5.6879,5.8303,5.9429,5.9926,6.0622,6.039,5.8403,5.7276,5.5852,5.3699,5.4792,5.6117,5.7342,5.88,5.986,6.0357,6.0854,6.1119,6.1119,6.1119,6.1119,6.1119,6.1119,6.1119,6.1119,6.1334,6.1465,6.1588,6.1877,6.215,6.2381,6.2381,6.2381,6.2381,6.2381,6.2381,6.2381,6.2381,6.2381,6.2381,6.2381,6.2381,6.2381,6.2381,6.2381,6.2381,6.2381,6.2381,6.2347,6.211,6.2009,6.1806,6.0825,6.052,6.025,5.8964,5.8626,5.8524,5.8017,5.7881,5.7881,5.7881,5.7857,5.7767,5.7604,5.7657,5.7709,5.7848,5.822,5.828,5.7692,5.7363,5.7138,5.6923,5.7051,5.7227,5.7401,5.7607,5.781,5.7973,5.774,5.7593,5.7593,5.6859,5.6418,5.6418,5.6418,5.6528,5.6785,5.7336,5.774,5.7997,5.7997,5.7997,5.7997,5.7997,5.8065,4.2944,4.6343,4.9456,5.1401,5.3733,5.5648,5.5951,5.615,5.5885,5.4427,5.3533,5.2904,5.2705,5.3434,5.456,5.6051,5.8171,5.9694,5.996,6.0622,6.039,5.8403,5.7541,5.6051,5.34,5.3732,5.4527,5.5454,5.7111,5.8535,5.9562,6.0556,6.1119,6.1119,6.1119,6.1119,6.1119,6.1119,6.1119,6.1119,6.121,6.1424,6.1709,6.1837,6.207,6.2381,6.2381,6.2381,6.2381,6.2381,6.2381,6.2381,6.2381,6.2381,6.2381,6.2381,6.2381,6.2381,6.2381,6.2381,6.2381,6.2381,6.2381,6.2381,6.2381,6.2381,6.2245,6.1501,6.1298,6.096,5.9404,5.9032,5.8829,5.8084,5.7881,5.7881,5.7881,5.8063,5.8178,5.8119,5.8477,5.8822,5.8986,5.9204,5.9174,5.8537,5.7898,5.7352,5.7097,5.7352,5.7631,5.7703,5.7834,5.7904,5.7997,5.7997,5.7997,5.7997,5.7519,5.7226,5.7226,5.7226,5.7226,5.7226,5.774,5.7997,5.7997,5.7997,5.7997,5.7997,5.7997,5.8042,4.6346,4.8928,5.1332,5.3766,5.5043,5.5814,5.6481,5.6117,5.5118,5.3529,5.1512,5.022,5.0951,5.1083,5.2009,5.499,5.7376,5.9131,5.986,6.0622,6.0589,5.9131,5.8336,5.7044,5.4858,5.3964,5.3533,5.3533,5.5487,5.7342,5.8833,6.0291,6.1119,6.1119,6.1119,6.1119,6.1119,6.1119,6.1119,6.1119,6.1119,6.1293,6.1709,6.1709,6.1984,6.2381,6.2381,6.2381,6.2381,6.2381,6.2381,6.2381,6.2381,6.2381,6.2381,6.2381,6.2381,6.2381,6.2381,6.2381,6.2381,6.2381,6.2381,6.2381,6.2381,6.2381,6.2245,6.1535,6.1366,6.1028,5.9539,5.9133,5.893,5.8186,5.7983,5.7949,5.7949,5.8097,5.835,5.8909,5.9152,5.9436,6.0125,5.9621,5.9175,5.9294,5.8621,5.7776,5.6969,5.7519,5.7997,5.7997,5.7997,5.7997,5.7997,5.7997,5.7997,5.7997,5.7997,5.7997,5.7997,5.7997,5.7997,5.7997,5.7997,5.7997,5.7997,5.7997,5.7997,5.7997,5.7997,5.7997,4.9682,5.2191,5.4439,5.5109,5.5847,5.6316,5.5984,5.5714,5.4721,5.1678,4.8829,4.7139,4.7868,4.8001,4.916,5.2638,5.6415,5.8966,5.9164,6.0291,6.0755,5.9827,5.9562,5.8568,5.6349,5.5487,5.5019,5.5019,5.6084,5.7342,5.8833,6.0291,6.1119,6.1119,6.1119,6.1119,6.1119,6.1119,6.1119,6.1119,6.1119,6.1293,6.1709,6.1709,6.1984,6.2381,6.2381,6.2381,6.2381,6.2381,6.2381,6.2381,6.2381,6.2381,6.2381,6.2381,6.2381,6.2381,6.2381,6.2381,6.2381,6.2381,6.2381,6.2381,6.2381,6.2381,6.2347,6.2178,6.211,6.1907,6.096,6.0723,6.052,5.9742,5.9133,5.8727,5.8727,5.8434,5.8385,5.9115,6.0203,6.1276,6.199,6.1432,6.0946,6.097,5.9795,5.8621,5.7813,5.7886,5.7997,5.7997,5.7997,5.7997,5.7997,5.7997,5.7997,5.7997,5.7997,5.7997,5.7997,5.7997,5.7997,5.7997,5.7997,5.7997,5.7997,5.7997,5.7997,5.7997,5.7997,5.7997,5.2208,5.4129,5.5648,5.6017,5.615,5.6017,5.5322,5.4394,5.287,4.9856,4.6378,4.4291,4.5682,4.5914,4.7239,5.1282,5.5289,5.8038,5.8369,5.9131,5.9496,5.9065,5.9032,5.8403,5.6846,5.6614,5.6581,5.6581,5.6647,5.7342,5.8833,6.0291,6.1119,6.1119,6.1119,6.1119,6.1119,6.1119,6.1119,6.1119,6.1119,6.1293,6.1709,6.1709,6.1984,6.2381,6.2381,6.2381,6.2381,6.2381,6.2381,6.2381,6.2381,6.2381,6.2381,6.2381,6.2381,6.2381,6.2381,6.2381,6.2381,6.2381,6.2381,6.2381,6.2381,6.2381,6.2381,6.2381,6.2381,6.2212,6.1501,6.1298,6.1095,6.0283,5.9776,5.9404,5.9211,5.895,5.9044,5.9844,6.0921,6.1933,6.2679,6.2144,6.1594,6.1594,6.0529,5.9465,5.8621,5.8217,5.7997,5.7997,5.7997,5.7997,5.7997,5.7997,5.7997,5.7997,5.7997,5.7997,5.7997,5.7997,5.7997,5.7997,5.7997,5.7997,5.7997,5.7997,5.7997,5.7997,5.7997,5.818,5.4162,5.5152,5.5885,5.6415,5.6084,5.5317,5.4328,5.2407,5.0154,4.7769,4.3761,4.1409,4.3694,4.4191,4.5715,5.0288,5.4129,5.6779,5.7409,5.7574,5.7641,5.7641,5.774,5.7574,5.7044,5.774,5.8237,5.8237,5.7641,5.7806,5.8966,6.0357,6.1119,6.1119,6.1119,6.1119,6.1119,6.1119,6.1119,6.1119,6.1119,6.1293,6.1709,6.1709,6.1984,6.2381,6.2381,6.2381,6.2381,6.2381,6.2381,6.2381,6.2381,6.2381,6.2381,6.2381,6.2381,6.2381,6.2381,6.2381,6.2381,6.2381,6.2381,6.2381,6.2381,6.2381,6.2381,6.2381,6.2381,6.2245,6.1603,6.1467,6.1264,6.0554,6.0355,6.0156,5.9698,5.9754,6.0047,6.0818,6.1394,6.196,6.2679,6.2218,6.1741,6.1741,6.108,6.0346,5.9735,5.8804,5.8107,5.7997,5.7997,5.7997,5.7997,5.8107,5.8143,5.8143,5.8253,5.8327,5.8327,5.8327,5.8327,5.8327,5.8327,5.8327,5.8327,5.8327,5.8327,5.8327,5.8327,5.8694,5.5284,5.5951,5.6382,5.5918,5.5681,5.4957,5.2407,5.0154,4.7603,4.4161,3.9984,3.7798,4.0641,4.1607,4.3628,4.8663,5.3036,5.5852,5.5984,5.6514,5.6879,0.0,5.7409,5.7972,5.8469,5.9728,6.0523,6.0523,6.0423,6.0191,5.9827,6.0622,6.1119,6.1119,6.1119,6.1119,6.1119,6.1119,6.1119,6.1119,6.1119,6.1293,6.1709,6.1709,6.1984,6.2381,6.2381,6.2381,6.2381,6.2381,6.2381,6.2381,6.2381,6.2381,6.2381,6.2381,6.2381,6.2381,6.2381,6.2381,6.2381,6.2381,6.2381,6.2381,6.2381,6.2381,6.2381,6.2381,6.2381,6.2347,6.2245,6.2212,6.2178,6.2009,6.1656,6.1333,6.1351,6.1119,6.0979,6.127,6.1684,6.2132,6.2705,6.2695,6.2585,6.2585,6.1924,6.1594,6.2108,6.0285,5.8767,5.807,5.7997,5.7997,5.7997,5.8621,5.8964,5.8964,5.9612,5.9979,5.9979,5.9979,5.9979,5.9979,5.9979,5.9979,5.9979,5.9979,5.9979,5.9979,5.9979,6.0052,5.5984,5.6415,5.6514,5.5747,5.4759,5.3232,5.0648,4.744,4.4141,4.121,3.7451,3.5498,3.8117,3.8897,4.0978,4.6477,5.0121,5.2735,5.4225,5.446,5.4725,5.5487,5.6216,5.7111,5.8204,6.0026,6.1119,6.1119,6.1119,6.0953,6.0589,6.092,6.1119,6.1119,6.1119,6.1119,6.1119,6.1119,6.1119,6.1119,6.1119,6.1293,6.1709,6.1709,6.1984,6.2381,6.2381,6.2381,6.2381,6.2381,6.2381,6.2381,6.2381,6.2381,6.2381,6.2381,6.2381,6.2381,6.2381,6.2381,6.2381,6.2381,6.2381,6.2381,6.2381,6.2381,6.2381,6.2381,6.2381,6.242,6.2498,6.2537,6.2615,6.2808,6.2647,6.2465,6.2502,6.2182,6.1869,6.2134,6.2195,6.2318,6.273,6.278,6.278,6.278,6.2475,6.2218,6.2181,6.1153,6.0309,5.9905,5.9501,5.9245,5.9245,5.9612,5.9808,5.9808,6.0199,6.0419,6.0419,6.0419,6.0419,6.0419,6.0419,6.0419,6.0419,6.0419,6.0419,6.0419,6.0419,6.0639,5.6382,5.668,5.6448,5.5421,5.3533,5.1179,4.8331,4.4216,4.0291,3.8073,3.4996,3.3374,3.5498,3.6307,3.8427,4.3959,4.6974,4.9525,5.2142,5.2274,5.2572,5.3699,5.4759,0.0,5.7409,5.9694,6.1119,6.1119,6.1119,6.1119,6.1119,6.1119,6.1119,6.1119,6.1119,6.1119,6.1119,6.1119,6.1119,6.1119,6.1119,6.1293,6.1709,6.1709,6.1984,6.2381,6.2381,6.2381,6.2381,6.2381,6.2381,6.2381,6.2381,6.2381,6.2381,6.2381,6.2381,6.2381,6.2381,6.2381,6.2381,6.2381,6.2381,6.2381,6.2381,6.2381,6.2381,6.2381,6.2381,6.242,6.2649,6.277,6.2966,6.3528,6.3658,6.3619,6.3578,6.3302,6.3105,6.3334,6.3157,6.3048,6.3305,6.3209,6.3099,6.3099,6.289,6.2658,6.2181,6.1961,6.1924,6.2108,6.108,6.0419,6.0419,6.0566,6.0676,6.0676,6.0823,6.0933,6.0933,6.0933,6.0933,6.0933,6.0933,6.0933,6.0933,6.0933,6.0933,6.0933,6.0933,6.1263,5.6647,5.668,5.6183,5.4129,5.2009,4.9258,4.4807,4.0206,3.6208,3.3939,3.1672,3.066,3.2318,3.3975,3.6572,4.1077,4.4787,4.7669,4.926,5.0585,5.1448,5.158,0.0,0.0,5.6647,5.9396,6.1119,6.1119,6.1119,6.1119,6.1119,6.1119,6.1119,6.1119,6.1119,6.1119,6.1119,6.1119,6.1119,6.1119,6.1119,6.1293,6.1709,6.1709,6.1984,6.2381,6.2381,6.2381,6.2381,6.2381,6.2381,6.2381,6.2381,6.2381,6.2381,6.2381,6.2381,6.2381,6.2381,6.2381,6.2381,6.2381,6.2381,6.2381,6.2381,6.2381,6.2381,6.2381,6.2381,6.242,6.2649,6.308,6.3643,6.4532,6.4872,6.4992,6.4849,6.4933,6.5005,6.4904,6.4882,6.4898,6.5055,6.4457,6.398,6.398,6.3319,6.3062,6.3759,6.3172,6.2989,6.3796,6.1777,6.0419,6.0419,6.108,6.1484,6.1484,6.2181,6.256,6.256,6.256,6.256,6.256,6.256,6.256,6.256,6.256,6.256,6.256,6.256,6.2622,5.5595,5.6272,5.615,5.3849,5.0938,4.7506,4.319,3.8254,3.4034,3.2244,3.0646,2.9929,3.119,3.2262,3.422,3.8162,4.1143,4.3926,4.6709,4.8365,4.9624,5.0518,5.1777,5.3135,5.456,5.7376,5.9661,6.102,6.1119,6.1119,6.1119,6.1119,6.1119,6.1119,6.1119,6.1119,6.1119,6.1119,6.1119,6.1119,6.1119,6.1293,6.1709,6.1709,6.1984,6.2381,6.2381,6.2381,6.2381,6.2381,6.2381,6.2381,6.2381,6.2381,6.2381,6.2381,6.2381,6.2381,6.2381,6.2381,6.2381,6.2381,6.2381,6.2381,6.2381,6.2381,6.2381,6.2381,6.2381,6.2459,6.2808,6.3531,6.4428,6.5076,6.5572,6.5882,6.5929,6.5822,6.5702,6.5769,6.5474,6.5223,6.5275,6.464,6.409,6.409,6.3356,6.2952,6.3282,6.3025,6.2952,6.3282,6.2438,6.1851,6.1851,6.2144,6.2328,6.2328,6.2622,6.278,6.278,6.278,6.278,6.278,6.278,6.278,6.278,6.278,6.278,6.278,6.278,6.278,5.4306,5.5721,5.6079,5.3441,4.9772,4.5702,4.1329,3.6274,3.2132,3.0647,2.9816,2.9544,3.0338,3.0904,3.2409,3.5909,3.8129,4.068,4.4324,4.6477,4.8067,4.9094,5.0253,5.1446,5.2672,5.5819,5.8634,6.0622,6.0986,6.102,6.0788,6.0788,6.0887,6.1086,6.1119,6.1119,6.1119,6.1119,6.1119,6.1119,6.1127,6.1375,6.1709,6.175,6.1991,6.2381,6.2381,6.2381,6.2381,6.2381,6.2381,6.2381,6.2381,6.2381,6.2381,6.2381,6.2381,6.2381,6.2381,6.2381,6.2381,6.2381,6.2381,6.2381,6.2381,6.2381,6.2381,6.2381,6.2498,6.2731,6.3308,6.4182,6.5011,6.57,6.6177,6.6482,6.6655,6.651,6.6427,6.6619,6.6286,6.5999,6.5999,6.5338,6.4787,6.4787,6.409,6.3514,6.3514,6.3356,6.3172,6.3172,6.2952,6.278,6.278,6.278,6.278,6.278,6.278,6.278,6.278,6.278,6.278,6.278,6.278,6.278,6.278,6.278,6.278,6.278,6.278,6.2952,5.2916,5.5205,5.5908,5.2631,4.8382,4.375,3.8788,3.3889,3.0058,2.8713,2.8811,2.9166,2.9448,3.0044,3.1482,3.4452,3.6174,3.8427,4.2009,4.5052,4.6908,4.6941,4.8895,5.0518,5.1249,5.5222,5.8403,5.9893,6.0688,6.0788,6.0059,6.0026,6.0357,6.1086,6.1119,6.1119,6.1119,6.1119,6.1119,6.1119,6.1293,6.1506,6.1709,6.1917,6.215,6.2381,6.2381,6.2381,6.2381,6.2381,6.2381,6.2381,6.2381,6.2381,6.2381,6.2381,6.2381,6.2381,6.2381,6.2381,6.2381,6.2381,6.2381,6.2381,6.2381,6.2381,6.2381,6.2381,6.2693,6.323,6.4288,6.4908,6.5474,6.6548,6.6786,6.6874,6.7126,6.721,6.7294,6.7596,6.7687,6.7677,6.7677,6.699,6.6476,6.6476,6.5778,6.5264,6.5264,6.4567,6.409,6.409,6.3319,6.278,6.278,6.278,6.278,6.278,6.278,6.278,6.278,6.278,6.278,6.278,6.278,6.278,6.278,6.278,6.278,6.278,6.278,6.3282,4.8239,5.0834,5.216,4.8969,4.549,4.1566,3.6796,3.2822,2.9776,2.8511,2.8708,2.9166,2.9448,3.0457,3.1714,3.316,3.5048,3.7466,4.0613,4.3562,4.5947,4.7471,4.9591,5.1413,5.2605,5.4891,5.7342,5.9827,5.9761,5.9728,5.9993,5.9529,5.9363,5.9595,6.0092,6.0357,6.0357,6.0854,6.1169,6.1334,6.1342,6.1588,6.1917,6.1957,6.215,6.2381,6.2381,6.2381,6.2381,6.2381,6.2381,6.2381,6.2381,6.2381,6.2381,6.2381,6.2381,6.2381,6.2381,6.2381,6.2381,6.2381,6.2381,6.2381,6.2381,6.2381,6.242,6.2537,6.308,6.3716,6.4566,6.5176,6.5764,6.6608,6.6786,6.6874,6.7154,6.721,6.7294,6.7633,6.7687,6.7687,6.7687,6.7026,6.6512,6.6512,6.5815,6.5301,6.5301,6.4604,6.409,6.409,6.3319,6.278,6.278,6.278,6.278,6.278,6.278,6.278,6.278,6.278,6.278,6.278,6.278,6.278,6.278,6.278,6.3099,6.3686,6.3686,6.4127,4.2932,4.5704,4.7136,4.4477,4.1691,3.8558,3.4676,3.1549,2.9217,2.8332,2.8637,2.9261,2.9767,3.0794,3.1912,3.2928,3.4253,3.6307,3.9547,4.2469,4.5417,4.8465,5.0286,5.1744,5.2904,5.4593,5.6614,5.8999,5.8999,5.8966,5.9164,5.8734,5.8336,5.8071,5.9065,5.9595,5.9595,6.0373,6.0861,6.0984,6.1413,6.1756,6.1997,6.2076,6.2229,6.2381,6.2381,6.2381,0.0,6.2381,6.2381,6.2381,6.2381,6.2381,6.2381,6.2381,6.2381,6.2381,6.2381,6.2381,6.242,6.2498,6.2576,6.2615,6.2615,6.2576,6.2576,6.2889,6.342,6.4111,6.4974,6.5504,6.5985,6.6638,6.6786,6.6874,6.7154,6.721,6.7294,6.7633,6.7687,6.7687,6.7687,6.7283,6.6953,6.6953,6.6512,6.6219,6.6219,6.5485,6.5007,6.5007,6.4237,6.3734,6.3734,6.3147,6.278,6.278,6.278,6.278,6.278,6.3135,6.3282,6.3282,6.3613,6.3734,6.3734,6.3734,6.4016,6.4567,6.4861,6.5264,0.0,3.9977,4.1342,3.9503,3.74,3.5107,3.2525,3.0223,0.0,2.8116,2.8645,2.9474,3.0366,3.1208,3.221,3.3657,3.3955,3.5304,3.895,4.2137,4.5651,4.9922,5.1082,5.1812,5.2473,5.4394,5.6216,5.7674,5.8369,5.8469,5.7806,5.774,5.7409,5.6713,5.8045,5.8807,5.884,5.9771,6.0258,6.0365,6.1434,6.1929,6.2037,6.2302,6.2381,6.2381,6.2381,6.2381,6.2381,6.2381,6.2381,6.2381,6.2381,6.2381,6.2381,6.2381,6.2381,6.2381,6.2381,6.2381,6.242,6.2654,6.2885,6.3042,6.308,6.2962,6.2885,6.3383,6.3859,6.4428,6.5471,6.5891,6.6177,6.6668,6.6786,6.6874,6.7154,6.721,6.7294,6.7633,6.7687,6.7687,6.7687,6.7687,6.7687,6.7687,6.7687,6.7687,6.7687,6.699,6.6512,6.6512,6.5778,6.5301,6.5301,6.3844,6.2989,6.2989,6.2989,6.2989,6.2989,6.3759,6.42,6.42,6.4934,6.5301,6.5301,6.5301,6.5338,6.5411,6.6145,6.6512,2.9997,0.0,3.8216,3.6104,3.5028,3.3808,0.0,2.9584,2.8677,2.8424,2.9281,3.0241,3.0716,3.2161,3.3591,3.4485,3.5578,3.74,4.0481,4.5384,4.9623,5.234,5.3301,5.3831,5.3997,5.4953,5.6216,5.7674,5.7442,5.7376,5.7773,5.7243,5.6879,5.668,5.7166,5.7709,5.8274,5.9046,5.991,6.0763,6.1049,6.1571,6.2341,6.2381,6.2381,6.2381,6.2381,6.2381,6.2381,6.2381,6.2381,6.2381,6.2381,6.2381,6.2381,6.2381,6.2381,6.2381,6.2381,6.2381,6.2498,6.3083,6.3457,6.3714,6.4111,6.3897,6.3604,6.3895,6.4532,6.5311,6.5796,6.6141,6.6452,6.6727,6.6786,6.6874,6.7154,6.721,6.7294,6.7633,6.7687,6.7687,6.7687,6.7687,6.7687,6.7687,6.7687,6.7687,6.7687,6.699,6.6512,6.6512,6.5778,6.5301,6.5301,6.4934,6.4714,6.4714,6.4714,6.4714,6.4714,6.4934,6.5007,6.5007,6.5191,6.5301,6.5301,6.5301,6.5632,6.6219,6.6402,6.6843,2.778,3.0573,3.3142,3.1655,3.1422,3.1097,2.9368,2.8774,2.8583,2.8573,2.969,3.0808,3.1384,3.2754,3.4253,3.5678,3.687,3.9222,4.3794,4.8332,5.2009,5.4125,5.5057,5.5521,5.5521,5.5885,5.6448,5.7243,5.6912,5.6846,5.7276,5.6912,5.6586,5.6331,5.6782,5.7187,5.7586,5.8513,5.9275,5.991,6.0324,6.1013,6.1907,6.1907,6.2076,6.2381,6.2381,6.2381,6.2381,6.2381,6.2381,6.2381,6.2381,6.2381,6.2381,6.2381,6.2381,6.2381,6.2381,6.2498,6.2808,6.342,6.3859,6.4182,6.4739,6.4807,6.4704,6.4807,6.5242,6.5828,6.6269,6.6482,6.6668,6.6757,6.6786,6.6874,6.7154,6.721,6.7294,6.7633,6.7687,6.7687,6.7687,6.7687,6.7687,6.7687,6.7687,6.7687,6.7687,6.732,6.7026,6.7026,6.6659,6.6402,6.6402,6.6402,6.6109,6.5375,6.5301,6.5301,6.5301,6.5668,6.6035,6.6402,6.6402,6.6402,6.6402,6.6402,6.6623,6.7026,6.7026,6.7283,2.7946,2.8338,2.8707,2.7991,2.8475,2.9008,2.8495,2.87,2.9076,2.9288,3.0471,3.169,3.2415,3.3538,3.5015,3.7235,3.8692,4.1674,4.7802,5.0916,5.3334,5.5483,5.6316,5.668,5.668,5.668,5.668,5.668,5.668,5.668,5.668,5.6719,5.653,5.605,5.6729,5.7101,5.7101,5.8039,5.8597,5.877,5.9565,6.0351,6.1129,6.1129,6.1467,6.2042,6.2042,6.2042,6.2042,6.2178,6.2212,6.2245,6.2347,6.2381,6.2381,6.2381,6.2381,6.2381,6.2381,6.2654,6.308,6.3716,6.4182,6.4636,6.5278,6.5636,6.5891,6.5855,6.5985,6.6207,6.6668,6.6786,6.6786,6.6786,6.6815,6.6903,6.7154,6.7238,6.7322,6.766,6.7687,6.7687,6.7687,6.7687,6.7687,6.7687,6.7687,6.7687,6.7687,6.7687,6.7687,6.7687,6.7687,6.7687,6.7687,6.7687,6.71,6.5742,6.5668,6.5668,6.5668,6.6329,6.699,6.7687,6.7687,6.7687,6.7687,6.7687,6.7687,6.7687,6.7687,6.7687,2.7946,2.8946,2.9914,2.8991,3.0152,3.1414,3.1169,3.1653,3.2217,3.2229,3.3129,3.3941,3.4257,3.558,3.7334,3.9547,4.3065,4.7007,5.1115,5.2605,5.4063,5.6249,5.6614,5.668,5.668,5.668,5.668,5.668,5.668,5.668,5.668,5.6872,5.6954,5.682,5.726,5.7514,5.7514,5.7652,5.8167,5.8957,5.9096,5.9573,6.0283,6.0283,6.0351,6.0452,6.0452,6.0452,6.052,6.1197,6.1467,6.1535,6.2144,6.2381,6.2381,6.2381,6.2381,6.2381,6.2381,6.2654,6.3155,6.4182,6.4773,6.5278,6.6269,6.6608,6.6638,6.6638,6.6512,6.6482,6.6727,6.6786,6.6786,6.6786,6.6874,6.6983,6.7182,6.7322,6.7497,6.766,6.7687,6.7687,6.7687,6.7687,6.7687,6.7687,6.7687,6.7687,6.7687,6.7687,6.7687,6.7687,6.7687,6.7687,6.7687,6.7687,6.7577,6.7357,6.732,6.732,6.732,6.743,6.7577,6.7687,6.7687,6.7687,6.7687,6.7687,6.7687,6.7687,6.7687,6.7687,2.8142,2.9088,3.033,3.0526,3.2226,3.3904,3.3918,3.4659,3.5214,3.4929,3.5069,3.5416,3.591,3.7275,3.952,4.3297,4.6908,5.0121,5.2605,5.3897,5.5123,5.6514,5.668,5.668,5.668,5.668,5.668,5.668,5.668,5.6757,5.6872,5.6949,5.6934,5.6757,5.7312,5.7459,5.7161,5.7569,5.7977,5.8423,5.8423,5.8795,5.9505,5.9505,5.9708,6.0114,6.0114,6.0114,6.0148,6.096,6.1298,6.1366,6.211,6.2381,6.2381,6.2381,6.2381,6.2381,6.2381,6.2654,6.3193,6.4253,6.4875,6.5409,6.6452,6.6786,6.6786,6.6786,6.6727,6.6697,6.6757,6.6786,6.6815,6.6874,6.6961,6.7076,6.7331,6.7442,6.7524,6.766,6.7687,6.7687,6.7687,6.7687,6.7687,6.7687,6.7687,6.7687,6.7687,6.7687,6.7687,6.7687,6.7687,6.7687,6.7687,6.7687,6.7687,6.7687,6.7687,6.7687,6.7687,6.7687,6.7687,6.7687,6.7687,6.7687,6.7687,6.7687,6.7687,6.7687,6.7687,6.7687,2.8258,2.9088,3.0509,3.1607,3.3702,3.5617,3.6217,3.7289,3.8013,3.7458,3.7294,3.74,3.7798,3.9322,4.2033,4.6444,4.9458,5.1843,5.3467,5.4754,5.5885,5.6614,5.668,5.668,5.668,5.668,5.668,5.668,5.668,5.6796,5.6987,5.7025,5.6947,5.678,5.7322,5.7465,5.707,5.7611,5.7881,5.7881,5.7881,5.8186,5.8761,5.8761,5.9066,5.9573,5.9573,5.9573,5.9674,6.0622,6.1028,6.1129,6.2042,6.2381,6.2381,6.2381,6.2381,6.2381,6.2381,6.2654,6.3193,6.4253,6.4875,6.5409,6.6452,6.6786,6.6786,6.6786,6.6786,6.6786,6.6786,6.6786,6.6815,6.6932,6.7019,6.7134,6.7387,6.7497,6.7579,6.7687,6.7687,6.7687,6.7687,6.7687,6.7687,6.7687,6.7687,6.7687,6.7687,6.7687,6.7687,6.7687,6.7687,6.7687,6.7687,6.7687,6.7687,6.7687,6.7687,6.7687,6.7687,6.7687,6.7687,6.7687,6.7687,6.7687,6.7687,6.7687,6.7687,6.7687,6.7871,6.7981,2.8127,2.9083,3.0634,3.1628,3.3675,3.5876,3.7637,3.934,4.041,3.9944,4.0474,4.0845,4.0276,4.2464,4.5086,4.7537,4.979,5.2009,5.4162,5.5085,5.5885,5.6614,5.668,5.668,5.668,5.668,5.668,5.668,5.668,5.6796,5.6987,5.7176,5.7331,5.752,5.7738,5.7848,5.7814,5.7848,5.7881,5.7881,5.7881,5.7915,5.7983,5.7983,5.8017,5.8051,5.8051,5.8051,5.8152,5.9607,6.0182,6.0317,6.1806,6.2381,6.2381,6.2381,6.2381,6.2381,6.2381,6.2654,6.3193,6.4253,6.4875,6.5409,6.6452,6.6786,6.6786,6.6786,6.6786,6.6786,6.6786,6.6786,6.6786,6.6786,6.6983,6.721,6.721,6.7497,6.7687,6.7687,6.7687,6.7687,6.7687,6.7687,6.7687,6.7687,6.7687,6.7687,6.7687,6.7687,6.7687,6.7687,6.7687,6.7687,6.7687,6.7687,6.7687,6.7687,6.7687,6.7687,6.7687,6.7687,6.7687,6.7687,6.7687,6.7687,6.7687,6.7687,6.7687,6.7724,6.8458,6.8825,2.8354,2.9184,3.081,3.2426,3.469,3.7094,3.9307,4.1576,4.3287,4.3605,4.3532,4.323,4.2535,4.4423,4.6643,4.8398,5.0883,5.3069,5.4328,5.5554,5.6382,5.6647,5.668,5.668,5.668,5.668,5.668,5.668,5.668,5.6834,5.7176,5.7252,5.7439,5.7772,5.7845,5.7881,5.7881,5.7881,5.7881,5.7881,5.7881,5.7881,5.7881,5.7881,5.7881,5.7881,5.7881,5.7881,5.8017,5.9471,6.0114,6.025,6.1806,6.2381,6.2381,6.2381,6.2381,6.2381,6.2381,6.2654,6.3193,6.4253,6.4875,6.5409,6.6452,6.6786,6.6786,6.6786,6.6786,6.6786,6.6786,6.6786,6.6815,6.6903,6.6983,6.7126,6.7359,6.7497,6.7579,6.7687,6.7687,6.7687,6.7687,6.7687,6.7687,6.7687,6.7687,6.7687,6.7687,6.7687,6.7687,6.7687,6.7687,6.7687,6.7687,6.8164,6.8458,6.8458,6.7981,6.7687,6.7687,6.7687,6.7687,6.7687,6.7687,6.7687,6.7687,6.7687,6.7687,6.7724,6.8531,6.8898,2.9179,2.9954,3.1353,3.3039,3.5342,3.7917,4.0547,4.3194,4.5251,4.598,4.5748,4.5251,4.4754,4.6079,4.7636,4.8895,5.1347,5.3434,5.4394,5.5587,5.6448,5.6647,5.668,5.668,5.668,5.668,5.668,5.668,5.668,5.6872,5.7289,5.7289,5.7476,5.7881,5.7881,5.7881,5.7881,5.7881,5.7881,5.7881,5.7881,5.7881,5.7881,5.7881,5.7881,5.7881,5.7881,5.7881,5.8017,5.9471,6.0385,6.0926,6.1975,6.2381,6.2381,6.2381,6.2381,6.2381,6.2381,6.2654,6.3193,6.4253,6.4875,6.5409,6.6452,6.6786,6.6786,6.6786,6.6786,6.6786,6.6786,6.6786,6.6815,6.6932,6.699,6.704,6.7359,6.7442,6.7524,6.766,6.7687,6.7687,6.7687,6.7687,6.7687,6.7687,6.7687,6.7687,6.7687,6.7687,6.7687,6.7687,6.7687,6.7687,6.7687,6.8201,6.8531,6.8531,6.8238,6.8201,6.8421,6.8458,6.8458,6.8458,6.8458,6.8458,6.8458,6.8458,6.8458,6.8458,6.9302,6.9669,3.0742,3.1413,3.2431,3.3316,3.5444,3.8158,4.12,4.3951,4.6013,4.6775,4.6941,4.6941,4.6908,4.7504,4.8266,4.8995,5.0949,5.287,5.4295,5.5118,5.5885,5.6581,5.668,5.668,5.668,5.668,5.668,5.668,5.668,5.6872,5.7289,5.7289,5.7476,5.7881,5.7881,5.7881,5.7881,5.7881,5.7881,5.7881,5.7881,5.7881,5.7881,5.7881,5.7881,5.7881,5.7881,5.7881,5.8017,5.9471,6.0994,6.2381,6.2381,6.2381,6.2381,6.2381,6.2381,6.2381,6.2381,6.2654,6.3193,6.4253,6.4875,6.5409,6.6488,6.6786,6.6786,6.6786,6.6786,6.6786,6.6786,6.6786,6.6786,6.6786,6.6903,6.7011,6.7182,6.7359,6.7524,6.766,6.7687,6.7687,6.7687,6.7687,6.7687,6.7687,6.7687,6.7687,6.7687,6.7687,6.7687,6.7687,6.7687,6.7687,6.7687,6.7714,6.7714,6.7714,6.8458,6.9265,7.0073,7.011,7.011,7.011,7.011,7.011,7.011,7.011,7.011,7.011,7.0954,7.1293,3.0154,3.1659,3.363,3.511,3.8005,4.1229,4.3894,4.5592,4.7206,4.9491,4.9591,4.8895,4.7868,4.8299,4.8862,4.9061,5.0949,5.2705,5.3599,5.4787,5.5648,5.5918,5.6382,5.668,5.668,5.668,5.668,5.668,5.668,5.6872,5.7289,5.7289,5.7476,5.7881,5.7881,5.7881,5.7881,5.7881,5.7881,5.7881,5.7881,5.7881,5.7881,5.7881,5.7881,5.7881,5.7881,5.7881,5.8017,5.9471,6.0994,6.2381,6.2381,6.2381,6.2381,6.2381,6.2498,6.2576,6.2576,6.3042,6.3679,6.4532,6.5176,6.57,6.6548,6.6786,6.6786,6.6786,6.6786,6.6786,6.6786,6.6786,6.6786,6.6786,6.6815,6.6932,6.7154,6.7238,6.735,6.766,6.7687,6.7687,6.7687,6.7687,6.7687,6.7687,6.7687,6.7687,6.7687,6.7687,6.7687,6.7687,6.7687,6.7687,6.7687,6.8201,6.8531,6.8531,6.9853,7.0183,6.9302,6.9816,7.011,7.011,7.011,7.011,7.011,7.011,7.011,7.011,7.0954,7.1293,3.1248,3.3244,3.5486,3.7458,4.0484,4.3854,4.711,4.8266,4.9226,5.1315,5.1148,5.0353,4.9458,4.9657,4.9955,4.9955,5.1313,5.2605,5.3334,5.4195,5.492,5.5516,5.5984,5.6382,5.6647,5.668,5.668,5.668,5.668,5.6872,5.7289,5.7289,5.7476,5.7881,5.7881,5.7881,5.7881,5.7881,5.7881,5.7881,5.7881,5.7881,5.7881,5.7881,5.7881,5.7881,5.7881,5.822,5.8829,5.9742,6.0994,6.2381,6.2381,6.2381,6.2381,6.2381,6.2498,6.2731,6.2928,6.342,6.404,6.4941,6.5504,6.5922,6.6608,6.6786,6.6786,6.6786,6.6786,6.6786,6.6786,6.6786,6.6786,6.6786,6.6786,6.6874,6.7154,6.721,6.7294,6.7633,6.7687,6.7797,6.8128,6.8164,6.8274,6.8605,6.8641,6.8641,6.8641,6.8641,6.8641,6.8641,6.8641,6.8641,6.8641,6.9082,6.9376,6.9376,7.0587,7.0852,6.9889,7.0624,7.1064,7.1064,7.1064,7.1064,7.1064,7.1064,7.1064,7.1064,7.1541,7.1798,3.3125,3.5375,3.7772,3.9951,4.28,4.621,5.0453,5.1415,5.1614,5.2277,5.1879,5.1415,5.1415,5.1415,5.1415,5.1415,5.1978,5.2605,5.3235,5.3367,5.393,5.5218,5.545,5.5786,5.6415,5.6481,5.6481,5.6481,5.6547,5.6773,5.7189,5.7256,5.7476,5.7881,5.7881,5.7881,5.7881,5.7881,5.7881,5.7881,5.7881,5.7881,5.7881,5.7881,5.7881,5.7881,5.7881,5.8693,6.0013,6.008,6.096,6.2313,6.2347,6.2381,6.2381,6.2381,6.2537,6.2808,6.3308,6.3787,6.4323,6.5374,6.5859,6.6146,6.6638,6.6786,6.6786,6.6786,6.6786,6.6786,6.6786,6.6786,6.6786,6.6786,6.6786,6.6874,6.7154,6.721,6.7294,6.7633,6.7787,6.8017,6.8788,6.8972,6.9265,7.0,7.011,7.011,7.011,7.011,7.011,7.011,7.011,7.011,7.011,7.011,7.011,7.011,7.0881,7.1293,7.1293,7.2018,7.2386,7.2386,7.2386,7.2386,7.2386,7.2459,7.2496,7.2496,7.2496,7.2496,3.2169,3.5578,3.892,4.0611,4.4596,4.8862,5.158,5.2177,5.221,5.2376,5.2277,5.2177,5.2177,5.2177,5.2177,5.2177,5.231,5.244,5.2572,5.3069,5.3533,5.3864,5.4357,5.4825,5.4957,5.499,5.499,5.499,5.5521,5.6004,5.6415,5.6988,5.7476,5.7881,5.7881,5.7881,5.7881,5.7881,5.7881,5.7881,5.7881,5.7881,5.7881,5.7881,5.7881,5.7881,5.7881,5.8423,5.9302,5.9877,6.0655,6.1603,6.2178,6.2381,6.2381,6.2381,6.2615,6.2962,6.3265,6.3894,6.4672,6.5344,6.5859,6.63,6.6668,6.6786,6.6786,6.6786,6.6786,6.6786,6.6786,6.6786,6.6786,6.6786,6.6786,6.6874,6.7154,6.721,6.7294,6.7633,6.8201,6.8715,6.8862,6.9412,6.9889,7.0073,7.011,7.011,7.011,7.011,7.011,7.011,7.011,7.011,7.011,7.011,7.011,7.011,7.0881,7.1293,7.1293,7.1439,7.155,7.155,7.155,7.155,7.155,7.2202,7.2496,7.2496,7.2496,7.2496,3.2063,3.6125,4.066,4.4537,4.7836,5.0551,5.2078,5.2409,5.2409,5.2409,5.2409,5.2409,5.2409,5.2409,5.2409,5.2409,5.2409,5.2409,5.2409,5.2705,5.3036,5.3367,5.3765,5.4129,5.4456,5.449,5.449,5.449,5.4854,5.524,5.5646,5.6385,5.6972,5.7374,5.7712,5.7881,5.7881,5.7881,5.7881,5.7881,5.7881,5.7881,5.7881,5.7881,5.7881,5.7881,5.7881,5.8321,5.9032,5.9438,6.025,6.1332,6.1704,6.2076,6.2381,6.2381,6.2576,6.2923,6.3268,6.3858,6.4533,6.5308,6.5859,6.6238,6.6668,6.6786,6.6786,6.6786,6.6786,6.6786,6.6786,6.6786,6.6786,6.6786,6.6786,6.6954,6.7549,6.7737,6.7988,6.8614,6.9137,6.9596,7.0,7.0734,7.1248,7.1248,7.1248,7.1248,7.1248,7.1248,7.1248,7.1248,7.1248,7.1248,7.1248,7.1248,7.1248,7.1248,7.1651,7.1872,7.1872,7.1476,7.1293,7.1293,7.1293,7.1293,7.1293,7.2129,7.2496,7.2496,7.2496,7.2496,3.22,3.6841,4.2441,4.8662,5.0651,5.1348,5.2175,5.2409,5.2409,5.2409,5.2409,5.2409,5.2409,5.2409,5.2409,5.2409,5.2409,5.2409,5.2409,5.2409,5.2605,5.3169,5.3235,5.3467,5.4096,5.4162,5.4162,5.4162,5.4262,5.4476,5.4912,5.5615,5.6267,5.6799,5.7374,5.7746,5.7881,5.7881,5.7881,5.7881,5.7881,5.7881,5.7881,5.7881,5.7881,5.7881,5.7881,5.8254,5.8829,5.9099,5.9945,6.1129,6.14,6.1873,6.2381,6.2381,6.2498,6.277,6.3233,6.3714,6.4252,6.524,6.576,6.6048,6.6638,6.6786,6.6786,6.6786,6.6786,6.6786,6.6786,6.6895,6.7003,6.7003,6.7112,6.7395,6.8051,6.8408,6.8844,6.971,7.0136,7.055,7.1394,7.2055,7.2496,7.2496,7.2496,7.2496,7.2496,7.2606,7.2716,7.2716,7.2826,7.2899,7.2899,7.2899,7.2899,7.2899,7.2899,7.2899,7.2899,7.2165,7.1651,7.1541,7.1394,7.1293,7.1293,7.2129,7.2496,7.2496,7.2496,7.2496,3.1916,3.7456,4.3649,4.8893,5.0286,5.0717,5.2075,5.2409,5.2409,5.2409,5.2409,5.2409,5.2409,5.2409,5.2409,5.2409,5.2409,5.2409,5.2409,5.2409,5.2442,5.2506,5.2506,5.2572,5.2672,5.2672,5.2672,5.2672,5.3235,5.3748,5.4142,5.4845,5.573,5.6799,5.69,5.7239,5.7881,5.7881,5.7881,5.7881,5.7881,5.7881,5.7881,5.7881,5.7881,5.7881,5.7881,5.7949,5.8152,5.9438,6.008,6.0385,6.1738,6.2313,6.2381,6.2381,6.2498,6.2765,6.3,6.3383,6.4004,6.4942,6.5507,6.5891,6.6608,6.6786,6.6786,6.6786,6.6786,6.6786,6.6786,6.7329,6.7836,6.7836,6.838,6.8766,6.8298,6.8764,6.9391,6.9827,7.0547,7.1394,7.2202,7.2422,7.2496,7.2496,7.2496,7.2496,7.2496,7.312,7.3523,7.3523,7.4147,7.4588,7.4588,7.4588,7.4588,7.4588,7.4588,7.4588,7.4588,7.3817,7.3046,7.2349,7.1688,7.1293,7.1293,7.2129,7.2496,7.2496,7.2496,7.2496,3.4673,3.9489,4.4172,4.8991,5.0518,5.1082,5.2177,5.2409,5.2409,5.2409,5.2409,5.2409,5.2409,5.2409,5.2409,5.2409,5.2409,5.2409,5.2409,5.2409,5.2409,5.2409,5.2409,5.2409,5.2409,5.2409,5.2409,5.2409,5.2672,5.3017,5.3372,5.4075,5.4823,5.5547,5.6359,5.6968,5.7273,5.7679,5.7881,5.7881,5.7881,5.7881,5.7881,5.7881,5.7881,5.7881,5.7881,5.7881,5.7983,5.9066,5.9742,6.0216,6.1332,6.2042,6.2381,6.2381,6.2459,6.2537,6.2615,6.2966,6.3531,6.4532,6.511,6.5604,6.6548,6.6786,6.6786,6.6786,6.6786,6.6895,6.7366,6.7728,6.8126,6.8561,6.9285,6.9787,6.9485,6.9794,7.0307,7.107,7.1647,7.2092,7.2459,7.2496,7.2496,7.2496,7.2496,7.2496,7.2496,7.3193,7.3707,7.3707,7.4441,7.4918,7.4918,7.4918,7.4918,7.4918,7.4918,7.4918,7.4918,7.4551,7.4221,7.3854,7.2606,7.1762,7.1293,7.2129,7.2496,7.2496,7.2496,7.2496,3.6181,3.9932,4.3299,4.7935,4.9624,5.0452,5.1578,5.1976,5.2142,5.234,5.2409,5.2409,5.2409,5.2409,5.2409,5.2409,5.2409,5.2409,5.2409,5.2409,5.2409,5.2409,5.2409,5.2409,5.2409,5.2409,5.2409,5.2409,5.2409,5.2551,5.2868,5.3405,5.3983,5.46,5.5649,5.6427,5.6799,5.7509,5.7881,5.7881,5.7881,5.7881,5.7881,5.7881,5.7881,5.7881,5.7881,5.7881,5.7949,5.8896,5.9607,6.0216,6.1197,6.1946,6.2459,6.2459,6.2498,6.2537,6.2537,6.2847,6.3346,6.4358,6.4976,6.5507,6.6482,6.6786,6.6786,6.6786,6.6967,6.7257,6.7836,6.8307,6.8742,6.9358,7.0113,7.0661,7.0661,7.0847,7.1205,7.2064,7.2563,7.2789,7.2789,7.2973,7.312,7.312,7.312,7.312,7.312,7.3817,7.4294,7.4294,7.5028,7.5542,7.5542,7.5542,7.5542,7.5542,7.5542,7.5542,7.5542,7.5542,7.5432,7.5212,7.4037,7.2936,7.1908,7.2312,7.2496,7.2496,7.2496,7.2496,3.4116,3.6958,4.0298,4.49,4.6576,4.7703,4.9856,5.085,5.158,5.2277,5.2409,5.2409,5.2409,5.2409,5.2409,5.2409,5.2409,5.2409,5.2409,5.2409,5.2409,5.2409,5.2409,5.2409,5.2409,5.2409,5.2409,5.2409,5.2409,5.2551,5.2868,5.2937,5.3445,5.4566,5.4668,5.5378,5.6799,5.7509,5.7881,5.7881,5.7881,5.7881,5.7881,5.7881,5.7881,5.7881,5.7881,5.7881,5.8017,5.9438,6.008,6.025,6.1738,6.2464,6.2654,6.2654,6.2808,6.2962,6.2962,6.3343,6.3897,6.4635,6.5242,6.5828,6.6578,6.6786,6.6786,6.6786,6.7366,6.7945,6.8017,6.914,7.0263,7.033,7.0879,7.1458,7.1458,7.1671,7.1951,7.2018,7.2878,7.3634,7.3634,7.4258,7.4808,7.4808,7.4808,7.4808,7.4808,7.5469,7.5983,7.5983,7.6717,7.7163,7.7163,7.7163,7.7163,7.7163,7.7163,7.7163,7.7163,7.7163,7.6827,7.6056,7.5946,7.5139,7.356,7.2863,7.2496,7.2496,7.2496,7.2496,3.1855,3.434,3.7261,4.1337,4.3562,4.5516,4.8199,4.9723,5.0949,5.2142,5.2409,5.2409,5.2409,5.2409,5.2409,5.2409,5.2409,5.2409,5.2409,5.2409,5.2409,5.2409,5.2409,5.2409,5.2409,5.2409,5.2409,5.2409,5.2409,5.248,5.2694,5.2834,5.3141,5.3685,5.4295,5.531,5.6799,5.7509,5.7881,5.7881,5.7881,5.7881,5.7881,5.7881,5.7881,5.7881,5.7881,5.7881,5.8017,5.9471,6.0114,6.025,6.1806,6.2498,6.2731,6.308,6.3346,6.3568,6.3897,6.4218,6.4601,6.5207,6.5633,6.5985,6.6608,6.6786,6.6895,6.7438,6.78,6.8235,6.9285,6.9973,7.0625,7.1639,7.2472,7.2907,7.24,7.2107,7.1988,7.1988,7.2512,7.2936,7.2936,7.3156,7.3377,7.3377,7.3377,7.3377,7.3377,7.4074,7.4551,7.4551,7.5285,7.5763,7.5763,7.5763,7.5763,7.5763,7.5763,7.6019,7.6533,7.6533,7.6644,7.69,7.635,7.5579,7.4478,7.4184,7.4037,7.4037,7.4037,7.4037,3.0029,3.2226,3.4794,3.7998,4.0266,4.251,4.5452,4.7504,4.9293,5.1247,5.1843,5.2111,5.2376,5.2409,5.2409,5.2409,5.2409,5.2409,5.2409,5.2409,5.2409,5.2409,5.2409,5.2409,5.2409,5.2409,5.2409,5.2409,5.2409,5.248,5.2589,5.2729,5.2903,5.3179,5.4328,5.5446,5.6427,5.7408,5.7881,5.7881,5.7881,5.7881,5.7881,5.7881,5.7881,5.7881,5.7881,5.7881,5.8017,5.9471,6.0114,6.025,6.1806,6.2576,6.2885,6.342,6.3752,6.4076,6.4636,6.4941,6.5242,6.5665,6.5985,6.6269,6.6668,6.7003,6.7329,6.7873,6.838,6.9032,7.0118,7.0553,7.1024,7.2074,7.2726,7.2979,7.25,7.2424,7.2316,7.2024,7.2475,7.2899,7.2899,7.312,7.3303,7.3303,7.3303,7.3303,7.3303,7.378,7.4111,7.4111,7.4588,7.4918,7.4918,7.4918,7.4918,7.4918,7.4918,7.5139,7.5689,7.5946,7.635,7.69,7.6644,7.624,7.5696,7.5175,7.4918,7.4918,7.4918,7.4918,0.0,0.0,0.0,3.4929,3.6682,3.8659,4.165,4.4092,4.6543,4.9525,5.0717,5.1514,5.2277,5.2409,5.2409,5.2409,5.2409,5.2409,5.2409,5.2409,5.2409,5.2409,5.2409,5.2409,5.2409,5.2409,5.2409,5.2409,5.2409,5.2445,5.2589,5.2589,5.2799,5.3179,5.4801,5.5647,5.5681,5.7137,5.7881,5.7881,5.7881,5.7881,5.7881,5.7881,5.7881,5.7881,5.7881,5.7881,5.8017,5.9471,6.008,6.025,6.1772,6.262,6.3076,6.3641,6.4076,6.4498,6.5078,6.5474,6.5764,6.5954,6.6238,6.6578,6.6763,6.7402,6.8017,6.8054,6.9213,7.0439,7.0439,7.0987,7.1531,7.1531,7.1567,7.163,7.1822,7.2558,7.2972,7.22,7.2914,7.367,7.367,7.4331,7.4845,7.4845,7.4845,7.4845,7.4845,7.4845,7.4845,7.4845,7.4845,7.4845,7.4845,7.4845,7.4845,7.4845,7.4845,7.4845,7.4882,7.5652,7.6093,7.6093,7.69,7.7273,7.7273,7.5763,7.4992,7.4992,7.4992,7.4992,2.7373,0.0,0.0,0.0,0.0,0.0,3.8646,4.1508,4.4423,4.7901,4.9624,5.0883,5.2142,5.2409,5.2409,5.2409,5.2409,5.2409,5.2409,5.2409,5.2409,5.2409,5.2409,5.2409,5.2409,5.2409,5.2409,5.2409,5.2409,5.2409,5.2445,5.2692,5.2972,5.3382,5.4363,5.5175,5.5681,5.663,5.7374,5.7881,5.7881,5.7881,5.7881,5.7881,5.7881,5.7881,5.7881,5.7881,5.7949,5.893,5.9641,6.0216,6.1197,6.2178,6.3117,6.404,6.4636,6.5112,6.6052,6.6391,6.6482,6.6578,6.6638,6.6836,6.7444,6.7836,6.8235,6.9394,7.0046,7.0517,7.106,7.1784,7.2364,7.2364,7.293,7.3316,7.2766,7.3051,7.3191,7.235,7.2563,7.2826,7.2826,7.301,7.3156,7.3156,7.3156,7.3156,7.3156,7.3156,7.3156,7.3156,7.3156,7.3156,7.3156,7.3156,7.3156,7.3156,7.3156,7.3413,7.4001,7.4808,7.5506,7.6093,7.69,7.7273,7.7273,7.6833,7.6613,7.6613,7.6613,7.6613,2.6909,2.7589,0.0,2.9786,0.0,0.0,3.5622,3.8256,4.122,4.4922,4.6874,4.8431,5.022,5.0551,5.0551,5.0551,5.0817,5.1347,5.2277,5.2409,5.2409,5.2409,5.2409,5.2409,5.2409,5.2409,5.2409,5.2409,5.2409,5.2409,5.248,5.2834,5.311,5.3382,5.416,5.4803,5.5243,5.6292,5.7036,5.7442,5.7746,5.7881,5.7881,5.7881,5.7881,5.7881,5.7881,5.7881,5.7915,5.8355,5.9167,6.0182,6.0994,6.2008,6.3117,6.404,6.4704,6.5209,6.6238,6.6638,6.6697,6.6757,6.704,6.7402,6.7873,6.8488,6.9213,7.0118,7.0625,7.0951,7.1386,7.1857,7.2219,7.2314,7.2771,7.3083,7.2802,7.2844,7.2848,7.2372,7.2416,7.2496,7.2496,7.2496,7.2496,7.2496,7.2789,7.301,7.301,7.3303,7.3523,7.3523,7.3523,7.3523,7.3523,7.3523,7.3523,7.3523,7.3523,7.3707,7.4184,7.4992,7.5616,7.6093,7.69,7.7273,7.7273,7.7273,7.7273,7.7273,7.7273,7.7273,2.7243,2.7874,0.0,0.0,2.9821,0.0,3.2789,3.4914,3.7543,4.1253,4.3197,4.4887,4.7106,4.7504,4.7504,4.7504,4.8199,4.9525,5.181,5.2243,5.231,5.2409,5.2409,5.2409,5.2409,5.2409,5.2409,5.2409,5.2409,5.2516,5.2659,5.3007,5.3213,5.3213,5.4058,5.4499,5.46,5.5987,5.6731,5.6799,5.7543,5.7881,5.7881,5.7881,5.7881,5.7881,5.7881,5.7881,5.7881,5.7983,5.8829,6.0182,6.0892,6.1902,6.3042,6.3787,6.4358,6.4942,6.5891,6.633,6.6482,6.6727,6.7366,6.8017,6.8126,6.9176,7.0439,7.0511,7.1019,7.1557,7.1557,7.1557,7.1589,7.178,7.1847,7.1939,7.224,7.2329,7.2329,7.2329,7.2409,7.2496,7.2496,7.2496,7.2496,7.2496,7.3193,7.3707,7.3707,7.4404,7.4918,7.4918,7.4918,7.4918,7.4918,7.4918,7.4918,7.4918,7.4918,7.4918,7.4918,7.5689,7.6093,7.6093,7.69,7.7273,7.7273,7.7273,7.7273,7.7273,7.7273,7.7273,2.8925,2.8932,2.8829,2.9175,0.0,0.0,3.1043,3.2727,3.4972,3.8348,4.0216,4.1905,4.4062,4.4459,4.4459,4.4459,4.5582,4.7404,5.022,5.1115,5.1746,5.2307,5.2409,5.2409,5.2409,5.2409,5.2409,5.2409,5.2516,5.2694,5.3041,5.3144,5.3247,5.3416,5.3619,5.3991,5.4566,5.548,5.6224,5.6799,5.7543,5.7881,5.7881,5.7881,5.7881,5.7881,5.7881,5.7881,5.7949,5.8558,5.9302,6.0114,6.0283,6.1316,6.2808,6.342,6.3895,6.4428,6.5471,6.5954,6.6177,6.6638,6.7366,6.8126,6.8778,6.9642,7.0548,7.1288,7.1732,7.1897,7.1897,7.1897,7.1897,7.1927,7.2084,7.224,7.2299,7.2351,7.2438,7.2438,7.2467,7.2496,7.2496,7.2496,7.2496,7.2496,7.3193,7.3707,7.3707,7.4404,7.4918,7.4918,7.4918,7.4918,7.4918,7.4918,7.4918,7.4918,7.4918,7.4918,7.4918,7.5689,7.6093,7.6093,7.69,7.7273,7.7273,7.7273,7.7273,7.7273,7.7273,7.7273,2.9532,2.9432,2.926,2.9185,0.0,0.0,0.0,3.1048,3.2843,3.5819,3.7305,3.8778,4.1044,4.1442,4.1442,4.1442,4.2667,4.439,4.6578,4.9127,5.1148,5.2277,5.2409,5.2409,5.2409,5.2409,5.2445,5.2516,5.2729,5.2972,5.3179,5.3314,5.3382,5.3518,5.3518,5.3687,5.4059,5.5175,5.5919,5.6258,5.7374,5.7881,5.7881,5.7881,5.7881,5.7881,5.7881,5.7881,5.7949,5.8693,5.9509,6.0333,6.0706,6.1711,6.3038,6.3417,6.393,6.4498,6.5308,6.5828,6.6207,6.6668,6.7366,6.8162,6.8959,7.0071,7.1215,7.1677,7.1903,7.1988,7.1988,7.1988,7.2018,7.2144,7.2204,7.2329,7.2416,7.2438,7.2496,7.2496,7.2496,7.2496,7.2496,7.2496,7.2496,7.2496,7.3523,7.4294,7.4294,7.5359,7.6099,7.6099,7.6099,7.6099,7.6099,7.6099,7.6099,7.6099,7.6099,7.6099,7.6099,7.6497,7.6717,7.6717,7.709,7.7273,7.7273,7.7273,7.7273,7.7273,7.7273,7.7273,0.0,0.0,0.0,0.0,0.0,2.9521,0.0,0.0,0.0,3.3787,3.4833,3.5943,3.8037,3.8453,3.8453,3.8453,3.9653,4.111,4.2539,4.6081,4.926,5.128,5.1678,5.181,5.1943,5.2075,5.2314,5.2624,5.2838,5.3044,5.3247,5.3416,5.3518,5.3518,5.3518,5.3518,5.3518,5.4972,5.5681,5.575,5.7205,5.7918,5.7954,5.7954,5.7954,5.7991,5.7991,5.8092,5.8262,5.9041,5.9936,6.0981,6.1559,6.2429,6.3452,6.3675,6.4182,6.4843,6.5344,6.5828,6.63,6.6668,6.7366,6.8199,6.914,7.0453,7.1629,7.1775,7.1964,7.2078,7.2078,7.2078,7.2144,7.2292,7.2358,7.2387,7.2467,7.2496,7.2496,7.2496,7.2496,7.2496,7.2496,7.2496,7.2496,7.2496,7.3744,7.4735,7.4882,7.6203,7.7127,7.7273,7.7273,7.7273,7.7273,7.7273,7.7273,7.7273,7.7273,7.7273,7.7273,7.7273,7.7273,7.7273,7.7273,7.7273,7.7273,7.7273,7.7273,7.7273,7.7273,7.7273,0.0,0.0,0.0,0.0,3.0508,0.0,0.0,0.0,3.1162,3.2845,0.0,3.3892,3.5166,0.0,0.0,3.5379,3.6638,3.8096,3.958,4.1309,4.3926,4.8001,4.9094,4.9723,5.0386,5.1015,5.1853,5.28,5.23,5.2404,5.3416,5.3518,5.3518,5.3518,5.3518,5.3518,5.3518,5.4972,5.5681,5.575,5.7205,5.7991,5.8169,5.8169,5.8243,5.8455,5.8455,5.8795,5.9479,6.0194,6.1275,6.2433,6.2358,6.2914,6.3788,6.4288,6.4635,6.4941,6.5504,6.5824,6.6146,6.6638,6.7366,6.8271,6.9792,7.055,7.1046,7.1775,7.2204,7.2438,7.2438,7.2438,7.2438,7.2467,7.2467,7.2467,7.2496,7.2496,7.2496,7.2496,7.2496,7.2496,7.2496,7.2496,7.2496,7.2496,7.3266,7.4074,7.4808,7.5689,7.6533,7.72,7.7273,7.7273,7.7273,7.7273,7.7273,7.7273,7.7273,7.7273,7.7273,7.7273,7.7273,7.7273,7.7273,7.7273,7.7273,7.7273,7.7273,7.7273,7.7273,7.7273,0.0,0.0,0.0,0.0,0.0,0.0,3.0133,0.0,3.0947,0.0,0.0,0.0,0.0,0.0,0.0,0.0,3.5777,3.6837,3.7864,3.8891,4.0983,4.4986,4.6477,4.7802,4.9425,5.0391,5.1093,5.1427,5.1363,5.1732,5.264,5.318,5.3518,5.3518,5.3518,5.3518,5.3518,5.4972,5.5681,5.575,5.7205,5.7991,5.8207,5.8492,5.8702,5.8944,5.9215,5.9834,6.0598,6.1328,6.23,6.3377,6.4035,6.4354,6.4498,6.4841,6.5143,6.5406,6.5764,6.6048,6.6433,6.724,6.8054,6.8887,7.0046,7.0852,7.1466,7.1848,7.2204,7.238,7.2467,7.2496,7.2496,7.2496,7.2496,7.2496,7.2496,7.2496,7.2496,7.2496,7.2496,7.2496,7.2496,7.2496,7.2496,7.2496,7.3193,7.3817,7.4147,7.5322,7.624,7.657,7.7047,7.7273,7.7273,7.7273,7.7273,7.7273,7.7273,7.7273,7.7273,7.7273,7.7273,7.7273,7.7273,7.7273,7.7273,7.7273,7.7273,7.7273,7.7273,7.7273,3.4352,0.0,0.0,0.0,0.0,0.0,0.0,0.0,0.0,0.0,0.0,0.0,0.0,0.0,0.0,0.0,0.0,3.5876,3.6439,3.6804,3.8361,4.2005,4.4059,4.598,4.8001,4.8927,4.9491,4.9826,4.9787,5.025,5.1494,5.2369,5.2976,5.3179,5.3382,5.3518,5.3518,5.4972,5.5681,5.575,5.7205,5.8027,5.8312,5.8772,5.9113,5.9382,5.9902,6.0723,6.1706,6.2237,6.3214,6.443,6.5419,6.5601,6.5341,6.5572,6.5796,6.6016,6.6177,6.6361,6.6716,6.7668,6.8416,6.9032,7.0082,7.0894,7.1556,7.186,7.2114,7.2329,7.2409,7.2467,7.2496,7.2496,7.2496,7.2496,7.2496,7.2496,7.2496,7.2496,7.2496,7.2496,7.2496,7.2496,7.2496,7.2496,7.301,7.345,7.367,7.4698,7.5616,7.6056,7.6644,7.7053,7.7273,7.7273,7.7273,7.7273,7.7273,7.7273,7.7273,7.7273,7.7273,7.7273,7.7273,7.7273,7.7273,7.7273,7.7273,7.7273,7.7273,7.7273,0.0,3.5908,0.0,3.3754,0.0,0.0,0.0,0.0,3.1879,0.0,0.0,0.0,0.0,0.0,0.0,0.0,0.0,0.0,0.0,3.4386,3.5313,3.9017,4.1939,4.4291,4.5748,4.5945,4.6668,4.845,4.7245,4.7533,5.0033,5.0879,5.1623,5.2334,5.3078,5.3518,5.3518,5.4972,5.5681,5.575,5.7205,5.8099,5.8525,5.8978,5.9415,5.9811,6.0286,6.1388,6.284,6.2875,6.3989,6.5665,6.5891,6.6207,6.6482,6.6668,6.6757,6.6757,6.6757,6.6757,6.6931,6.7764,6.8017,6.8343,6.9901,7.0495,7.0799,7.1598,7.2024,7.2299,7.2329,7.238,7.2496,7.2496,7.2496,7.2496,7.2496,7.2496,7.2496,7.2496,7.2496,7.2496,7.2496,7.2496,7.2496,7.2496,7.2532,7.2826,7.3597,7.3744,7.4368,7.5946,7.613,7.646,7.7237,7.7273,7.7273,7.7273,7.7273,7.7273,7.7273,7.7273,7.7273,7.7273,7.7273,7.7273,7.7273,7.7273,7.7273,7.7273,7.7273,7.7273,3.8482,3.7614,3.6656,3.6207,3.4951,3.3634,0.0,0.0,0.0,0.0,0.0,0.0,0.0,0.0,0.0,0.0,0.0,0.0,0.0,3.4253,3.4419,0.0,0.0,0.0,4.21,4.2836,4.3618,4.4586,4.4394,4.5274,4.7615,4.9463,5.0811,5.1555,5.2841,5.3518,5.3518,5.4972,5.5681,5.575,5.7205,5.8099,5.8525,5.9349,5.9902,6.0317,6.114,6.2422,6.3896,6.3896,6.4891,6.6421,6.6482,6.6608,6.6697,6.6757,6.6786,6.6895,6.7402,6.7583,6.78,6.914,6.9575,6.9792,7.0806,7.1164,7.1262,7.1677,7.1878,7.203,7.224,7.2358,7.238,7.2467,7.2496,7.2496,7.2496,7.2496,7.2496,7.2496,7.2496,7.2496,7.2496,7.2496,7.2496,7.2496,7.2496,7.2606,7.2863,7.3377,7.3891,7.4441,7.5469,7.6203,7.6497,7.698,7.7273,7.7273,7.7273,7.7273,7.7273,7.7273,7.7273,7.7273,7.7273,7.7273,7.7273,7.7273,7.7273,7.7273,7.7273,7.7273,4.0187,3.9649,3.905,3.8601,3.7345,3.5938,3.4801,3.4656,3.448,0.0,0.0,0.0,0.0,0.0,0.0,0.0,0.0,0.0,0.0,3.4087,0.0,0.0,0.0,0.0,0.0,4.0261,4.0936,4.1582,4.158,4.2717,4.526,4.7609,4.9461,5.0777,5.257,5.3619,5.389,5.5108,5.5887,5.6228,5.7414,5.8278,5.884,5.9679,6.0458,6.1143,6.2068,6.3345,6.483,6.483,6.5591,6.6786,6.6786,6.6786,6.6786,6.6786,6.6786,6.6931,6.7728,6.8017,6.8271,6.9865,7.0372,7.0517,7.1277,7.1494,7.1526,7.1656,7.1718,7.1847,7.2091,7.221,7.2329,7.2416,7.2467,7.2496,7.2496,7.2496,7.2496,7.2496,7.2496,7.2496,7.2496,7.2496,7.2606,7.2899,7.2936,7.3046,7.334,7.3817,7.4221,7.4515,7.5469,7.624,7.6497,7.698,7.7273,7.7273,7.7273,7.7273,7.7273,7.7273,7.7273,7.7273,7.7273,7.7273,7.7273,7.7273,7.7273,7.7273,7.7273,7.7273]}]]